[[{"header":{"parameterUnit":"m.s-1","parameterCategory":1,"la1":30.6,"la2":28.766,"lo1":-90.7593,"lo2":-88.6598,"dy":0.0162,"dx":0.0183,"nx":116,"ny":114,"refTime":"2023-08-01T00:00:00:Z","depth":0,"parameterNumber":2,"parameterNumberName":"U-component_of_WINDS"},"data":[0.0,0.0,0.0,0.0,0.0,0.0,0.0,0.0,0.0,0.0,0.0,0.0,0.0,0.0,0.0,0.0,0.0,0.0,0.0,0.0,0.0,0.0,0.0,0.0,0.0,0.0,0.0,0.0,0.0,0.0,0.0,0.0,0.0,0.0,0.0,0.0,0.0,0.0,0.0,0.0,0.0,0.0,0.0,0.0,0.0,0.0,0.0,0.0,0.0,0.0,0.0,0.0,0.0,0.0,0.0,0.0,0.0,0.0,0.0,0.0,0.0,0.0,0.0,0.0,0.0,0.0,0.0,0.0,0.0,0.0,0.0,0.0,0.0,0.0,0.0,0.0,0.0,0.0,0.0,0.0,0.0,0.0,0.0,0.0,0.0,0.0,0.0,0.0,0.0,0.0,0.0,0.0,0.0,0.0,0.0,0.0,0.0,0.0,0.0,0.0,0.0,0.0,0.0,0.0,0.0,0.0,0.0,0.0,0.0,0.0,0.0,0.0,0.0,0.0,0.0,0.0,0.0,0.0,0.0,0.0,0.0,0.0,0.0,0.0,0.0,0.0,0.0,0.0,0.0,0.0,0.0,0.0,0.0,0.0,0.0,0.0,0.0,0.0,0.0,0.0,0.0,0.0,0.0,0.0,0.0,0.0,0.0,0.0,0.0,0.0,0.0,0.0,0.0,0.0,0.0,0.0,0.0,0.0,0.0,0.0,0.0,0.0,0.0,0.0,0.0,0.0,0.0,0.0,0.0,0.0,0.0,0.0,0.0,0.0,0.0,0.0,0.0,0.0,0.0,0.0,0.0,0.0,0.0,0.0,0.0,0.0,0.0,0.0,0.0,0.0,0.0,0.0,0.0,0.0,0.0,0.0,0.0,0.0,0.0,0.0,0.0,0.0,0.0,0.0,0.0,0.0,0.0,0.0,0.0,0.0,0.0,0.0,0.0,0.0,0.0,0.0,0.0,0.0,0.0,0.0,0.0,0.0,0.0,0.0,0.0,0.0,0.0,0.0,0.0,0.0,0.0,0.0,0.0,0.0,0.0,0.0,0.0,0.0,0.0,0.0,0.0,0.0,0.0,0.0,0.0,0.0,0.0,0.0,0.0,0.0,0.0,0.0,0.0,0.0,0.0,0.0,0.0,0.0,0.0,0.0,0.0,0.0,0.0,0.0,0.0,0.0,0.0,0.0,0.0,0.0,0.0,0.0,0.0,0.0,0.0,0.0,0.0,0.0,0.0,0.0,0.0,0.0,0.0,0.0,0.0,0.0,0.0,0.0,0.0,0.0,0.0,0.0,0.0,0.0,0.0,0.0,0.0,0.0,0.0,0.0,0.0,0.0,0.0,0.0,0.0,0.0,0.0,0.0,0.0,0.0,0.0,0.0,0.0,0.0,0.0,0.0,0.0,0.0,0.0,0.0,0.0,0.0,0.0,0.0,0.0,0.0,0.0,0.0,0.0,0.0,0.0,0.0,0.0,0.0,0.0,0.0,0.0,0.0,0.0,0.0,0.0,0.0,0.0,0.0,0.0,0.0,0.0,0.0,0.0,0.0,0.0,0.0,0.0,0.0,0.0,0.0,0.0,0.0,0.0,0.0,0.0,0.0,0.0,0.0,0.0,0.0,0.0,0.0,0.0,0.0,0.0,0.0,0.0,0.0,0.0,0.0,0.0,0.0,0.0,0.0,0.0,0.0,0.0,0.0,0.0,0.0,0.0,0.0,0.0,0.0,0.0,0.0,0.0,0.0,0.0,0.0,0.0,0.0,0.0,0.0,0.0,0.0,0.0,0.0,0.0,0.0,0.0,0.0,0.0,0.0,0.0,0.0,0.0,0.0,0.0,0.0,0.0,0.0,0.0,0.0,0.0,0.0,0.0,0.0,0.0,0.0,0.0,0.0,0.0,0.0,0.0,0.0,0.0,0.0,0.0,0.0,0.0,0.0,0.0,0.0,0.0,0.0,0.0,0.0,0.0,0.0,0.0,0.0,0.0,0.0,0.0,0.0,0.0,0.0,0.0,0.0,0.0,0.0,0.0,0.0,0.0,0.0,0.0,0.0,0.0,0.0,0.0,0.0,0.0,0.0,0.0,0.0,0.0,0.0,0.0,0.0,0.0,0.0,0.0,0.0,0.0,0.0,0.0,0.0,0.0,0.0,0.0,0.0,0.0,0.0,0.0,0.0,0.0,0.0,0.0,0.0,0.0,0.0,0.0,0.0,0.0,0.0,0.0,0.0,0.0,0.0,0.0,0.0,0.0,0.0,0.0,0.0,0.0,0.0,0.0,0.0,0.0,0.0,0.0,0.0,0.0,0.0,0.0,0.0,0.0,0.0,0.0,0.0,0.0,0.0,0.0,0.0,0.0,0.0,0.0,0.0,0.0,0.0,0.0,0.0,0.0,0.0,0.0,0.0,0.0,0.0,0.0,0.0,0.0,0.0,0.0,0.0,0.0,0.0,0.0,0.0,0.0,0.0,0.0,0.0,0.0,0.0,0.0,0.0,0.0,0.0,0.0,0.0,0.0,0.0,0.0,0.0,0.0,0.0,0.0,0.0,0.0,0.0,0.0,0.0,0.0,0.0,0.0,0.0,0.0,0.0,0.0,0.0,0.0,0.0,0.0,0.0,0.0,0.0,0.0,0.0,0.0,0.0,0.0,0.0,0.0,0.0,0.0,0.0,0.0,0.0,0.0,0.0,0.0,0.0,0.0,0.0,0.0,0.0,0.0,0.0,0.0,0.0,0.0,0.0,0.0,0.0,0.0,0.0,0.0,0.0,0.0,0.0,0.0,0.0,0.0,0.0,0.0,0.0,0.0,0.0,0.0,0.0,0.0,0.0,0.0,0.0,0.0,0.0,0.0,0.0,0.0,0.0,0.0,0.0,0.0,0.0,0.0,0.0,0.0,0.0,0.0,0.0,0.0,0.0,0.0,0.0,0.0,0.0,0.0,0.0,0.0,0.0,0.0,0.0,0.0,0.0,0.0,0.0,0.0,0.0,0.0,0.0,0.0,0.0,0.0,0.0,0.0,0.0,0.0,0.0,0.0,0.0,0.0,0.0,0.0,0.0,0.0,0.0,0.0,0.0,0.0,0.0,0.0,0.0,0.0,0.0,0.0,0.0,0.0,0.0,0.0,0.0,0.0,0.0,0.0,0.0,0.0,0.0,0.0,0.0,0.0,0.0,0.0,0.0,0.0,0.0,0.0,0.0,0.0,0.0,0.0,0.0,0.0,0.0,0.0,0.0,0.0,0.0,0.0,0.0,0.0,0.0,0.0,0.0,0.0,0.0,0.0,0.0,0.0,0.0,0.0,0.0,0.0,0.0,0.0,0.0,0.0,0.0,0.0,0.0,0.0,0.0,0.0,0.0,0.0,0.0,0.0,0.0,0.0,0.0,0.0,0.0,0.0,0.0,0.0,0.0,0.0,0.0,0.0,0.0,0.0,0.0,0.0,0.0,0.0,0.0,0.0,0.0,0.0,0.0,0.0,0.0,0.0,0.0,0.0,0.0,0.0,0.0,0.0,0.0,0.0,0.0,0.0,0.0,0.0,0.0,0.0,0.0,0.0,0.0,0.0,0.0,0.0,0.0,0.0,0.0,0.0,0.0,0.0,0.0,0.0,0.0,0.0,0.0,0.0,0.0,0.0,0.0,0.0,0.0,0.0,0.0,0.0,0.0,0.0,0.0,0.0,0.0,0.0,0.0,0.0,0.0,0.0,0.0,0.0,0.0,0.0,0.0,0.0,0.0,0.0,0.0,0.0,0.0,0.0,0.0,0.0,0.0,0.0,0.0,0.0,0.0,0.0,0.0,0.0,0.0,0.0,0.0,0.0,0.0,0.0,0.0,0.0,0.0,0.0,0.0,0.0,0.0,0.0,0.0,0.0,0.0,0.0,0.0,0.0,0.0,0.0,0.0,0.0,0.0,0.0,0.0,0.0,0.0,0.0,0.0,0.0,0.0,0.0,0.0,0.0,0.0,0.0,0.0,0.0,0.0,0.0,0.0,0.0,0.0,0.0,0.0,0.0,0.0,0.0,0.0,0.0,0.0,0.0,0.0,0.0,0.0,0.0,0.0,0.0,0.0,0.0,0.0,0.0,0.0,0.0,0.0,0.0,0.0,0.0,0.0,0.0,0.0,0.0,0.0,0.0,0.0,0.0,0.0,0.0,0.0,0.0,0.0,0.0,0.0,0.0,0.0,0.0,0.0,0.0,0.0,0.0,0.0,0.0,0.0,0.0,0.0,0.0,0.0,0.0,0.0,0.0,0.0,0.0,0.0,0.0,0.0,0.0,0.0,0.0,0.0,0.0,0.0,0.0,0.0,0.0,0.0,0.0,0.0,0.0,0.0,0.0,0.0,0.0,0.0,0.0,0.0,0.0,0.0,0.0,0.0,0.0,0.0,0.0,0.0,0.0,0.0,0.0,0.0,0.0,0.0,0.0,0.0,0.0,0.0,0.0,0.0,0.0,0.0,0.0,0.0,0.0,0.0,0.0,0.0,0.0,0.0,0.0,0.0,0.0,0.0,0.0,0.0,0.0,0.0,0.0,0.0,0.0,0.0,0.0,0.0,0.0,0.0,0.0,0.0,0.0,0.0,0.0,0.0,0.0,0.0,0.0,0.0,0.0,0.0,0.0,0.0,0.0,0.0,0.0,0.0,0.0,0.0,0.0,0.0,0.0,0.0,0.0,0.0,0.0,0.0,0.0,0.0,0.0,0.0,0.0,0.0,0.0,0.0,0.0,0.0,0.0,0.0,0.0,0.0,0.0,0.0,0.0,0.0,0.0,0.0,0.0,0.0,0.0,0.0,0.0,0.0,0.0,0.0,0.0,0.0,0.0,0.0,0.0,0.0,0.0,0.0,0.0,0.0,0.0,0.0,0.0,0.0,0.0,0.0,0.0,0.0,0.0,0.0,0.0,0.0,0.0,0.0,0.0,0.0,0.0,0.0,0.0,0.0,0.0,0.0,0.0,0.0,0.0,0.0,0.0,0.0,0.0,0.0,0.0,0.0,0.0,0.0,0.0,0.0,0.0,0.0,0.0,0.0,0.0,0.0,0.0,0.0,0.0,0.0,0.0,0.0,0.0,0.0,0.0,0.0,0.0,0.0,0.0,0.0,0.0,0.0,0.0,0.0,0.0,0.0,0.0,0.0,0.0,0.0,0.0,0.0,0.0,0.0,0.0,0.0,0.0,0.0,0.0,0.0,0.0,0.0,0.0,0.0,0.0,0.0,0.0,0.0,0.0,0.0,0.0,0.0,0.0,0.0,0.0,0.0,0.0,0.0,0.0,0.0,0.0,0.0,0.0,0.0,0.0,0.0,0.0,0.0,0.0,0.0,0.0,0.0,0.0,0.0,0.0,0.0,0.0,0.0,0.0,0.0,0.0,0.0,0.0,0.0,0.0,0.0,0.0,0.0,0.0,0.0,0.0,0.0,0.0,0.0,0.0,0.0,0.0,0.0,0.0,0.0,0.0,0.0,0.0,0.0,0.0,0.0,0.0,0.0,0.0,0.0,0.0,0.0,0.0,0.0,0.0,0.0,0.0,0.0,0.0,0.0,0.0,0.0,0.0,0.0,0.0,0.0,0.0,0.0,0.0,0.0,0.0,0.0,0.0,0.0,0.0,0.0,0.0,0.0,0.0,0.0,0.0,0.0,0.0,0.0,0.0,0.0,0.0,0.0,0.0,0.0,0.0,0.0,0.0,0.0,0.0,0.0,0.0,0.0,0.0,0.0,0.0,0.0,0.0,0.0,0.0,0.0,0.0,0.0,0.0,0.0,0.0,0.0,0.0,0.0,0.0,0.0,0.0,0.0,0.0,0.0,0.0,0.0,0.0,0.0,0.0,0.0,0.0,0.0,0.0,0.0,0.0,0.0,0.0,0.0,0.0,0.0,0.0,0.0,0.0,0.0,0.0,0.0,0.0,0.0,0.0,0.0,0.0,0.0,0.0,0.0,0.0,0.0,0.0,0.0,0.0,0.0,0.0,0.0,0.0,0.0,0.0,0.0,0.0,0.0,0.0,0.0,0.0,0.0,0.0,0.0,0.0,0.0,0.0,0.0,0.0,0.0,0.0,0.0,0.0,0.0,0.0,0.0,0.0,0.0,-2.4575,0.0,0.0,0.0,0.0,0.0,0.0,0.0,0.0,0.0,0.0,0.0,0.0,0.0,0.0,0.0,0.0,0.0,0.0,0.0,0.0,0.0,0.0,0.0,0.0,0.0,0.0,0.0,0.0,0.0,0.0,0.0,0.0,0.0,0.0,0.0,0.0,0.0,0.0,0.0,-3.0215,-3.0246,-3.0691,-3.3216,-3.4372,-3.4385,0.0,0.0,0.0,0.0,0.0,0.0,0.0,0.0,0.0,0.0,0.0,0.0,0.0,0.0,0.0,0.0,0.0,0.0,0.0,0.0,0.0,0.0,0.0,0.0,0.0,0.0,0.0,0.0,0.0,0.0,0.0,0.0,0.0,0.0,0.0,0.0,0.0,0.0,0.0,0.0,0.0,0.0,0.0,0.0,0.0,0.0,0.0,0.0,0.0,0.0,0.0,0.0,0.0,0.0,0.0,0.0,0.0,0.0,0.0,0.0,0.0,0.0,0.0,0.0,0.0,0.0,0.0,0.0,0.0,0.0,0.0,-2.5435,0.0,0.0,0.0,0.0,0.0,0.0,0.0,0.0,0.0,0.0,0.0,0.0,0.0,0.0,0.0,0.0,0.0,0.0,0.0,0.0,0.0,0.0,0.0,0.0,0.0,0.0,0.0,0.0,0.0,0.0,0.0,0.0,0.0,0.0,0.0,-3.0611,-3.0598,-3.0602,-3.0231,-3.0989,-3.2809,-3.4956,-3.5075,-3.3552,-3.4672,0.0,0.0,0.0,0.0,0.0,0.0,0.0,0.0,0.0,0.0,0.0,0.0,0.0,0.0,0.0,0.0,0.0,0.0,0.0,0.0,0.0,0.0,0.0,0.0,0.0,0.0,0.0,0.0,0.0,0.0,0.0,0.0,0.0,0.0,0.0,0.0,0.0,0.0,0.0,0.0,0.0,0.0,0.0,0.0,0.0,0.0,0.0,0.0,0.0,0.0,0.0,0.0,0.0,0.0,0.0,0.0,0.0,0.0,0.0,0.0,0.0,0.0,0.0,0.0,0.0,-3.3767,-3.2455,-3.1256,-3.0223,-2.9564,-2.7709,-2.5095,0.0,0.0,0.0,0.0,0.0,0.0,0.0,0.0,0.0,0.0,0.0,0.0,0.0,0.0,0.0,0.0,0.0,0.0,0.0,0.0,0.0,0.0,0.0,0.0,0.0,0.0,0.0,0.0,0.0,0.0,0.0,0.0,0.0,-3.0668,-3.0638,-3.0603,-3.0603,-3.1943,-3.3562,-3.5428,-3.6444,-3.6424,-3.5466,-3.4051,-3.4168,-3.5213,0.0,0.0,0.0,0.0,0.0,0.0,0.0,0.0,0.0,0.0,0.0,0.0,0.0,0.0,0.0,0.0,0.0,0.0,0.0,0.0,0.0,0.0,0.0,0.0,0.0,0.0,0.0,0.0,0.0,0.0,0.0,0.0,0.0,0.0,0.0,0.0,0.0,0.0,0.0,0.0,0.0,-2.7727,-2.689,0.0,0.0,0.0,0.0,0.0,0.0,0.0,0.0,0.0,0.0,0.0,0.0,0.0,0.0,-3.4856,-3.5859,-3.6142,-3.5734,-3.6114,-3.5709,-3.4623,-3.3681,-3.314,-3.2946,-3.2287,0.0,-2.7066,-2.5377,0.0,0.0,0.0,0.0,0.0,0.0,0.0,0.0,0.0,0.0,0.0,0.0,0.0,0.0,0.0,0.0,0.0,0.0,0.0,0.0,0.0,0.0,0.0,0.0,0.0,0.0,0.0,0.0,0.0,0.0,0.0,-3.0312,-3.0633,-3.0659,-3.1125,-3.2062,-3.4661,-3.6323,-3.7164,-3.8075,-3.8065,-3.7147,-3.4932,-3.3784,-3.3417,-3.1894,0.0,0.0,0.0,0.0,0.0,0.0,0.0,0.0,0.0,0.0,0.0,0.0,0.0,0.0,0.0,0.0,0.0,0.0,0.0,0.0,0.0,0.0,0.0,0.0,0.0,0.0,0.0,0.0,0.0,0.0,0.0,0.0,0.0,0.0,0.0,0.0,0.0,0.0,0.0,-2.9166,-2.9459,-2.811,-2.9776,-3.0711,0.0,0.0,0.0,0.0,0.0,0.0,0.0,0.0,0.0,-3.2882,-3.4049,-3.5165,-3.6265,-3.7449,-3.8333,-3.8874,-3.9106,-3.8685,-3.7634,-3.6399,-3.5624,-3.5145,-3.4487,-3.3155,-3.1243,-2.804,-2.6134,-2.4984,0.0,0.0,0.0,0.0,0.0,0.0,0.0,0.0,0.0,0.0,0.0,0.0,0.0,0.0,0.0,0.0,0.0,0.0,0.0,0.0,0.0,-3.1885,0.0,0.0,0.0,0.0,0.0,0.0,0.0,-3.0597,-3.099,-3.1651,-3.291,-3.48,-3.7649,-3.9277,-3.9749,-4.0505,-4.0312,-3.9225,-3.7127,-3.5107,-3.3167,-3.1837,-3.0903,-3.0255,0.0,0.0,0.0,0.0,0.0,0.0,0.0,0.0,0.0,0.0,0.0,0.0,0.0,0.0,0.0,0.0,0.0,0.0,0.0,0.0,0.0,0.0,0.0,0.0,0.0,0.0,0.0,0.0,0.0,0.0,0.0,0.0,0.0,0.0,0.0,0.0,0.0,-3.0352,-3.0894,-2.92,-3.15,-3.2729,0.0,0.0,0.0,0.0,0.0,0.0,-3.2276,-3.3744,-3.4726,-3.5098,-3.6343,-3.7415,-3.82,-3.9317,-4.0493,-4.1753,-4.156,-4.1099,-4.0398,-3.8905,-3.7684,-3.6686,-3.6043,-3.537,-3.4468,-3.0697,-2.8334,-2.6874,-2.4723,-2.3766,0.0,-2.3534,-2.3534,-2.3584,0.0,0.0,0.0,0.0,0.0,0.0,0.0,0.0,0.0,0.0,0.0,0.0,0.0,0.0,-3.1561,-3.2387,-3.2313,-3.2317,0.0,0.0,0.0,-3.0656,-3.0036,-3.0429,-3.2089,-3.4317,-3.6634,-3.9088,-4.0783,-4.249,-4.4176,-4.4228,-4.3481,-4.2043,-4.0977,-3.9162,-3.6612,-3.1622,-3.0908,-3.2879,-3.0316,0.0,0.0,0.0,0.0,0.0,0.0,0.0,0.0,0.0,0.0,0.0,0.0,0.0,0.0,0.0,0.0,0.0,0.0,0.0,0.0,0.0,0.0,0.0,0.0,0.0,0.0,0.0,0.0,0.0,0.0,0.0,0.0,0.0,0.0,0.0,0.0,0.0,0.0,-2.9223,-3.2491,0.0,0.0,0.0,0.0,-3.3456,-3.4283,-3.4991,-3.5351,-3.6834,-3.8311,-3.9723,-4.051,-4.1271,-4.2016,-4.2083,-4.2523,-4.3274,-4.2501,-4.2064,-4.1837,-4.0299,-3.8769,-3.733,-3.6701,-3.6058,-3.523,-3.2553,-3.0471,-2.8761,-2.6795,-2.5512,-2.47,-2.47,-2.47,-2.4637,0.0,0.0,0.0,0.0,0.0,0.0,0.0,0.0,0.0,0.0,0.0,0.0,0.0,-3.2301,-3.3399,-3.4814,-3.4858,-3.4372,-3.3374,0.0,-3.1631,-3.1483,-3.1338,-3.2283,-3.4468,-3.6355,-3.8525,-4.101,-4.2618,-4.4031,-4.519,-4.4722,-4.4213,-4.3632,-4.1663,-4.0328,-3.921,-3.4679,-3.2363,-3.1616,-3.0063,-2.9788,0.0,0.0,0.0,0.0,0.0,0.0,0.0,0.0,0.0,0.0,0.0,0.0,0.0,0.0,0.0,0.0,0.0,0.0,0.0,0.0,0.0,0.0,0.0,0.0,0.0,0.0,0.0,0.0,0.0,0.0,0.0,0.0,0.0,0.0,0.0,0.0,0.0,-3.4426,-3.7096,0.0,0.0,-3.7192,-3.7038,-3.7367,-3.7525,-3.8071,-3.9157,-4.0189,-4.1187,-4.2202,-4.2016,-4.2252,-4.3014,-4.3014,-4.3403,-4.4164,-4.3878,-4.3431,-4.2767,-4.0782,-3.9281,-3.8157,-3.6547,-3.5729,-3.5412,-3.4488,-3.2836,-3.0612,-2.8323,-2.7218,-2.6929,-2.6929,-2.6929,-2.6854,0.0,0.0,0.0,0.0,0.0,0.0,0.0,0.0,0.0,0.0,0.0,-2.9116,-3.2161,-3.3219,-3.4362,-3.6027,-3.5913,-3.5144,-3.3656,0.0,-3.1961,-3.1442,-3.2724,-3.4461,-3.6629,-3.8867,-4.093,-4.2776,-4.4129,-4.5084,-4.5594,-4.509,-4.4735,-4.4402,-4.2457,-4.1286,-4.0606,-3.7516,-3.4645,-3.2046,-3.082,-3.0917,-3.1543,0.0,0.0,0.0,0.0,0.0,0.0,0.0,0.0,0.0,0.0,0.0,0.0,0.0,0.0,0.0,0.0,0.0,0.0,0.0,0.0,0.0,0.0,0.0,0.0,0.0,0.0,0.0,0.0,0.0,0.0,0.0,0.0,0.0,0.0,0.0,-3.7276,-3.8202,-4.0689,-4.2196,-4.1937,-4.116,-4.0869,-4.1368,-4.1544,-4.1912,-4.2675,-4.342,-4.3927,-4.4181,-4.3707,-4.3555,-4.3809,-4.3809,-4.4062,-4.4615,-4.4615,-4.4138,-4.3227,-4.1243,-3.9739,-3.8598,-3.6647,-3.5714,-3.5439,-3.4773,-3.3545,-3.1902,-3.0262,-2.9215,-2.8674,-2.8674,-2.8674,-2.8574,0.0,0.0,0.0,0.0,0.0,0.0,0.0,0.0,0.0,0.0,-2.6333,-2.7739,-3.1334,-3.2913,-3.43,-3.578,-3.5128,-3.424,-3.3332,-3.1336,0.0,-3.0658,-3.4084,-3.6786,-3.853,-4.1868,-4.3902,-4.4544,-4.5396,-4.5725,-4.5594,-4.5594,-4.5213,-4.4485,-4.3539,-4.2279,-4.0803,-3.9841,-3.7612,-3.4597,-3.2801,-3.2638,-3.3242,0.0,0.0,0.0,0.0,0.0,0.0,0.0,0.0,0.0,0.0,0.0,0.0,0.0,0.0,0.0,0.0,0.0,0.0,0.0,0.0,0.0,0.0,0.0,0.0,0.0,0.0,0.0,0.0,0.0,0.0,0.0,0.0,0.0,-3.4595,-3.816,-4.0576,-4.0178,-4.291,-4.4525,-4.3808,-4.465,-4.5246,-4.5298,-4.6215,-4.65,-4.5799,-4.6447,-4.6498,-4.5788,-4.572,-4.5348,-4.4649,-4.4615,-4.4615,-4.4615,-4.4615,-4.415,-4.324,-4.1682,-4.0151,-3.8615,-3.7119,-3.6088,-3.5359,-3.3463,-3.2629,-3.2593,-3.2536,-3.1415,-2.9792,-2.9792,-2.9779,-2.9603,0.0,0.0,0.0,0.0,0.0,0.0,0.0,0.0,0.0,0.0,-2.7108,-2.8819,-3.2205,-3.3238,-3.4371,-3.6046,-3.4299,-3.299,-3.2745,0.0,-3.091,-3.4128,-3.6475,-3.9065,-4.1956,-4.3053,-4.4214,-4.5435,-4.5686,-4.5725,-4.5594,-4.5594,-4.5486,-4.5227,-4.3764,-4.2853,-4.2365,-4.0836,-3.9386,-3.7826,-3.5029,-3.4044,-3.4022,0.0,0.0,0.0,0.0,0.0,0.0,0.0,0.0,0.0,0.0,0.0,0.0,0.0,0.0,0.0,0.0,0.0,0.0,0.0,0.0,0.0,0.0,0.0,0.0,0.0,0.0,0.0,0.0,0.0,0.0,0.0,0.0,-3.8539,-3.8181,-3.9989,-4.23,-4.4817,-4.6434,-4.77,-4.8691,-4.8613,-4.8299,-4.7842,-4.812,-4.7995,-4.7323,-4.7496,-4.7483,-4.728,-4.6261,-4.5602,-4.5399,-4.4886,-4.4615,-4.4615,-4.4615,-4.4153,-4.3311,-4.1222,-3.9743,-3.8724,-3.6665,-3.5669,-3.5472,-3.492,-3.3871,-3.2464,-3.1095,-3.0254,-2.9792,-2.9792,-2.9528,-2.9063,0.0,0.0,0.0,0.0,0.0,0.0,0.0,0.0,0.0,0.0,-2.7225,-2.8983,-3.1612,-3.2467,-3.3368,-3.4611,-3.315,-3.1813,-3.0963,0.0,-3.1869,-3.5502,-3.8098,-4.0702,-4.3422,-4.4298,-4.5109,-4.5842,-4.5842,-4.5764,-4.5594,-4.5594,-4.5594,-4.5537,-4.4201,-4.3605,-4.3508,-4.2162,-4.1339,-4.0771,-3.8554,-3.7274,-3.642,-3.3879,-3.3641,-3.4512,-3.3301,-3.3841,-3.4929,-3.358,0.0,0.0,0.0,0.0,0.0,0.0,0.0,0.0,0.0,0.0,0.0,0.0,0.0,0.0,0.0,0.0,0.0,0.0,0.0,0.0,0.0,0.0,0.0,0.0,-3.9375,-4.1647,-4.2511,-4.3637,-4.5168,-4.7334,-4.8655,-4.9866,-5.1169,-5.0955,-5.0462,-4.9824,-4.9802,-4.9403,-4.8419,-4.8376,-4.824,-4.7906,-4.709,-4.6329,-4.572,-4.5263,-4.4919,-4.4615,-4.4615,-4.4181,-4.3331,-4.1047,-3.9606,0.0,-3.6486,-3.5504,-3.5472,-3.5052,-3.4225,0.0,0.0,0.0,0.0,0.0,-2.9578,-2.9214,0.0,0.0,0.0,0.0,0.0,0.0,0.0,0.0,0.0,0.0,0.0,-2.8461,-3.005,-3.0926,-3.1591,-3.2084,-3.1679,-3.0682,0.0,-3.0733,-3.3093,-3.5889,-3.9233,-4.1916,-4.3829,-4.5463,-4.6173,-4.5899,-4.5899,-4.5799,-4.5594,-4.5594,-4.5594,-4.5556,-4.4682,-4.4297,-4.4239,-4.3431,-4.3104,-4.3044,-4.2328,-4.1106,-3.9446,-3.6946,-3.6933,-3.8034,-3.6458,-3.6116,-3.6288,-3.543,0.0,0.0,0.0,0.0,0.0,0.0,0.0,0.0,0.0,0.0,0.0,0.0,0.0,0.0,0.0,0.0,0.0,0.0,0.0,0.0,0.0,0.0,0.0,0.0,-4.2078,-4.406,-4.6868,-4.8012,-4.8554,-4.8585,-4.9976,-5.1242,-5.205,-5.2142,-5.1853,-5.1136,-5.1086,-5.049,-4.9094,0.0,0.0,0.0,0.0,-4.7158,-4.5838,-4.5669,-4.5246,-4.4615,-4.4615,-4.4181,-4.3331,-4.1047,-3.9606,-3.8768,-3.6486,-3.5504,-3.5424,-3.4543,-3.4027,-3.3739,-3.282,-3.1378,-2.9792,-2.9792,-2.9792,0.0,0.0,0.0,0.0,0.0,0.0,0.0,0.0,0.0,0.0,-2.5517,-2.6385,-2.7391,-2.838,-2.9138,-2.9648,-2.9747,-2.9662,-2.9744,-3.0042,-3.1693,-3.4449,-3.8404,-4.0699,-4.2992,-4.5402,-4.6018,-4.6173,-4.5899,-4.5899,-4.5799,-4.5594,-4.5594,-4.5594,-4.5556,-4.4682,-4.4297,-4.4239,-4.3431,-4.3104,-4.3085,-4.2934,-4.1909,-4.0281,-3.849,-3.7588,-3.7154,-3.6226,-3.7228,-3.8864,-3.8104,-3.8789,-3.9648,-3.791,-3.6016,0.0,0.0,0.0,0.0,0.0,0.0,0.0,0.0,0.0,0.0,0.0,0.0,0.0,0.0,0.0,0.0,0.0,0.0,0.0,-4.2374,-4.4804,-4.7105,-4.8716,-4.9942,-5.0598,-5.0348,-5.1169,-5.2087,-5.2894,-5.2968,-5.2453,-5.1172,-5.1086,-5.049,-4.9094,-4.9001,0.0,-4.8798,-4.7631,-4.687,-4.6583,-4.5399,-4.475,-4.4615,0.0,0.0,-4.3331,-4.1047,-3.9606,-3.8768,-3.6486,-3.5504,-3.5472,-3.5279,-3.4293,-3.2784,-3.1852,-3.0809,-2.9792,-2.9792,-2.9792,-2.9704,0.0,0.0,0.0,0.0,0.0,0.0,0.0,0.0,0.0,0.0,-2.6684,-2.7595,-2.8002,-2.8676,-2.8934,-2.853,-2.7698,-2.8294,-3.0885,-3.2218,-3.4814,-3.9111,-4.1514,-4.3545,-4.5261,-4.5957,-4.6173,-4.5899,-4.5899,-4.5799,-4.5594,-4.5594,-4.5594,-4.5575,-4.5152,-4.496,-4.4913,-4.4509,-4.4355,-4.4355,-4.4355,-4.3604,-4.2319,-4.0668,-3.9818,-3.9389,-3.8598,-3.9176,-4.0237,-3.9418,-4.0056,-4.082,-3.8633,-3.7344,-3.6309,0.0,0.0,0.0,0.0,0.0,0.0,0.0,0.0,0.0,0.0,0.0,0.0,0.0,0.0,-3.7734,0.0,0.0,-4.3688,-4.5629,-4.736,-4.8909,-5.0177,-5.0746,-5.1134,-5.1375,-5.2105,-5.2766,-5.317,-5.3185,-5.2635,-5.1207,-5.1086,-5.049,-4.9094,-4.9001,-4.8832,-4.8477,-4.7733,-4.7005,-4.6261,-4.5517,-4.4987,-4.4615,-4.4615,-4.3951,-4.2739,-4.1214,-3.9669,-3.8181,-3.666,-3.5804,-3.5504,-3.5504,-3.4624,-3.3206,-3.2285,-3.1057,-2.9792,-2.9792,-2.9792,-2.9754,0.0,0.0,0.0,0.0,0.0,0.0,0.0,0.0,0.0,0.0,-2.7064,-2.7901,-2.8076,-2.8554,-2.8607,0.0,-2.6467,-2.7308,-3.1429,-3.2449,-3.4814,-3.9111,-4.1936,-4.3814,-4.4681,-4.5743,-4.6173,-4.5899,-4.5899,-4.5799,-4.5594,-4.5594,-4.5594,-4.5594,-4.5594,-4.5594,-4.5594,-4.5594,-4.5594,-4.5594,-4.5594,-4.5075,-4.4143,-4.2624,-4.1916,-4.1583,-4.0575,-4.0103,-3.9887,-3.9392,-3.9754,-4.0098,-3.8164,-3.793,-3.7891,-3.5625,-3.4707,0.0,0.0,0.0,0.0,0.0,0.0,0.0,0.0,0.0,-3.5968,-3.7274,-3.8893,-4.0566,-4.2131,-4.4065,-4.6205,-4.865,-4.9447,-5.0193,-5.1373,-5.1117,-5.1096,-5.1885,-5.2564,-5.3041,-5.3167,-5.3082,-5.2463,-5.1207,-5.0955,-5.0324,-4.9077,-4.9001,-4.8731,-4.8125,-4.7956,-4.7246,-4.5923,-4.5771,-4.5331,-4.4615,-4.4615,-4.3905,-4.2638,-4.1517,-4.0007,-3.8184,-3.7001,-3.6178,-3.5684,-3.5549,-3.4806,-3.3671,-3.289,-3.1439,-2.9792,-2.9792,-2.9792,-2.9792,0.0,0.0,0.0,0.0,0.0,0.0,0.0,0.0,0.0,0.0,0.0,0.0,0.0,0.0,0.0,-2.7915,-2.7005,-2.7948,-3.1468,-3.2449,-3.4814,-3.9111,-4.1936,-4.3814,-4.4681,-4.5743,-4.6173,-4.5899,-4.5899,-4.5799,-4.5594,-4.5594,-4.5594,-4.5594,-4.5594,-4.5594,-4.5594,-4.5594,-4.5594,-4.5594,-4.5594,-4.5075,-4.4201,-4.3297,-4.2005,-4.0472,-3.9017,-3.754,-3.6417,-3.7203,-3.759,-3.7812,-3.8301,-3.7988,-3.7246,-3.6172,-3.4766,-3.3474,-3.3149,-3.3067,-3.3782,-3.6706,-3.6165,-3.6369,0.0,0.0,-4.0021,-4.1655,-4.3595,-4.494,-4.469,-4.7232,-4.9482,-4.9808,-5.0549,-5.1392,-5.2251,-5.1468,-5.1096,-5.1885,-5.2068,-5.2417,-5.3133,-5.2599,-5.1904,-5.1164,-5.05,-4.9792,-4.9032,-4.9001,-4.8968,-4.8883,-4.8227,-4.7513,-4.6667,-4.6024,-4.5331,-4.4615,-4.4615,-4.4508,-4.4277,-4.2018,-4.0862,-4.0466,-3.7691,-3.6447,-3.6327,-3.5744,-3.4409,-3.2749,-3.2629,-3.1439,-2.9792,-2.9792,-2.9792,-2.9792,0.0,0.0,0.0,0.0,0.0,0.0,0.0,0.0,0.0,0.0,0.0,0.0,0.0,0.0,0.0,-2.8607,-2.7371,-2.8255,-3.2141,-3.2718,-3.4814,-3.9111,-4.14,-4.3005,-4.3927,-4.4957,-4.5618,-4.5899,-4.5899,-4.5799,-4.5594,-4.5594,-4.5594,-4.5594,-4.5594,-4.5874,-4.6308,-4.5611,-4.5707,-4.6308,-4.5582,-4.4901,-4.4162,-4.2835,-4.0662,-3.8272,-3.8125,-3.7059,0.0,-3.5633,-3.6031,-3.6426,-3.5781,-3.5664,-3.5625,-3.4746,-3.4664,-3.5142,-3.6448,-3.6352,-3.6449,-3.8854,-3.9795,-4.066,-4.2648,-4.2767,-4.2794,-4.3918,-4.4849,-4.5806,-4.6982,-4.7776,-4.888,0.0,-5.1222,-5.1509,-5.2116,-5.0979,-5.0235,-5.0565,-4.9738,-5.0031,-5.2289,-5.1845,-5.1132,-5.0508,-5.0173,-4.9533,-4.8423,-4.8376,-4.8376,-4.8376,-4.7648,-4.6921,-4.6177,-4.5855,-4.5331,-4.4615,-4.4615,-4.4064,-4.3045,-4.2041,-4.0593,-3.8787,-3.6778,-3.5908,-3.5893,-3.5624,-3.5034,-3.4192,-3.3031,-3.2105,-3.1304,-3.0216,-2.9792,-2.9792,0.0,0.0,0.0,0.0,0.0,0.0,0.0,0.0,0.0,0.0,0.0,0.0,0.0,0.0,-2.9357,-2.9127,-2.7986,-2.8582,-3.1641,-3.2295,-3.416,-3.7745,-4.0076,-4.1823,-4.2989,-4.4218,-4.5189,-4.5867,-4.5867,-4.5776,-4.5594,-4.5594,-4.5594,-4.5594,-4.5594,-4.5951,-4.6481,-4.561,-4.5745,-4.6433,-4.5332,-4.4365,-4.3393,-4.1489,-3.8777,-3.6129,-3.7024,-3.5871,-3.3955,-3.4113,-3.4363,-3.4453,-3.3652,-3.3828,-3.4316,-3.416,-3.4947,-3.6237,-3.7899,-3.837,-3.8873,-4.1016,-4.3071,-4.4484,-4.414,-4.4613,-4.5208,-4.5644,-4.582,-4.6375,-4.8017,-4.7713,-4.8148,-5.1088,-5.1344,-5.136,-5.1928,-5.062,-4.9519,-4.928,-4.7792,-4.7792,-5.0398,-5.0257,-4.9901,-4.9692,-4.951,-4.899,-4.7936,-4.8075,-4.8193,-4.8193,-4.7496,-4.6752,-4.6007,-4.5805,-4.5331,-4.4615,-4.4615,-4.3798,-4.2332,-4.1869,-4.0282,-3.7898,-3.6596,-3.6028,-3.6013,-3.5654,-3.5359,-3.492,-3.3255,-3.2464,-3.2033,-3.0394,-2.9792,-2.9792,0.0,0.0,0.0,0.0,0.0,0.0,0.0,0.0,0.0,0.0,0.0,0.0,0.0,0.0,-3.0019,-2.9165,-2.905,-2.9088,-2.9204,-3.0794,-3.2526,-3.4282,-3.7651,-4.0272,-4.2005,-4.3792,-4.5075,-4.5809,-4.5809,-4.5733,-4.5594,-4.5594,-4.5594,-4.5594,-4.5594,-4.5614,-4.5633,-4.5605,-4.5605,-4.5556,-4.4673,-4.3346,-4.1596,-3.9084,-3.6526,-3.4398,-3.5345,-3.3016,-2.9889,-3.2477,-3.2316,-3.1328,-3.2891,-3.3418,-3.3769,-3.543,-3.5872,-3.5781,-3.5728,-3.745,-4.0054,-4.3355,-4.5208,-4.6763,-4.8801,-4.8415,-4.7495,-4.7114,-4.7344,-4.7513,-4.7127,-4.7387,-4.8336,-5.0387,-5.0784,-5.1098,-5.1885,-5.062,-4.9298,-4.8434,-4.6929,-4.6287,0.0,-4.7527,-4.8024,-4.8792,-4.8282,-4.7936,-4.7889,-4.8595,-4.8968,-4.8968,-4.8257,-4.7513,-4.6769,-4.6058,-4.5331,-4.4615,-4.4615,-4.4138,-4.3199,-4.1511,-4.0224,-3.9254,-3.7928,-3.7345,-3.7255,-3.6013,-3.492,-3.3959,-3.2996,-3.2033,-3.1143,-3.0139,-2.9792,-2.9792,0.0,0.0,0.0,0.0,0.0,0.0,0.0,0.0,0.0,0.0,0.0,0.0,0.0,0.0,0.0,0.0,-2.9429,-2.9588,-3.0756,-3.1371,-3.2449,-3.4129,-3.6389,-3.8453,-4.0248,-4.144,-4.2715,-4.406,-4.406,-4.4295,-4.4739,-4.4739,-4.5056,-4.5594,-4.5594,-4.5913,-4.6404,-4.5601,-4.5726,-4.626,-4.4001,-4.2573,-4.1462,-3.8334,-3.5586,-3.3453,0.0,-3.2347,-3.0225,-3.0641,-3.044,-3.0039,-3.0019,-3.041,-3.1405,-3.4135,-3.5323,-3.644,-3.9683,-4.1998,-4.4306,-4.7711,-4.9298,-5.0131,-5.0577,-5.0208,-4.9331,-4.7811,-4.6107,-4.4955,-4.5058,-4.4556,-4.4953,-4.7492,-4.9084,-5.0106,-5.0381,-5.0398,-4.9481,-4.7003,-4.6232,0.0,0.0,0.0,0.0,-4.7819,-4.7762,-4.7723,-4.7751,-4.8073,-4.8494,-4.8984,-4.7817,-4.7056,-4.6786,-4.6075,-4.5331,-4.4587,-4.341,-4.2494,-4.1716,-3.9975,-3.8555,-3.7449,-3.7,-3.6552,-3.6118,-3.5684,-3.5294,-3.4905,-3.3925,-3.2961,-3.2033,-3.1082,-3.0317,-2.9792,0.0,0.0,0.0,0.0,0.0,0.0,0.0,0.0,0.0,0.0,0.0,0.0,0.0,0.0,0.0,0.0,0.0,-2.991,-3.0717,-3.1064,-3.1718,-3.2795,-3.4757,-3.664,-3.8473,-3.934,-4.0455,-4.1884,-4.1858,-4.2234,-4.2973,-4.3264,-4.4028,-4.5152,-4.5152,-4.5451,-4.5904,-4.4835,-4.448,-4.4395,-4.1894,-4.0349,-3.9212,-3.6096,-3.3929,0.0,-3.2003,-3.1306,-3.0639,-3.0834,-3.0524,-3.0078,-3.0075,-3.1082,-3.264,-3.4656,-3.6545,-3.8902,-4.3273,-4.5913,-4.8172,-5.1289,-5.2664,-5.2918,-5.1589,-5.0912,-4.9684,-4.6579,-4.4373,-4.2875,-4.2548,-4.126,-4.1465,-4.5144,-4.6454,-4.7609,-4.9353,-4.9536,-4.893,-4.7388,-4.6691,-4.6452,0.0,0.0,0.0,-4.7012,-4.7697,-4.7865,-4.7419,-4.7954,-4.8409,-4.8612,-4.7428,-4.6667,-4.6413,-4.5669,-4.506,-4.457,-4.2831,-4.1757,-4.1294,-3.9562,-3.8182,-3.715,-3.6926,-3.6447,-3.5833,-3.5609,-3.5504,-3.5392,-3.4394,-3.3415,-3.25,-3.1536,-3.0595,-2.9792,0.0,0.0,0.0,0.0,0.0,0.0,0.0,0.0,0.0,0.0,0.0,0.0,0.0,0.0,0.0,0.0,0.0,0.0,-2.9223,-2.9948,-3.0404,-3.0404,-3.2756,-3.4898,-3.6665,-3.7495,-3.8377,-3.9308,-3.9248,-3.9624,-4.043,-4.1231,-4.245,-4.397,-4.4008,-4.4008,-4.3932,-4.3162,-4.1873,-4.0227,-3.8546,-3.693,-3.5212,-3.2673,-3.1705,-3.1515,-3.0,-2.995,-3.0886,-3.2729,-3.2363,-3.1425,-3.294,-3.5109,-3.7055,-3.7054,-3.9538,-4.2976,-4.6254,-4.9048,-5.1597,-5.401,-5.5203,-5.4984,-5.2014,-5.067,-4.8637,-4.3779,-4.2232,-4.1249,0.0,0.0,-3.8311,-4.3364,-4.3305,-4.4232,-4.8949,-4.8343,-4.7976,0.0,0.0,0.0,0.0,0.0,0.0,-4.6601,0.0,-4.8275,-4.7029,-4.8254,-4.8697,-4.7973,-4.7208,-4.6464,-4.5771,-4.5004,-4.4615,-4.457,-4.2831,-4.1981,-4.1869,-4.0139,-3.8975,-3.8257,-3.7629,-3.7,-3.6387,-3.5759,-3.5504,-3.5407,-3.4461,-3.3484,-3.2558,-3.1609,-3.0696,-2.9856,0.0,0.0,0.0,0.0,0.0,0.0,0.0,0.0,0.0,0.0,0.0,0.0,0.0,0.0,0.0,0.0,0.0,0.0,-3.0077,-3.0288,-3.0404,-3.0404,-3.1641,-3.2868,-3.3964,-3.483,-3.5733,-3.667,-3.6605,-3.6986,-3.7793,-3.8598,-3.92,-3.9623,-4.0296,-4.02,-3.9585,-3.9392,-3.9046,-3.8488,-3.6815,-3.5885,-3.5212,-3.2673,-3.173,-3.1632,-3.0642,-3.0465,-3.0863,-3.2087,-3.3411,-3.4608,-3.497,-3.6382,-3.8242,-4.0066,-4.304,-4.6437,-4.972,-5.2953,-5.556,-5.6195,-5.6522,-5.5808,-5.2494,-5.039,-4.7891,-4.3487,-4.0287,-3.7769,0.0,0.0,0.0,-4.0854,-4.4358,0.0,-4.9335,-5.0784,0.0,-4.9757,0.0,-4.9682,-4.9242,-4.9609,0.0,0.0,-4.8256,-4.8214,-4.9074,-4.9054,-4.8917,-4.8731,-4.7462,-4.6701,-4.6515,-4.5258,-4.4615,-4.457,-4.2831,-4.1757,-4.1182,-3.9455,-3.8033,-3.6956,-3.6791,-3.6357,-3.5744,-3.5579,-3.5504,-3.5472,-3.5213,-3.4509,-3.3518,-3.2593,-3.1646,-3.072,0.0,0.0,0.0,0.0,0.0,0.0,0.0,0.0,0.0,0.0,0.0,0.0,0.0,0.0,0.0,0.0,0.0,0.0,0.0,-3.0404,-3.0404,-3.0404,-3.1231,-3.1956,-3.25,-3.3001,-3.3549,-3.4159,-3.4069,-3.4451,-3.5278,-3.6021,-3.6781,-3.7488,-3.794,-3.7892,-3.7411,-3.7046,-3.6469,0.0,0.0,-3.3596,-3.3115,-3.1673,-3.1174,-3.117,-3.075,-3.1388,-3.2601,-3.3887,-3.5461,-3.7086,-3.8103,-3.9805,-4.2022,-4.4913,-4.764,-5.0449,-5.38,-5.6376,-5.8088,-5.8088,-5.7272,-5.5338,-5.1183,-4.847,-4.5387,-4.0311,-3.7405,-3.5334,-3.3885,-3.4529,0.0,0.0,0.0,0.0,-4.86,-5.0196,-5.1077,0.0,-5.1261,0.0,-5.1151,-5.1242,-5.1321,0.0,-4.9919,-4.9192,-4.9433,-4.9169,-4.8849,-4.8545,-4.7394,-4.6481,-4.585,-4.5021,-4.4615,-4.457,-4.2831,-4.1789,-4.1358,-3.9333,-3.7838,-3.6881,0.0,-3.6118,-3.5504,-3.5504,-3.5504,-3.5504,-3.5504,-3.4872,-3.3876,-3.2961,-3.1997,-3.1068,0.0,0.0,0.0,0.0,0.0,0.0,0.0,0.0,0.0,0.0,0.0,0.0,0.0,0.0,0.0,0.0,0.0,0.0,0.0,0.0,0.0,-3.0404,-3.1115,-3.1588,-3.1718,-3.1731,-3.1835,-3.2031,-3.2014,-3.2381,-3.3136,-3.3817,-3.4854,-3.6121,-3.6074,-3.5962,-3.5827,-3.5115,-3.3942,-3.2506,-3.1814,-3.1077,-3.0404,0.0,0.0,-3.0516,-3.0575,-3.2189,-3.4562,-3.6495,-3.8024,-3.9524,-4.1841,-4.4268,-4.6941,-5.0231,-5.2299,-5.426,-5.7569,-5.905,-5.9627,-5.9396,-5.7511,-5.4337,-4.9125,-4.5874,-4.2255,-3.6228,-3.4395,-3.3537,-3.2413,-3.2236,-3.3558,-3.7558,0.0,-4.2103,-4.7553,-4.8489,-4.9738,-5.2692,-5.2527,-5.2435,-5.3133,-5.2564,-5.2454,-5.3148,-5.1916,-5.0524,-4.9256,-4.9061,-4.8629,-4.78,-4.7039,-4.5974,-4.4615,-4.4615,-4.4615,-4.457,-4.2831,-4.1949,-4.1805,-3.9455,-3.7988,-3.7255,0.0,0.0,-3.5504,-3.5504,-3.5504,-3.5504,-3.5504,-3.4953,-3.4061,-3.3136,-3.2177,-3.1254,0.0,0.0,0.0,0.0,0.0,0.0,0.0,0.0,0.0,0.0,-3.0835,0.0,0.0,0.0,0.0,0.0,0.0,0.0,0.0,0.0,0.0,0.0,-3.0538,-3.0694,-3.0817,-3.0836,-3.0923,-3.1133,-3.1706,-3.208,-3.2233,-3.297,-3.3088,-3.2657,-3.2604,-3.2173,-3.1481,-3.1346,-3.1115,-3.0827,-3.0673,-3.0538,-3.0404,-3.0404,0.0,0.0,-3.0575,-3.1478,-3.3154,-3.6714,-4.0376,-4.3737,-4.5486,-4.7758,-5.0346,-5.3049,-5.4511,-5.5857,-5.8569,-5.9915,-6.0242,-5.8858,-5.7088,-5.4184,-4.8432,-4.4577,-4.075,-3.5446,-3.3179,-3.184,-3.0919,-3.2028,-3.4204,-3.7655,-4.0259,-4.3387,-4.77,-4.9499,-5.082,0.0,-5.2674,-5.3059,-5.3206,-5.3057,0.0,0.0,0.0,0.0,-5.0735,-4.9641,-4.8376,-4.7022,-4.6278,-4.5483,-4.4615,-4.4615,-4.4615,-4.457,-4.2831,-4.1725,-4.1102,-3.9241,-3.7749,-3.6641,0.0,0.0,-3.5504,-3.5504,-3.5504,-3.5504,-3.5504,-3.5392,-3.5133,-3.4109,-3.3171,-3.2213,0.0,0.0,0.0,0.0,0.0,0.0,0.0,0.0,0.0,0.0,-3.2022,-3.1538,0.0,0.0,0.0,0.0,0.0,0.0,0.0,0.0,0.0,0.0,0.0,0.0,0.0,-3.0603,0.0,0.0,0.0,-3.1439,0.0,0.0,0.0,0.0,0.0,-3.124,-3.0404,-3.0404,-3.0404,-3.0404,-3.0404,-3.0404,0.0,0.0,0.0,0.0,-3.0591,-3.1835,-3.3781,-3.6047,-4.023,-4.4892,-4.7165,-4.9468,-5.1864,-5.4672,-5.5911,-5.6934,-5.9473,-6.0473,-6.0492,-5.9242,-5.6646,-5.2837,-4.6894,-4.2585,-3.8373,-3.3276,-3.1218,-3.0217,-2.9794,-3.1081,-3.2996,-3.5462,-3.7796,-4.1037,-4.5966,-4.7574,-4.9187,-5.1683,-5.2711,-5.3185,0.0,0.0,0.0,0.0,0.0,0.0,-5.1086,-4.9751,-4.8325,-4.6836,-4.6447,-4.572,-4.4615,-4.4615,-4.4615,-4.457,-4.329,-4.228,-4.1454,-3.9838,-3.8319,-3.6941,0.0,0.0,-3.5504,-3.5504,-3.5504,-3.5504,-3.5504,-3.5504,-3.5392,-3.4361,-3.3415,-3.2464,0.0,0.0,0.0,0.0,0.0,0.0,0.0,-3.074,-3.2158,-3.2895,-3.2943,-3.266,-3.2025,-3.1192,0.0,0.0,0.0,0.0,0.0,0.0,0.0,0.0,0.0,0.0,0.0,0.0,0.0,0.0,0.0,0.0,0.0,0.0,0.0,0.0,0.0,0.0,0.0,-3.0404,-3.0404,0.0,0.0,0.0,0.0,0.0,0.0,0.0,0.0,-3.196,-3.3943,-3.5175,-3.8703,-4.3101,-4.6007,-4.9198,-5.2324,-5.4539,-5.5967,-5.7355,-5.9635,-6.0445,-6.0428,-5.9469,-5.6203,-5.1587,-4.5432,-4.0912,-3.6546,-3.1442,-2.9717,-2.9165,-2.9338,-3.0086,-3.1388,-3.3514,-3.512,-3.8052,-4.3712,-4.5307,-4.7278,0.0,-5.2509,0.0,-5.3185,0.0,0.0,0.0,0.0,0.0,0.0,-4.9301,-4.8003,-4.6836,-4.6481,-4.5783,-4.4615,-4.4615,-4.4615,-4.4587,-4.3726,-4.2766,-4.1757,-4.033,-3.8785,-3.718,0.0,0.0,0.0,-3.5564,-3.5594,-3.5699,-3.5564,-3.5504,-3.5392,-3.461,-3.3705,-3.2784,0.0,0.0,0.0,0.0,0.0,0.0,0.0,-3.0368,-3.2158,-3.2895,-3.2943,-3.2872,-3.2795,-3.2064,0.0,0.0,0.0,0.0,0.0,0.0,0.0,0.0,0.0,0.0,0.0,0.0,0.0,0.0,0.0,0.0,0.0,0.0,0.0,0.0,0.0,0.0,0.0,0.0,0.0,0.0,0.0,0.0,0.0,0.0,0.0,0.0,0.0,-3.0752,-3.151,-3.4491,-3.5906,-3.6927,-3.9881,-4.5915,-5.1808,-5.1365,-5.3656,-5.6683,-5.8143,-5.9332,-5.9882,-5.8711,-5.578,-5.1452,-4.4739,-4.0508,-3.6546,-3.1442,-2.9717,-2.9338,-3.0135,-2.9596,-3.022,-3.3843,-3.442,-3.6329,-4.1781,-4.4488,-4.6874,-4.9519,0.0,0.0,-5.3185,0.0,0.0,0.0,0.0,0.0,0.0,-4.7806,-4.6938,-4.6786,-4.5512,-4.475,-4.4615,-4.4615,-4.4615,-4.4587,-4.3726,-4.2505,-4.1069,-4.0111,-3.8573,-3.6567,0.0,0.0,0.0,-3.5744,-3.5863,-3.6342,-3.5744,-3.5504,-3.5504,-3.5392,-3.4725,-3.3739,0.0,0.0,0.0,0.0,0.0,0.0,0.0,-2.9767,-3.1508,-3.2767,-3.3371,-3.3705,-3.3741,-3.2952,-3.1891,0.0,0.0,0.0,0.0,0.0,0.0,0.0,0.0,0.0,0.0,0.0,0.0,0.0,0.0,0.0,0.0,0.0,0.0,0.0,0.0,0.0,0.0,0.0,0.0,0.0,0.0,0.0,0.0,0.0,0.0,0.0,0.0,0.0,-3.2372,-3.3531,-3.4671,-3.5621,-3.5705,-4.0016,-4.5444,-4.7468,-5.0164,-5.3137,-5.5972,-5.764,-5.8293,-5.7048,-5.3799,-4.9394,-4.3624,-3.9296,-3.5346,-3.1231,-2.9717,-2.9204,-2.9544,-2.9267,-2.9607,-3.149,-3.2024,-3.3799,-3.8303,-4.0449,-4.3002,-4.6911,-4.9499,0.0,0.0,0.0,0.0,0.0,0.0,0.0,0.0,-4.775,-4.7259,-4.6802,-4.5788,-4.5043,-4.4615,-4.4615,-4.4615,-4.4615,-4.4253,-4.3201,-4.1581,-4.1246,-3.961,-3.7045,0.0,0.0,0.0,-3.5609,-3.5669,-3.5863,-3.5609,-3.5504,-3.5504,-3.5504,-3.4872,-3.3959,0.0,0.0,0.0,0.0,0.0,0.0,-2.7888,-2.9439,-3.1017,-3.2377,-3.3336,-3.3917,-3.3945,-3.314,-3.2122,-3.0932,0.0,0.0,0.0,0.0,0.0,0.0,0.0,0.0,0.0,0.0,0.0,-3.1046,0.0,0.0,0.0,0.0,0.0,0.0,0.0,0.0,0.0,0.0,0.0,0.0,0.0,0.0,0.0,0.0,0.0,0.0,0.0,0.0,0.0,0.0,0.0,-3.3931,-3.314,-3.5199,-3.8689,-4.268,-4.6404,-4.9895,-5.3003,-5.5131,-5.6236,-5.5204,-5.1952,-4.7682,-4.2585,-3.8346,-3.4538,-3.1096,-2.9717,-2.9184,-2.9429,-2.928,-2.9358,-3.0145,-3.083,-3.2414,-3.5732,-3.7845,-4.0487,0.0,0.0,0.0,0.0,0.0,0.0,0.0,0.0,0.0,0.0,0.0,-4.7022,-4.6481,-4.5754,-4.5111,-4.4615,-4.4615,-4.4615,-4.4615,-4.4615,-4.3827,-4.2379,-4.22,-4.0514,0.0,0.0,0.0,0.0,-3.5594,-3.5624,-3.5774,-3.5579,-3.5504,-3.5504,-3.5504,-3.5052,-3.4394,0.0,0.0,0.0,0.0,0.0,0.0,0.0,-2.9476,-3.0866,-3.16,-3.2589,-3.3184,-3.3121,-3.2396,-3.1889,-3.1788,0.0,0.0,0.0,0.0,0.0,0.0,0.0,0.0,0.0,0.0,-3.0968,-3.1899,-3.1945,-3.2059,0.0,0.0,0.0,0.0,0.0,0.0,0.0,0.0,0.0,0.0,0.0,0.0,0.0,0.0,0.0,0.0,0.0,0.0,0.0,0.0,0.0,0.0,0.0,-3.2391,-3.2622,-3.6853,-4.2518,-4.7731,-4.9095,-5.161,-5.3735,-5.333,-5.0644,-4.6778,-4.1689,-3.7911,-3.4538,-3.1096,-2.9717,-2.9352,-3.0231,-2.9679,-2.9487,-3.071,-3.1563,-3.2761,-3.4738,-3.7826,-4.0487,0.0,0.0,0.0,0.0,0.0,0.0,0.0,0.0,0.0,0.0,0.0,-4.572,-4.572,-4.4993,-4.4615,-4.4615,-4.4615,-4.4615,-4.4615,-4.4615,-4.4138,-4.3243,-4.2591,0.0,0.0,0.0,0.0,0.0,-3.5774,-3.5893,-3.6417,-3.5759,-3.5504,-3.5504,-3.5504,-3.5504,-3.5359,0.0,0.0,0.0,0.0,0.0,0.0,0.0,-2.7575,-2.8256,-2.9137,-3.0512,-3.1225,-3.0697,-3.0864,-3.0993,-3.0979,0.0,0.0,0.0,0.0,0.0,0.0,0.0,0.0,0.0,0.0,-3.0897,-3.1833,-3.1893,-3.227,-3.2951,-3.3006,0.0,0.0,0.0,0.0,0.0,0.0,0.0,0.0,0.0,0.0,0.0,0.0,0.0,0.0,0.0,0.0,0.0,0.0,0.0,0.0,0.0,0.0,0.0,-3.3295,-3.6954,-4.0964,-4.2817,-4.4622,-4.5913,-4.5505,-4.3297,-4.0469,-3.7719,-3.4911,-3.2423,-3.075,-3.0173,-3.0077,-3.0346,-3.0173,-3.026,-3.1039,-3.2155,-3.3293,0.0,0.0,0.0,-4.2047,0.0,0.0,0.0,0.0,0.0,0.0,0.0,0.0,0.0,0.0,0.0,-4.5669,-4.4451,-4.4045,-4.4598,-4.4045,-4.3792,-4.3792,-4.3792,-4.3054,-4.1716,-4.1515,0.0,0.0,0.0,0.0,0.0,-3.5791,-3.5624,-3.5804,-3.5594,-3.5504,-3.5504,-3.5504,-3.5504,-3.5457,0.0,0.0,0.0,0.0,0.0,0.0,0.0,-2.671,-2.7061,-2.7973,-2.9058,-2.9679,-2.9521,-2.9643,-2.9968,-3.055,0.0,0.0,0.0,0.0,0.0,0.0,0.0,0.0,0.0,-3.0231,-3.1023,-3.2285,-3.2363,-3.2866,-3.3791,-3.3863,-3.3241,-3.2079,0.0,0.0,0.0,0.0,0.0,0.0,0.0,0.0,-3.0425,0.0,0.0,0.0,0.0,0.0,0.0,0.0,0.0,0.0,0.0,0.0,0.0,0.0,-3.2891,-3.5384,-3.8289,-4.0119,-4.117,-4.0921,-3.895,-3.6699,-3.5315,-3.2776,-3.0552,-2.9921,-2.9538,-2.9346,-2.9346,-2.9526,-2.9829,-3.0276,-3.1774,-3.3091,0.0,0.0,0.0,0.0,0.0,0.0,0.0,0.0,0.0,0.0,0.0,0.0,0.0,0.0,0.0,-4.4807,-4.3639,-4.3234,-4.3735,-4.3521,-4.324,-4.2997,-4.3257,-4.2723,-4.151,0.0,0.0,0.0,0.0,0.0,0.0,-3.5701,-3.5504,-3.5504,-3.5504,-3.5504,-3.5504,-3.5504,-3.5504,-3.5504,0.0,0.0,0.0,0.0,0.0,0.0,0.0,0.0,0.0,0.0,-2.8086,-2.8475,-2.9158,-2.8628,-2.8819,0.0,0.0,0.0,0.0,0.0,0.0,0.0,0.0,0.0,0.0,-2.9948,-3.1273,-3.3098,-3.3215,-3.3799,-3.4765,-3.4838,-3.3984,-3.2363,-3.2174,0.0,0.0,0.0,0.0,0.0,0.0,0.0,0.0,0.0,0.0,0.0,0.0,0.0,0.0,0.0,0.0,0.0,0.0,0.0,0.0,0.0,0.0,0.0,0.0,-3.7334,-3.8592,-3.8649,-3.6796,-3.475,-3.4013,-3.1339,0.0,-2.8765,-2.8121,-2.7637,-2.7752,-2.8169,-2.8649,-2.911,-3.0966,-3.2558,0.0,-3.6167,0.0,0.0,0.0,0.0,0.0,0.0,0.0,0.0,0.0,0.0,0.0,0.0,0.0,0.0,-4.2523,-4.2185,-4.2286,-4.2929,-4.2912,-4.2219,-4.2929,-4.2861,-4.2134,0.0,0.0,0.0,0.0,0.0,0.0,-3.5587,-3.5569,-3.5504,-3.5504,-3.5504,-3.5504,-3.5504,-3.5504,-3.5504,0.0,0.0,0.0,0.0,0.0,0.0,0.0,0.0,0.0,0.0,0.0,-2.7129,-2.6659,-2.7011,0.0,0.0,0.0,0.0,0.0,0.0,0.0,0.0,0.0,0.0,0.0,-2.9948,-3.1235,-3.2952,-3.3684,-3.4851,-3.6442,-3.6499,-3.5672,-3.4082,-3.3327,-3.2072,0.0,0.0,0.0,0.0,0.0,0.0,0.0,0.0,0.0,0.0,-3.0416,-3.0404,0.0,0.0,0.0,0.0,0.0,0.0,0.0,0.0,-2.9929,-2.9621,-3.0621,0.0,-3.1666,-3.2333,-3.1083,-2.9794,0.0,-2.9204,-2.8126,-2.7918,-2.7733,-2.7981,-2.928,-2.8962,-2.9471,-3.2453,-3.3374,-3.4297,-3.5916,0.0,0.0,0.0,0.0,0.0,0.0,0.0,0.0,0.0,0.0,0.0,0.0,0.0,0.0,0.0,-4.0984,-4.1179,-4.2286,-4.1914,-4.1644,-4.1457,-4.1644,-4.1322,-4.062,0.0,0.0,0.0,0.0,0.0,0.0,-3.66,-3.6006,-3.5504,-3.5504,-3.5504,-3.5504,-3.5504,-3.5504,-3.5504,0.0,0.0,0.0,0.0,0.0,0.0,0.0,0.0,0.0,0.0,0.0,0.0,0.0,0.0,0.0,0.0,0.0,0.0,0.0,0.0,0.0,0.0,0.0,0.0,-2.8569,-2.9371,-3.0814,-3.2891,-3.3459,-3.4857,-3.6982,-3.6694,-3.5882,-3.4629,-3.2878,-3.1547,0.0,0.0,0.0,0.0,-3.0414,0.0,0.0,0.0,0.0,0.0,-3.0404,-3.0404,0.0,-3.0942,-3.0788,-3.0481,0.0,0.0,0.0,0.0,-2.9217,-2.8549,-2.8549,-2.9102,-2.9813,-3.0288,-2.9429,-2.8665,-2.9506,-2.8076,-2.6623,-2.682,-2.6576,-2.6688,-2.7858,-2.8211,-2.9132,-3.1687,-3.3285,0.0,0.0,0.0,0.0,0.0,0.0,0.0,0.0,0.0,0.0,0.0,0.0,0.0,0.0,0.0,0.0,0.0,-4.0485,-4.0485,-4.1297,-4.1221,-4.1035,-4.0696,-4.1035,-4.0798,-4.0096,0.0,0.0,0.0,0.0,0.0,-3.7219,-3.6783,-3.6165,-3.5504,-3.5504,-3.5504,-3.5504,-3.5504,-3.5504,-3.5504,0.0,0.0,0.0,0.0,0.0,0.0,0.0,0.0,0.0,0.0,0.0,0.0,0.0,0.0,0.0,0.0,0.0,0.0,0.0,0.0,0.0,0.0,0.0,-2.7895,-2.7895,-2.8684,-3.03,-3.2718,-3.3211,-3.468,-3.698,-3.6623,-3.5839,-3.459,-3.2061,-3.0837,0.0,0.0,0.0,0.0,-3.0436,0.0,0.0,0.0,0.0,0.0,0.0,0.0,0.0,-3.0404,-3.0404,-3.0385,-3.0231,0.0,0.0,0.0,0.0,0.0,-2.7698,-2.9025,-3.0359,-3.0201,-2.9605,-2.9235,-2.9934,-2.7625,-2.5481,-2.6035,-2.5601,-2.5369,-2.6124,-2.7344,0.0,0.0,0.0,0.0,0.0,0.0,0.0,0.0,0.0,0.0,0.0,0.0,0.0,0.0,0.0,0.0,0.0,0.0,0.0,0.0,-4.0434,-4.0096,-4.0096,-4.0713,-4.0713,-4.0113,-4.073,-4.0696,-4.0096,-4.0096,0.0,0.0,0.0,0.0,-3.6948,-3.6843,-3.6337,-3.5651,-3.5522,-3.5504,-3.5504,-3.5504,-3.5504,-3.5504,0.0,0.0,0.0,0.0,0.0,0.0,0.0,0.0,0.0,0.0,0.0,0.0,0.0,0.0,0.0,0.0,0.0,0.0,0.0,0.0,0.0,0.0,-2.7505,-2.7895,-2.7895,-2.8684,-3.0012,-3.1891,-3.4071,-3.5737,-3.6939,-3.8362,-3.7479,-3.4629,-3.2793,-3.1498,-3.0695,-3.068,-3.0592,-3.0498,-3.05,0.0,0.0,0.0,0.0,0.0,0.0,0.0,0.0,-3.0404,-3.0404,-3.0269,-2.9525,0.0,0.0,0.0,0.0,0.0,-2.6794,-2.8558,-3.0182,-2.9269,-2.8949,-2.8831,-2.873,-2.7754,-2.6847,-2.6784,-2.6664,-2.7037,-2.8558,-2.8847,-2.9735,0.0,0.0,0.0,0.0,0.0,0.0,0.0,0.0,0.0,0.0,0.0,0.0,0.0,0.0,0.0,0.0,0.0,0.0,0.0,0.0,-4.0096,-4.0096,-4.0214,-4.0214,-4.0096,-4.0214,-4.0214,-4.0096,-4.0096,-4.002,0.0,0.0,0.0,-3.8509,-3.7876,-3.716,-3.6368,-3.575,-3.5504,-3.5504,-3.5504,-3.5504,-3.5504,0.0,0.0,0.0,0.0,0.0,0.0,0.0,0.0,0.0,0.0,0.0,0.0,0.0,0.0,0.0,0.0,0.0,0.0,0.0,0.0,0.0,-2.6582,-2.6986,-2.7409,-2.7895,-2.8684,-3.0165,-3.2352,-3.4462,-3.599,-3.6895,-3.6894,-3.5627,-3.3281,-3.2051,-3.1249,-3.0793,-3.0698,-3.0617,-3.0556,0.0,0.0,0.0,0.0,0.0,0.0,0.0,0.0,0.0,0.0,-2.9044,-2.8986,-2.8588,0.0,0.0,0.0,0.0,0.0,-2.5904,-2.7442,-2.8871,-2.8122,-2.9384,-3.0613,-2.9909,-2.9016,-2.8306,-2.8228,-2.8199,-2.8521,-2.9624,0.0,-3.2248,-3.5696,0.0,0.0,0.0,0.0,0.0,0.0,0.0,0.0,0.0,0.0,0.0,0.0,0.0,0.0,0.0,0.0,0.0,0.0,0.0,0.0,-3.8903,-3.8903,-3.9292,-4.0096,-4.0096,-4.0096,-4.0096,-4.0096,-4.0096,0.0,0.0,-3.9636,-3.8854,-3.8121,-3.7338,-3.6523,-3.5782,-3.528,-3.4951,-3.4951,-3.4951,-3.4996,0.0,0.0,0.0,0.0,0.0,0.0,0.0,0.0,0.0,0.0,0.0,0.0,0.0,0.0,0.0,0.0,0.0,0.0,0.0,0.0,-2.5596,-2.6269,-2.6486,-2.7198,-2.8467,-2.9083,-3.0544,-3.2891,-3.4654,-3.5888,-3.658,-3.522,-3.3703,-3.2128,-3.1484,-3.1074,-3.0837,-3.0691,-3.0611,-3.0565,0.0,0.0,0.0,0.0,0.0,0.0,0.0,0.0,0.0,0.0,0.0,0.0,0.0,0.0,0.0,-2.637,-2.5827,-2.5308,-2.5308,-2.6537,-2.768,-2.707,-2.9263,-3.152,-3.1345,-3.0522,-3.0005,-3.0783,-3.0772,-3.0671,-3.076,-3.19,0.0,-3.7801,0.0,0.0,0.0,0.0,0.0,0.0,0.0,0.0,0.0,0.0,0.0,0.0,0.0,0.0,0.0,0.0,0.0,0.0,0.0,0.0,-3.8253,-3.8138,-3.8659,-3.9842,-3.9842,-3.9943,-4.0096,-4.0096,-4.0011,-3.9859,-4.0028,-3.9656,-3.8881,-3.8293,-3.7587,-3.6813,-3.6075,-3.5349,-3.4708,-3.4566,-3.4503,-3.4578,0.0,0.0,0.0,0.0,0.0,0.0,0.0,0.0,0.0,0.0,0.0,0.0,0.0,0.0,0.0,0.0,0.0,0.0,0.0,0.0,-2.5327,-2.5385,-2.6173,-2.7731,-3.0173,-3.0288,-3.1154,-3.2891,-3.4654,-3.5573,-3.5674,-3.4882,-3.3629,-3.2029,-3.2088,-3.1598,-3.0718,-3.0693,-3.0611,-3.0511,-3.0494,0.0,0.0,0.0,0.0,0.0,0.0,0.0,0.0,0.0,0.0,0.0,0.0,0.0,-2.6447,-2.5635,-2.5346,-2.5308,-2.5308,-2.6447,-2.7369,-2.6329,-2.7439,-2.9437,-3.1899,-3.1838,-3.212,-3.5174,-3.5142,-3.4137,-3.2693,-3.2522,-3.371,0.0,0.0,0.0,0.0,0.0,0.0,0.0,0.0,0.0,0.0,0.0,0.0,0.0,0.0,0.0,0.0,0.0,0.0,0.0,0.0,0.0,-3.9288,-3.8803,-3.8717,-3.9073,-3.9073,-3.9453,-4.0096,-4.0096,-3.974,-3.9106,-3.9808,-3.9681,-3.8983,-3.8874,-3.8386,-3.7626,-3.6886,-3.6111,-3.5369,-3.4739,-3.4503,-3.4518,0.0,0.0,0.0,0.0,0.0,0.0,0.0,0.0,0.0,0.0,0.0,0.0,0.0,0.0,0.0,0.0,0.0,0.0,0.0,0.0,-2.5538,-2.6077,-2.6428,-2.7544,-2.9544,-3.0115,-3.0981,-3.216,-3.3314,-3.4185,-3.4763,-3.3487,-3.2564,-3.198,-3.1579,-3.1129,-3.0654,-3.0119,-3.0124,-3.0455,-2.9859,-2.9619,0.0,0.0,0.0,0.0,0.0,0.0,0.0,0.0,-2.6736,-2.6678,-2.6385,-2.6058,-2.5731,-2.5404,-2.5308,-2.5308,-2.5308,-2.6399,-2.743,-2.7025,-2.7595,-2.9014,-3.1937,-3.327,-3.4343,-3.5978,-3.6835,-3.6817,-3.5202,0.0,-3.6046,0.0,0.0,0.0,0.0,0.0,0.0,0.0,0.0,0.0,0.0,0.0,0.0,0.0,0.0,0.0,0.0,0.0,0.0,0.0,0.0,0.0,0.0,-3.7498,-3.7495,-3.8065,-3.8224,-3.8464,-3.8717,-3.8717,-3.8582,-3.8328,-3.8616,-3.8565,-3.828,-3.775,-3.7363,-3.6961,-3.5336,-3.4522,-3.4164,-3.3487,-3.326,-3.332,0.0,0.0,0.0,0.0,0.0,0.0,0.0,0.0,0.0,0.0,0.0,0.0,0.0,0.0,0.0,0.0,0.0,0.0,0.0,-2.6447,-2.625,-2.6582,-2.6851,-2.7659,-2.9069,-2.9448,-3.0288,-3.1698,-3.2256,-3.2844,-3.3462,-3.2372,-3.1906,-3.1954,-3.1441,-3.1167,-3.1003,-2.983,-2.9776,-3.0395,-2.9473,-2.9261,0.0,0.0,0.0,0.0,0.0,0.0,0.0,0.0,-2.5712,-2.5712,-2.5712,-2.5519,-2.5308,-2.5308,-2.5308,-2.5308,-2.5308,-2.5991,-2.6814,-2.7298,-2.7985,-2.9485,-3.2967,-3.456,-3.584,-3.7798,-3.8065,-3.7679,-3.6835,0.0,0.0,0.0,0.0,0.0,0.0,0.0,0.0,0.0,0.0,0.0,0.0,0.0,0.0,0.0,0.0,0.0,0.0,0.0,0.0,0.0,0.0,0.0,0.0,-3.6391,-3.6396,-3.7004,-3.7036,-3.7358,-3.7905,-3.7905,-3.777,-3.7567,-3.7804,-3.777,-3.752,-3.7211,-3.6945,-3.6539,-3.4584,-3.3853,-3.377,-3.3052,-3.266,-3.2587,0.0,0.0,0.0,0.0,0.0,0.0,0.0,0.0,0.0,0.0,0.0,0.0,0.0,0.0,0.0,0.0,0.0,0.0,-2.7853,-2.7895,-2.7505,-2.6659,-2.7448,-2.828,-2.9069,-2.8319,-2.914,-3.166,-3.166,-3.1679,-3.1679,-3.1753,-3.1821,-3.1896,-3.1903,-3.1906,-3.1776,-2.9955,-2.9651,-3.0327,-2.9448,-2.9621,-3.0288,0.0,0.0,0.0,0.0,0.0,0.0,0.0,-2.6582,-2.6582,-2.6582,-2.6,-2.5308,-2.5308,-2.5308,-2.5308,-2.5303,-2.5152,-2.5374,-2.6835,-2.842,-3.0797,-3.5271,-3.5679,-3.6486,-4.1295,-3.9111,-3.656,-3.7364,-3.5495,0.0,0.0,0.0,0.0,0.0,0.0,0.0,0.0,0.0,0.0,0.0,0.0,0.0,0.0,0.0,0.0,0.0,0.0,0.0,0.0,0.0,0.0,0.0,-3.5774,-3.5643,-3.5914,-3.5416,-3.6144,-3.7889,-3.7889,-3.7483,-3.6829,-3.7567,-3.7449,-3.6846,-3.7584,-3.7449,-3.6639,-3.5184,-3.4595,-3.4516,-3.3755,-3.3081,-3.2497,0.0,0.0,0.0,0.0,0.0,0.0,0.0,0.0,0.0,0.0,0.0,0.0,0.0,0.0,0.0,0.0,0.0,0.0,-2.878,-2.8241,-2.778,-2.7525,-2.7761,-2.8011,-2.8261,-2.803,-2.828,-2.9025,-2.9025,-2.9621,-3.0794,-3.0844,-3.1218,-3.1833,-3.1877,-3.152,-3.0843,-2.9687,-2.9651,-3.0327,-2.9448,-2.9261,-2.9467,0.0,0.0,0.0,0.0,0.0,0.0,0.0,0.0,0.0,-2.5692,-2.5519,-2.5308,-2.5308,-2.5308,-2.5269,-2.5135,-2.5805,-2.679,-2.7792,-2.9892,-3.2551,-3.5777,-3.6345,-3.7151,-4.0722,-3.9606,-3.8065,-3.8303,0.0,0.0,0.0,0.0,0.0,0.0,0.0,0.0,0.0,0.0,0.0,0.0,0.0,0.0,0.0,0.0,0.0,0.0,0.0,0.0,0.0,0.0,0.0,0.0,0.0,-3.5828,-3.6449,-3.5085,-3.508,-3.6276,-3.6276,-3.6157,-3.5977,-3.6174,-3.6157,-3.5977,-3.6174,-3.614,-3.5869,-3.497,-3.432,-3.3824,-3.3138,-3.2394,-3.1795,0.0,0.0,0.0,0.0,0.0,0.0,0.0,0.0,0.0,0.0,-2.5703,0.0,0.0,0.0,0.0,0.0,0.0,0.0,0.0,0.0,-2.8762,-2.8396,-2.8376,-2.8068,-2.739,-2.7717,-2.7563,-2.6871,-2.7871,-2.889,-2.991,-3.0962,-3.1574,-3.1805,-3.2143,-3.1814,-3.0933,-2.9679,-2.9645,-3.0327,-2.9448,-2.9319,-2.9621,0.0,0.0,0.0,0.0,0.0,0.0,0.0,0.0,0.0,-2.5308,-2.5308,-2.5308,-2.5308,-2.5234,-2.5157,-2.5034,-2.6084,-2.7451,-2.8492,-3.0995,-3.3867,-3.637,-3.7956,-3.9379,-4.1199,-4.0047,-3.8799,-3.9129,0.0,0.0,0.0,0.0,0.0,0.0,0.0,0.0,0.0,0.0,0.0,0.0,0.0,0.0,0.0,0.0,0.0,0.0,0.0,0.0,0.0,0.0,0.0,0.0,0.0,0.0,-3.5717,-3.4694,-3.4474,-3.4989,-3.4813,-3.4721,-3.4737,-3.5047,-3.5165,-3.5199,-3.5481,-3.56,-3.5577,-3.5161,-3.4411,-3.3492,-3.3106,-3.2499,-3.1857,0.0,0.0,0.0,0.0,0.0,0.0,0.0,0.0,0.0,0.0,-2.5703,-2.5996,0.0,0.0,0.0,0.0,0.0,0.0,0.0,0.0,-3.0124,-2.927,-2.9228,-2.8429,-2.6755,-2.7486,-2.7082,-2.5423,-2.7736,-2.8915,-2.905,-3.1525,-3.2301,-3.1718,-3.2463,-3.2364,-3.1564,-2.9924,-2.9679,-3.0327,-2.9544,-2.9698,-3.0404,-3.0404,0.0,0.0,0.0,0.0,0.0,0.0,0.0,0.0,-2.5308,-2.5308,-2.5308,-2.5308,-2.5168,-2.5022,-2.4992,-2.607,-2.7541,-2.8925,-3.1867,-3.4986,-3.7206,-3.9974,-4.2066,-4.1992,0.0,-3.9019,-3.9662,0.0,0.0,0.0,0.0,0.0,0.0,0.0,0.0,0.0,0.0,0.0,0.0,0.0,0.0,0.0,0.0,0.0,0.0,0.0,0.0,0.0,0.0,0.0,0.0,0.0,0.0,0.0,-3.4148,-3.4087,-3.4042,-3.3666,-3.3448,-3.344,-3.4117,-3.4387,-3.4438,-3.5109,-3.5397,-3.5397,-3.5397,-3.4582,-3.3416,-3.3416,-3.3023,-3.2408,0.0,0.0,0.0,0.0,0.0,0.0,0.0,0.0,0.0,0.0,0.0,0.0,0.0,0.0,0.0,0.0,0.0,0.0,0.0,0.0,-3.0412,-3.0211,-3.0144,-2.9333,-2.7659,-2.7799,-2.7371,-2.6327,-2.6871,-2.7486,-2.8203,-3.0063,-3.0851,-3.075,-3.1576,-3.1486,-3.0673,-3.0287,-3.0231,-3.0385,-3.0192,-3.0231,-3.0404,-3.0404,-2.9871,0.0,0.0,0.0,0.0,0.0,0.0,0.0,-2.5308,-2.5308,-2.5308,-2.5308,-2.5269,-2.5182,-2.4916,-2.6012,-2.7506,-2.8753,-3.2948,-3.722,-3.898,-3.9918,-4.023,-3.9606,-3.9551,-3.9496,0.0,0.0,0.0,0.0,0.0,0.0,0.0,0.0,0.0,0.0,0.0,0.0,0.0,0.0,0.0,0.0,0.0,0.0,0.0,0.0,0.0,0.0,0.0,0.0,-3.1929,-3.1929,-3.2593,0.0,-3.2955,-3.2961,-3.3776,-3.3908,-3.3744,-3.3406,-3.3575,-3.3643,-3.366,-3.3812,-3.3858,-3.3858,-3.3858,-3.3355,-3.2629,-3.2629,-3.2577,-3.2474,0.0,0.0,0.0,0.0,0.0,0.0,0.0,0.0,0.0,0.0,0.0,0.0,0.0,0.0,0.0,0.0,0.0,0.0,0.0,0.0,0.0,-3.0452,-3.0431,-2.9615,-2.7934,-2.7895,-2.7467,-2.6601,-2.7024,-2.764,-2.8511,-3.0217,-3.0808,-3.0442,-3.1308,-3.1212,-3.0404,-3.0404,-3.0404,-3.0404,-3.0404,-3.0404,-3.0404,-3.0404,-2.9871,-2.905,-2.8626,0.0,0.0,0.0,0.0,0.0,0.0,0.0,-2.5308,-2.5308,-2.5224,-2.5124,-2.4943,-2.5963,-2.7653,-3.0109,-3.3256,-3.6156,-3.779,-3.8175,-3.8065,-3.7643,-3.8175,0.0,0.0,0.0,0.0,0.0,0.0,0.0,0.0,0.0,0.0,0.0,0.0,0.0,0.0,0.0,0.0,0.0,0.0,0.0,0.0,0.0,0.0,0.0,0.0,0.0,-3.0834,-3.1213,-3.1819,-3.2632,-3.2009,-3.182,-3.2039,-3.2498,-3.2585,-3.2374,-3.2713,-3.2865,-3.2899,-3.3254,-3.3406,-3.3406,-3.3406,-3.298,-3.2367,-3.2367,-3.2365,-3.2364,0.0,0.0,0.0,0.0,0.0,0.0,0.0,0.0,0.0,0.0,0.0,0.0,0.0,0.0,0.0,0.0,0.0,0.0,0.0,0.0,0.0,-3.0417,-3.0416,-2.9615,-2.7934,-2.7895,-2.7544,-2.6813,-2.7544,-2.8472,-2.9588,-3.0871,-3.1096,-3.0423,-3.1164,-3.1087,-3.0404,-3.0414,-3.0312,-3.0192,-3.0346,-3.0308,-3.0192,-3.0346,-2.9775,-2.8896,-2.8896,-2.7813,-2.639,-2.639,0.0,0.0,0.0,0.0,-2.5308,-2.5308,-2.5173,-2.504,-2.5016,-2.5925,-2.7777,-3.147,-3.2889,-3.3788,-3.5312,-3.5661,-3.5624,-3.5477,0.0,0.0,0.0,0.0,0.0,0.0,0.0,0.0,0.0,0.0,0.0,0.0,0.0,0.0,0.0,0.0,0.0,0.0,0.0,0.0,0.0,0.0,0.0,0.0,0.0,-2.9586,-2.9586,-3.0375,-3.0846,-3.098,-3.1193,-3.0898,-3.0221,-3.0693,-3.0946,-3.1038,-3.1532,-3.1802,-3.1972,-3.2442,-3.2645,-3.2662,-3.278,-3.2459,-3.1938,-3.2056,-3.2192,-3.2212,0.0,0.0,0.0,0.0,0.0,0.0,0.0,0.0,0.0,0.0,-2.5703,0.0,0.0,0.0,0.0,0.0,0.0,0.0,-3.0703,0.0,0.0,-3.0481,-3.0439,-2.9615,-2.7934,-2.7895,-2.7838,-2.7741,-2.7838,-2.9083,-3.1333,-3.0827,-3.0519,-3.041,-3.0578,-3.0563,-3.039,-3.0467,-3.0028,-2.9338,-3.0096,-2.9948,-2.9357,-3.0115,-2.9429,-2.8068,-2.8068,-2.6948,-2.5481,-2.5481,-2.5404,0.0,0.0,0.0,-2.5308,-2.5308,-2.5274,-2.5219,-2.504,-2.5925,-2.7657,-3.0778,-3.1635,-3.1953,-3.2876,0.0,-3.2908,0.0,0.0,0.0,0.0,0.0,0.0,0.0,0.0,0.0,0.0,0.0,0.0,0.0,0.0,0.0,0.0,0.0,0.0,0.0,0.0,0.0,0.0,0.0,-2.7105,-2.6924,-2.7024,0.0,-2.7079,-2.7879,-2.8631,-2.9335,-3.0394,-3.0636,-3.0185,-2.9864,-2.9914,-3.0226,-2.9687,-2.9805,-3.0362,-2.9803,-2.9602,-2.9653,-3.0294,-3.0478,-3.048,-3.1106,-3.1752,-3.2273,0.0,0.0,0.0,0.0,0.0,0.0,0.0,0.0,0.0,0.0,0.0,-2.5898,0.0,0.0,0.0,-2.8945,-2.9726,-3.0351,-3.0754,-3.0678,-3.0568,-3.0507,-2.9973,-2.9121,-2.7934,-2.7409,-2.7409,-2.7895,-2.7409,-2.8486,-3.0962,-3.0577,-3.0904,-3.1795,-3.1827,-3.1314,-3.0371,-2.9951,-2.9516,-2.9132,-2.9562,-2.9475,-2.9204,-3.0077,-2.9371,-2.8041,-2.9004,-2.7923,-2.6111,-2.6635,-2.6145,-2.5308,-2.5308,0.0,0.0,0.0,-2.5308,-2.5243,-2.4956,-2.5623,-2.6765,-2.8327,-2.9053,-2.9586,-3.0399,-3.0583,-3.0473,0.0,0.0,0.0,0.0,0.0,0.0,0.0,0.0,0.0,0.0,0.0,0.0,0.0,0.0,0.0,0.0,0.0,0.0,0.0,0.0,0.0,0.0,-2.6524,-2.6191,-2.6096,-2.5986,0.0,-2.5944,-2.6722,-2.731,-2.7666,-2.7769,-2.7966,-2.8211,-2.7604,-2.8117,-2.9465,-2.9145,-2.9179,-2.9448,-2.9128,-2.8993,-2.9027,-2.9347,-2.9482,-2.9516,-2.9856,-3.0429,-3.1072,0.0,0.0,0.0,0.0,0.0,0.0,0.0,0.0,0.0,0.0,0.0,0.0,0.0,0.0,0.0,0.0,-2.9805,-3.0155,-3.0708,-3.0667,-3.06,-3.0525,-2.9835,-2.8972,-2.7915,-2.7255,-2.714,-2.7563,-2.6928,-2.7904,-3.0404,-3.0635,-3.15,-3.2897,-3.2956,-3.2023,-3.0395,-2.9838,-2.9298,-2.8825,-2.8889,-2.8738,-2.8555,-2.9475,-2.8886,-2.7743,-2.9072,-2.8146,-2.6395,-2.7109,-2.6442,-2.5312,-2.5317,-2.5308,0.0,0.0,0.0,-2.5165,-2.4888,-2.5197,-2.5731,-2.6192,-2.6741,-2.7402,0.0,0.0,0.0,0.0,0.0,0.0,0.0,0.0,0.0,0.0,0.0,0.0,0.0,0.0,0.0,0.0,0.0,0.0,0.0,0.0,0.0,0.0,0.0,0.0,-2.6553,-2.5909,-2.5483,-2.539,-2.5245,-2.5149,-2.5099,-2.5878,-2.641,-2.6583,-2.6044,-2.5999,-2.6378,-2.5838,-2.6516,-2.8147,-2.8333,-2.8519,-2.867,-2.8502,-2.8417,-2.8434,-2.862,-2.8687,-2.8722,-2.8925,-2.9365,-2.982,0.0,0.0,0.0,0.0,0.0,0.0,0.0,0.0,0.0,0.0,0.0,0.0,-2.6894,-2.7734,-2.8594,-2.9512,-3.0351,-3.0859,-3.0898,-3.0769,-3.0652,-3.0603,-3.049,0.0,-2.7934,-2.7857,-2.7448,-2.6678,-2.6621,-2.7904,-3.0423,-3.125,-3.2083,-3.2904,-3.3094,-3.2182,-3.0507,-3.0645,-2.9696,-2.8067,-2.812,-2.7586,-2.6838,-2.7849,-2.7574,-2.6708,-2.6912,-2.6324,-2.546,0.0,0.0,0.0,0.0,0.0,-2.5308,0.0,0.0,0.0,-2.4835,-2.47,-2.4721,-2.5315,-2.5485,-2.5742,0.0,0.0,0.0,0.0,0.0,0.0,0.0,0.0,0.0,0.0,0.0,0.0,0.0,0.0,0.0,0.0,0.0,0.0,0.0,0.0,0.0,0.0,0.0,0.0,-2.4929,-2.4993,-2.4881,-2.4568,-2.4542,-2.4448,-2.4273,-2.5062,-2.5852,-2.6602,-2.6562,-2.6197,-2.5548,-2.5508,-2.5602,-2.5828,-2.6522,-2.7215,-2.7807,-2.7114,-2.681,-2.6877,-2.7587,-2.7858,-2.7959,-2.8722,-2.9027,-2.9061,0.0,0.0,0.0,0.0,0.0,0.0,0.0,0.0,0.0,0.0,0.0,0.0,0.0,-2.8613,-2.9492,-3.0351,-3.0723,-3.0664,-3.0098,-2.9989,-2.9659,-2.901,-2.8399,-2.7752,-2.7087,-2.7063,-2.6909,-2.6601,-2.6601,-2.7351,-2.8794,-2.9102,-2.941,-2.9767,-3.1521,-3.1314,-2.9612,-2.8695,-2.7863,-2.7172,-2.7233,-2.6989,-2.6708,-2.7624,-2.7407,-2.6684,-2.7346,0.0,0.0,0.0,0.0,0.0,0.0,0.0,-2.5308,-2.5308,-2.5157,-2.4974,-2.4835,-2.4654,-2.4518,-2.4606,-2.464,-2.4713,-2.4997,0.0,0.0,0.0,0.0,0.0,0.0,0.0,0.0,0.0,0.0,0.0,0.0,0.0,0.0,0.0,0.0,0.0,0.0,0.0,0.0,0.0,0.0,0.0,-2.4911,-2.4974,-2.4904,-2.47,-2.4578,-2.441,-2.4199,-2.4493,-2.4759,-2.5071,-2.4842,-2.4845,-2.5046,-2.4646,-2.4733,-2.5217,-2.5262,-2.571,-2.637,-2.6099,-2.571,-2.5405,-2.6623,-2.681,-2.6471,-2.7232,-2.7824,-2.823,0.0,0.0,0.0,0.0,0.0,0.0,0.0,0.0,0.0,-2.5703,0.0,0.0,0.0,0.0,-2.9824,-3.041,-3.0195,-2.9785,-2.9199,-2.9116,-2.8796,-2.8135,-2.7767,-2.7264,-2.6601,-2.689,-2.6755,-2.6154,-2.6154,-2.6621,-2.7467,-2.7467,-2.7621,-2.7978,-2.9457,-2.9633,-2.8783,-2.8063,-2.737,-2.6718,-2.6454,-2.6451,-2.6669,-2.7286,-2.7325,-2.7089,0.0,0.0,0.0,0.0,0.0,0.0,0.0,0.0,0.0,-2.5308,-2.5124,-2.4917,-2.4814,-2.4599,-2.4384,-2.4321,-2.4256,-2.4145,-2.3953,0.0,0.0,0.0,0.0,0.0,0.0,0.0,0.0,0.0,0.0,0.0,0.0,0.0,0.0,0.0,0.0,0.0,0.0,0.0,0.0,0.0,0.0,0.0,-2.4917,-2.498,-2.493,-2.4804,-2.4545,-2.4348,-2.419,-2.419,-2.419,-2.4208,-2.3958,-2.4074,-2.4419,-2.4021,-2.416,-2.4729,-2.415,-2.4547,-2.5592,-2.5592,-2.5456,-2.5337,-2.6319,-2.6404,-2.6031,-2.6522,-2.7012,-2.7435,0.0,0.0,0.0,0.0,0.0,0.0,0.0,0.0,0.0,-2.5703,0.0,0.0,0.0,0.0,0.0,-2.9609,-2.8809,-2.8281,-2.8262,-2.8262,-2.8193,-2.8021,-2.8768,-2.836,-2.6606,-2.7409,-2.7024,-2.5308,-2.5327,-2.5769,-2.6563,-2.6563,-2.7005,-2.779,-2.7092,-2.7246,-2.8076,-2.9003,-2.8377,-2.6688,-2.5841,-2.5934,-2.6574,-2.6715,0.0,0.0,-2.7009,-2.6705,0.0,-2.5673,0.0,0.0,0.0,0.0,-2.5308,-2.5308,-2.5068,-2.4804,0.0,0.0,0.0,0.0,0.0,0.0,-2.3459,0.0,0.0,0.0,0.0,0.0,0.0,0.0,0.0,0.0,0.0,0.0,0.0,0.0,0.0,0.0,0.0,0.0,0.0,0.0,0.0,0.0,0.0,-2.4594,-2.4782,-2.4904,-2.4936,-2.4797,-2.441,-2.419,-2.419,-2.419,-2.419,-2.419,-2.419,-2.4026,-2.3714,-2.3703,-2.3912,-2.4224,-2.3179,-2.3804,-2.5557,-2.5541,-2.5947,-2.6573,-2.6607,-2.664,-2.664,-2.6657,-2.6674,-2.6691,0.0,0.0,0.0,0.0,0.0,0.0,0.0,0.0,-2.5703,0.0,0.0,0.0,-2.8262,-2.9082,-2.9609,-2.9609,-2.8809,-2.8027,-2.7402,-2.7363,-2.7023,-2.6255,-2.6422,-2.6272,-2.5678,-2.6505,-2.6409,-2.5308,-2.5923,-2.6038,-2.5654,-2.5654,-2.5788,-2.6048,-2.6521,-2.6501,-2.6178,-2.6531,-2.6362,-2.5839,-2.5547,-2.5549,0.0,0.0,0.0,0.0,0.0,-2.5695,-2.5649,0.0,-2.5321,-2.5312,0.0,0.0,-2.5308,-2.5308,-2.5068,-2.4804,-2.4804,0.0,0.0,0.0,0.0,0.0,0.0,0.0,0.0,0.0,0.0,0.0,0.0,0.0,0.0,0.0,0.0,0.0,0.0,0.0,0.0,0.0,0.0,0.0,0.0,0.0,0.0,0.0,0.0,-2.4528,-2.4575,-2.4612,-2.462,-2.4575,-2.4321,-2.419,-2.419,-2.419,-2.419,-2.419,-2.419,-2.4151,-2.4046,-2.3806,-2.3757,-2.3845,-2.3307,-2.3668,-2.4634,-2.4191,-2.3816,-2.363,-2.4694,-2.5117,-2.5168,-2.571,-2.6234,-2.6623,0.0,0.0,0.0,0.0,0.0,0.0,0.0,0.0,-2.6113,0.0,0.0,0.0,-2.8809,-2.9297,-2.9453,-2.9082,-2.8262,-2.7539,-2.7031,-2.666,-2.6186,-2.5568,-2.5851,-2.5991,-2.5888,-2.6357,-2.6346,-2.5846,-2.5981,-2.5808,-2.5308,-2.5308,-2.5313,-2.5367,-2.5913,-2.5885,-2.542,-2.5471,-2.5484,0.0,-2.5399,0.0,0.0,-2.5856,-2.6077,0.0,0.0,0.0,-2.5788,-2.5423,-2.5308,0.0,0.0,0.0,0.0,0.0,0.0,-2.4864,-2.4825,-2.4578,-2.4358,0.0,0.0,0.0,-2.3528,-2.3564,0.0,0.0,0.0,0.0,0.0,0.0,0.0,0.0,0.0,0.0,0.0,0.0,0.0,0.0,0.0,0.0,0.0,0.0,0.0,0.0,-2.4312,-2.4419,-2.4495,-2.4503,-2.4503,-2.4503,-2.4303,-2.419,-2.419,-2.419,-2.419,-2.419,-2.419,-2.419,-2.419,-2.3996,-2.3907,-2.3896,-2.3555,-2.356,-2.3806,-2.3312,-2.3232,-2.3508,-2.4213,-2.4491,-2.4541,-2.4983,-2.5609,-2.6184,0.0,0.0,0.0,0.0,0.0,0.0,0.0,0.0,0.0,0.0,-2.7129,-2.8516,-2.9492,-2.9512,-2.918,-2.8496,-2.7656,-2.7109,-2.7012,-2.6269,-2.5779,-2.5603,-2.6299,-2.6637,-2.656,-2.6501,-2.6463,-2.6467,-2.5673,-2.5308,-2.5308,-2.5308,-2.5335,-2.5398,0.0,-2.5406,-2.5404,-2.5395,0.0,-2.5383,-2.5321,-2.5779,0.0,0.0,-2.6948,-2.7511,-2.6732,-2.6468,-2.6352,-2.5563,-2.5317,0.0,0.0,0.0,0.0,0.0,-2.5146,-2.4955,-2.4855,-2.4654,-2.452,0.0,0.0,0.0,-2.2774,-2.2858,0.0,0.0,0.0,0.0,0.0,0.0,0.0,0.0,0.0,0.0,0.0,0.0,0.0,0.0,0.0,0.0,0.0,0.0,0.0,-2.419,-2.4218,-2.4312,-2.4495,-2.4503,-2.4503,-2.4503,-2.4303,-2.419,-2.419,-2.419,-2.419,-2.419,-2.419,-2.419,-2.419,-2.419,-2.419,-2.418,-2.3886,-2.3577,-2.3288,-2.296,-2.3566,-2.4663,-2.4373,-2.4305,-2.4372,-2.4372,-2.4831,-2.5473,-2.5703,0.0,0.0,0.0,0.0,0.0,0.0,0.0,-2.5898,-2.5723,-2.6602,-2.7851,-2.9434,-2.8965,-2.8769,-2.9297,-2.8555,-2.7754,-2.7051,-2.6836,-2.6404,-2.5622,-2.575,-2.578,-2.5654,-2.5639,-2.5605,-2.5558,-2.5385,-2.5308,-2.5308,-2.5308,-2.5335,-2.5395,-2.5348,-2.5376,-2.5463,0.0,0.0,-2.5391,-2.5336,0.0,-2.5623,-2.5562,-2.5654,-2.5784,-2.5676,-2.5631,-2.5612,-2.5437,-2.5337,-2.5308,0.0,0.0,0.0,-2.5308,0.0,0.0,0.0,0.0,0.0,0.0,0.0,0.0,-2.3914,-2.4032,-2.3882,0.0,0.0,0.0,0.0,0.0,0.0,0.0,0.0,0.0,0.0,0.0,0.0,0.0,0.0,0.0,0.0,0.0,-2.419,-2.419,-2.4348,-2.4452,-2.4503,-2.4503,-2.4503,-2.4503,-2.4303,-2.419,-2.419,-2.419,-2.419,-2.419,-2.419,-2.419,-2.419,-2.419,-2.419,-2.4208,-2.4123,-2.4074,-2.3986,-2.3631,-2.3249,-2.2816,-2.2762,-2.3088,-2.3613,-2.3613,-2.4085,-2.4626,-2.5703,0.0,0.0,0.0,0.0,0.0,0.0,0.0,-2.6836,-2.6406,-2.748,-2.8457,-2.8906,-2.9336,-2.9609,-2.9609,-2.9199,-2.8769,-2.832,-2.748,-2.6796,-2.6322,-2.5844,-2.5777,-2.6145,-2.5664,-2.5592,-2.5994,-2.5529,-2.5308,-2.5308,-2.5335,-2.5383,-2.545,-2.5408,-2.5459,-2.5545,0.0,-2.5387,-2.5441,-2.5344,0.0,-2.5361,-2.5313,-2.5327,-2.5346,-2.5391,-2.5394,-2.5394,-2.5394,-2.5354,0.0,0.0,-2.5308,-2.5308,0.0,-2.5171,-2.5037,0.0,0.0,0.0,-2.4718,0.0,0.0,0.0,-2.3797,-2.3499,0.0,0.0,0.0,0.0,0.0,0.0,0.0,0.0,0.0,0.0,0.0,0.0,0.0,0.0,0.0,0.0,0.0,-2.419,-2.419,-2.4384,-2.4503,-2.4503,-2.4503,-2.4503,-2.4503,-2.4303,-2.419,-2.419,-2.419,-2.419,-2.419,-2.419,-2.419,-2.419,-2.419,-2.419,-2.419,-2.419,-2.4103,-2.3927,-2.3774,-2.3236,-2.25,-2.25,-2.2634,-2.2852,-2.2852,-2.3325,-2.3898,-2.5703,0.0,0.0,0.0,0.0,0.0,0.0,0.0,-2.7617,-2.707,-2.8379,-2.9219,-2.8848,-2.9902,-3.0625,-3.0586,-2.9824,-2.9551,-3.0078,-2.8144,-2.6992,-2.6992,-2.6263,-2.6114,-2.6631,-2.6026,-2.5941,-2.6444,0.0,0.0,-2.5327,-2.5372,-2.5447,-2.5529,-2.5515,-2.5549,-2.5605,0.0,0.0,-2.5517,0.0,-2.534,-2.5339,-2.5339,-2.5379,-2.5411,-2.5434,-2.5431,-2.5418,-2.5418,-2.5375,-2.5308,-2.5308,-2.5308,0.0,0.0,0.0,0.0,0.0,0.0,0.0,0.0,0.0,-2.4451,0.0,0.0,0.0,0.0,0.0,0.0,0.0,0.0,0.0,0.0,0.0,0.0,0.0,0.0,0.0,0.0,0.0,0.0,0.0,0.0,-2.4044,-2.4247,-2.4286,-2.4399,-2.4588,-2.4567,-2.4569,-2.4569,-2.433,-2.419,-2.419,-2.419,-2.419,-2.419,-2.419,-2.419,-2.419,-2.419,-2.419,-2.419,-2.419,-2.4054,-2.3795,-2.3795,-2.3437,-2.2885,-2.2759,-2.2537,-2.2296,-2.2296,-2.2682,-2.319,-2.5703,-2.5703,0.0,0.0,0.0,0.0,0.0,0.0,-2.623,-2.6914,-2.7851,-2.9004,-3.0449,-3.0098,-3.0937,-3.3867,-3.0644,0.0,-3.1758,0.0,-2.6992,-2.6992,-2.6894,-2.65,-2.5758,-2.6395,-2.6349,-2.5545,0.0,0.0,0.0,0.0,-2.5477,-2.5594,-2.5535,-2.5566,-2.5682,0.0,-2.5463,0.0,-2.5441,-2.5418,0.0,-2.5488,-2.5473,-2.5506,-2.5556,-2.5545,-2.5501,0.0,-2.5394,-2.5308,0.0,-2.5308,-2.5308,0.0,0.0,0.0,0.0,0.0,0.0,0.0,-2.498,0.0,0.0,0.0,0.0,0.0,0.0,0.0,0.0,0.0,0.0,0.0,0.0,0.0,0.0,0.0,0.0,0.0,0.0,0.0,0.0,0.0,0.0,-2.4388,-2.3941,-2.4002,-2.4905,-2.4823,-2.4768,-2.4768,-2.4401,-2.419,-2.419,-2.419,-2.419,-2.419,-2.419,-2.419,-2.419,-2.419,-2.419,-2.419,-2.419,-2.418,-2.4151,-2.4151,-2.3917,-2.3533,-2.2935,-2.2537,-2.2296,-2.2296,-2.2347,-2.2415,-2.5703,-2.5703,-2.5703,0.0,0.0,0.0,0.0,0.0,-2.7734,-2.707,-2.9082,-3.084,-3.1562,-3.1738,-3.2383,-3.3828,0.0,-3.0801,0.0,0.0,-2.7988,-2.8496,0.0,0.0,-2.6422,-2.6724,-2.6435,-2.5465,-2.5462,0.0,0.0,0.0,0.0,0.0,-2.5606,0.0,-2.5683,0.0,-2.5566,0.0,0.0,0.0,0.0,-2.5498,-2.5477,-2.5505,-2.563,-2.5608,-2.5558,0.0,-2.5484,0.0,0.0,0.0,0.0,0.0,0.0,0.0,0.0,0.0,0.0,0.0,0.0,0.0,-2.4824,0.0,-2.4482,0.0,0.0,0.0,0.0,0.0,0.0,0.0,0.0,0.0,0.0,0.0,0.0,0.0,0.0,0.0,0.0,0.0,0.0,0.0,0.0,-2.3948,-2.4941,-2.4864,-2.4804,-2.4804,-2.4419,-2.419,-2.419,-2.419,-2.419,-2.419,-2.419,-2.419,-2.419,-2.419,-2.419,-2.419,-2.419,-2.419,-2.419,-2.419,-2.4006,-2.3671,-2.3392,-2.3087,-2.2798,-2.2603,-2.2523,-2.2514,-2.5703,-2.5703,-2.5703,0.0,0.0,0.0,0.0,0.0,0.0,0.0,0.0,0.0,-3.2812,-3.3184,0.0,0.0,-3.3008,-3.1777,0.0,0.0,-2.8476,0.0,0.0,0.0,0.0,0.0,-2.681,-2.5888,-2.5632,0.0,0.0,0.0,0.0,0.0,0.0,-2.5703,-2.5703,0.0,-2.5636,-2.5683,-2.5632,-2.5629,-2.5634,-2.5513,-2.5491,-2.5547,-2.566,-2.5657,-2.5588,-2.5598,-2.5556,0.0,-2.5491,0.0,0.0,0.0,0.0,0.0,-2.5298,0.0,0.0,0.0,0.0,0.0,0.0,0.0,0.0,0.0,0.0,0.0,0.0,0.0,0.0,0.0,0.0,0.0,0.0,0.0,0.0,0.0,0.0,0.0,0.0,0.0,0.0,0.0,-2.2958,0.0,-2.47,-2.4561,-2.4551,-2.4785,-2.4419,-2.419,-2.419,-2.419,-2.419,-2.419,-2.419,-2.419,-2.419,-2.419,-2.419,-2.419,-2.419,-2.419,-2.419,-2.419,-2.4064,-2.3837,-2.3837,-2.3692,-2.3414,-2.2996,-2.2784,-2.2656,-2.5703,-2.5703,-2.5703,-2.5703,0.0,0.0,0.0,0.0,0.0,0.0,0.0,0.0,0.0,0.0,0.0,0.0,0.0,-3.1621,-3.3223,0.0,-2.7949,0.0,0.0,-2.8769,0.0,0.0,0.0,-2.6851,-2.601,-2.5599,0.0,0.0,-2.5634,-2.5703,-2.5703,-2.5703,-2.5703,-2.5633,-2.5636,-2.5683,-2.5632,-2.5561,-2.5529,0.0,-2.5658,-2.5604,-2.5682,0.0,0.0,-2.557,-2.5556,0.0,0.0,0.0,0.0,0.0,0.0,0.0,0.0,0.0,0.0,-2.5308,0.0,0.0,0.0,0.0,-2.4898,0.0,0.0,0.0,0.0,0.0,-2.0343,-1.9863,-1.9828,0.0,0.0,0.0,0.0,0.0,0.0,0.0,0.0,0.0,0.0,0.0,-2.1721,0.0,-2.4038,-2.3758,-2.3927,-2.4759,-2.4419,-2.419,-2.419,-2.419,-2.419,-2.419,-2.419,-2.419,-2.419,-2.419,-2.419,-2.419,-2.419,-2.419,-2.419,-2.419,-2.419,-2.418,-2.418,-2.418,-2.4084,-2.3426,-2.2984,-2.2708,-2.5636,-2.5634,-2.5634,-2.5634,0.0,0.0,0.0,-2.8828,0.0,0.0,0.0,0.0,0.0,-3.7871,-3.7715,0.0,0.0,-3.3809,-3.2676,-3.1523,0.0,0.0,0.0,-3.0234,0.0,0.0,0.0,0.0,0.0,0.0,-2.5602,-2.5657,-2.5682,-2.5703,0.0,-2.5703,0.0,0.0,0.0,0.0,0.0,-2.5632,-2.5566,0.0,0.0,-2.5547,-2.5605,-2.5634,0.0,-2.566,-2.5658,-2.5633,-2.5633,-2.5602,-2.5559,-2.5543,-2.5477,0.0,0.0,0.0,-2.5308,-2.5308,0.0,0.0,0.0,0.0,0.0,0.0,0.0,0.0,0.0,0.0,-2.0497,-1.9912,-1.979,-1.9915,0.0,0.0,0.0,0.0,0.0,0.0,0.0,0.0,0.0,-2.1561,-2.1426,-2.1861,0.0,-2.3416,-2.3637,-2.3927,-2.4105,-2.419,-2.419,-2.419,-2.419,-2.419,-2.419,-2.419,-2.419,-2.419,-2.419,-2.419,-2.419,-2.419,-2.419,-2.419,-2.419,-2.419,-2.419,-2.419,-2.4151,-2.3692,-2.3448,-2.3335,-2.5605,-2.5559,0.0,0.0,0.0,0.0,0.0,0.0,0.0,0.0,-3.6191,0.0,-3.9687,0.0,-3.8984,0.0,-3.668,-3.5039,-3.2773,-3.2363,0.0,-2.9687,-3.0684,0.0,0.0,0.0,0.0,0.0,0.0,-2.5975,-2.5635,-2.5683,-2.5703,-2.5703,0.0,-2.5703,-2.5703,-2.5703,-2.5703,0.0,0.0,-2.566,0.0,0.0,-2.5558,0.0,0.0,-2.5658,-2.5661,-2.5683,-2.5703,-2.5703,-2.5703,-2.5662,-2.5633,-2.5604,-2.5543,-2.5477,-2.5447,-2.5394,0.0,0.0,-2.535,0.0,-2.5335,0.0,0.0,0.0,0.0,0.0,0.0,0.0,-2.0678,-1.9985,-1.9874,-1.9972,0.0,-2.0308,0.0,0.0,0.0,0.0,0.0,0.0,-2.0209,-2.0736,-2.0881,-2.1349,0.0,0.0,-2.3189,-2.3498,-2.3966,-2.419,-2.419,-2.419,-2.419,-2.419,-2.419,-2.419,-2.419,-2.419,-2.419,-2.419,-2.419,-2.419,-2.419,-2.419,-2.419,-2.419,-2.419,-2.419,-2.417,-2.3966,-2.3806,-2.366,-2.5655,0.0,0.0,0.0,-2.7119,0.0,0.0,0.0,-3.5078,0.0,-3.7734,-3.9121,-3.998,-3.9316,-3.873,-3.8613,-3.7051,-3.5312,-3.3516,-3.2715,0.0,0.0,-2.9687,-2.9277,-2.832,0.0,0.0,0.0,0.0,0.0,-2.5703,-2.5703,-2.5703,-2.5703,-2.5703,0.0,-2.5703,-2.5703,-2.5703,-2.5703,-2.5703,-2.566,-2.5602,-2.5603,0.0,-2.5511,-2.5658,-2.566,-2.5607,-2.5683,-2.5703,-2.5703,-2.5703,-2.5703,-2.5683,-2.5611,-2.5603,-2.5594,-2.5511,-2.5493,-2.5491,-2.5491,0.0,0.0,0.0,0.0,-2.5244,0.0,0.0,0.0,0.0,0.0,0.0,-2.0183,-2.0036,-2.0078,-2.0277,0.0,0.0,0.0,0.0,0.0,0.0,-2.0107,-2.0162,-1.9855,-2.0112,-2.0635,0.0,0.0,0.0,-2.3404,-2.3938,-2.4209,-2.419,-2.419,-2.419,-2.419,-2.419,-2.419,-2.419,-2.419,-2.419,-2.419,-2.419,-2.419,-2.419,-2.419,-2.419,-2.419,-2.419,-2.419,-2.419,-2.419,-2.3996,-2.3682,-2.6427,-2.7344,-2.8207,0.0,-2.8778,-2.9833,0.0,0.0,0.0,0.0,-4.0781,-4.1758,-4.2637,-4.1953,-4.0664,-3.8769,-3.7598,0.0,0.0,0.0,0.0,-2.9726,-3.084,-3.0527,-2.8359,-2.8926,0.0,-2.6992,0.0,0.0,-2.5703,-2.5703,-2.5703,-2.5703,0.0,0.0,-2.5703,-2.5703,-2.5703,-2.5703,-2.5703,-2.566,0.0,0.0,-2.5634,-2.557,-2.5607,-2.5657,-2.5682,-2.5683,-2.5703,-2.5703,-2.5703,-2.5703,-2.5703,-2.5683,-2.5636,-2.5599,-2.557,-2.5543,-2.5491,-2.5491,-2.5498,-2.5465,0.0,0.0,0.0,0.0,0.0,0.0,0.0,0.0,0.0,-2.1089,-2.056,-2.0241,0.0,0.0,0.0,-2.1115,0.0,0.0,0.0,-2.0256,-2.0264,-2.0171,-2.0256,0.0,0.0,0.0,0.0,-2.2535,-2.3764,-2.4348,-2.419,-2.419,-2.419,-2.419,-2.419,-2.419,-2.419,-2.419,-2.419,-2.419,-2.419,-2.419,-2.419,-2.419,-2.419,-2.419,-2.419,-2.419,-2.419,-2.419,-2.4151,-2.4064,-2.7207,0.0,0.0,-3.1035,0.0,0.0,-3.4354,0.0,0.0,-4.0781,-4.1894,0.0,-4.207,-4.1601,-4.043,-3.8223,-3.6894,0.0,-3.4062,0.0,0.0,-3.0273,-3.0371,-2.9629,-2.7773,-2.8203,0.0,-2.6426,0.0,0.0,-2.5703,-2.5703,-2.5703,-2.5703,0.0,-2.5703,-2.5703,-2.5703,-2.5703,-2.5703,-2.5703,0.0,0.0,-2.5683,-2.5682,-2.5637,-2.5637,-2.5661,-2.5703,-2.5703,-2.5703,-2.5703,-2.5703,-2.5703,-2.5703,-2.5703,-2.5662,-2.5637,-2.5637,-2.5628,-2.5595,-2.5595,-2.5563,-2.5547,-2.5547,-2.5481,-2.5434,0.0,0.0,0.0,0.0,0.0,0.0,-2.1522,-2.079,0.0,0.0,0.0,0.0,0.0,0.0,0.0,0.0,0.0,0.0,0.0,0.0,0.0,0.0,0.0,0.0,0.0,-2.3824,-2.4586,-2.4461,-2.4461,-2.4461,-2.4461,-2.4375,-2.4339,-2.4339,-2.4247,-2.419,-2.419,-2.419,-2.419,-2.419,-2.419,-2.419,-2.419,-2.419,-2.419,-2.419,-2.419,-2.419,-2.419,-2.8321,0.0,0.0,0.0,0.0,0.0,0.0,-3.7891,0.0,-4.1152,0.0,-4.1933,-4.0254,-3.9961,-3.9199,-3.7441,0.0,-3.4648,-3.4531,-3.2969,-3.1641,-3.0762,-2.918,-2.7891,-2.7012,-2.7109,-2.6699,0.0,0.0,0.0,-2.5703,-2.5703,0.0,0.0,0.0,0.0,0.0,-2.5703,-2.5703,0.0,-2.5703,-2.5703,-2.5703,-2.5703,-2.5703,-2.5703,-2.5703,-2.5703,-2.5703,-2.5703,-2.5703,-2.5703,-2.5703,-2.5703,-2.5703,-2.5703,-2.5703,-2.5703,-2.5703,-2.5703,-2.5703,-2.5703,-2.566,-2.5607,-2.5607,-2.5559,-2.5486,-2.5428,-2.4765,0.0,0.0,0.0,0.0,0.0,0.0,0.0,0.0,0.0,0.0,0.0,0.0,0.0,0.0,0.0,0.0,0.0,0.0,0.0,0.0,0.0,0.0,0.0,-2.4055,0.0,-2.476,0.0,-2.4804,-2.4797,-2.4615,-2.4545,-2.4537,-2.4357,-2.4275,-2.4275,-2.4256,-2.4247,-2.4237,-2.4209,-2.419,-2.419,-2.419,-2.419,-2.419,-2.419,-2.419,-2.419,-3.0961,0.0,0.0,0.0,0.0,-3.8324,-3.91,-4.0098,-4.1094,-4.2051,-4.2949,-4.2832,-4.1152,-4.0332,-3.9199,-3.7441,-3.5703,0.0,0.0,0.0,0.0,-2.9863,-2.8848,-2.7891,-2.7012,-2.7695,-2.7285,0.0,0.0,0.0,-2.5703,-2.5703,0.0,0.0,0.0,0.0,-2.5703,-2.5703,0.0,-2.5703,-2.5703,-2.5703,-2.5703,-2.5703,-2.5703,-2.5703,-2.5703,-2.5703,-2.5703,-2.5703,-2.5703,-2.5703,-2.5703,-2.5703,-2.5703,-2.5703,-2.5703,-2.5703,-2.5703,-2.5703,-2.5703,-2.5703,-2.5683,-2.5683,-2.5683,-2.5633,-2.5561,-2.5508,-2.4807,-2.4129,-2.3901,0.0,0.0,0.0,0.0,0.0,0.0,0.0,0.0,0.0,0.0,0.0,0.0,0.0,0.0,0.0,0.0,0.0,0.0,0.0,0.0,0.0,0.0,0.0,0.0,0.0,0.0,-2.4797,-2.4768,-2.4746,-2.4746,-2.4708,-2.4693,-2.4685,-2.452,-2.4444,-2.4426,-2.4266,-2.419,-2.419,-2.419,-2.419,-2.419,-2.419,-2.419,-2.419,0.0,0.0,0.0,0.0,0.0,0.0,0.0,-4.1289,0.0,-4.1777,-4.1758,-4.1074,-3.9355,-3.9219,-3.8516,-3.6777,-3.5039,-3.3828,-3.3372,-3.1361,-2.9775,-2.8859,-2.8015,0.0,-2.6283,-2.6673,-2.6498,-2.5658,0.0,0.0,-2.5658,-2.5658,0.0,-2.5703,0.0,-2.5703,0.0,0.0,0.0,-2.5703,-2.5703,-2.5703,-2.5703,-2.5703,-2.5703,-2.5703,-2.5703,-2.5703,-2.5703,-2.5703,-2.5703,-2.5703,-2.5703,-2.5703,-2.5703,-2.5703,-2.5703,-2.5703,-2.5703,-2.5703,-2.5703,-2.5703,-2.5703,-2.5703,-2.5703,-2.5682,-2.5634,-2.5563,-2.4896,-2.4132,-2.3573,-2.2427,0.0,0.0,0.0,0.0,0.0,0.0,0.0,0.0,0.0,0.0,0.0,0.0,0.0,0.0,0.0,0.0,0.0,0.0,0.0,0.0,0.0,0.0,0.0,0.0,0.0,-2.5062,-2.4943,-2.4904,-2.4897,-2.4719,-2.4639,-2.4631,-2.4426,-2.4339,-2.4348,-2.4247,-2.419,-2.419,-2.419,-2.419,-2.419,-2.419,-2.419,-2.419,0.0,-3.6073,0.0,0.0,-3.9298,0.0,-4.0916,-4.1621,-4.1914,-4.1289,-4.0449,-3.9238,-3.748,-3.791,-3.7617,-3.5879,-3.4296,-3.3276,-3.3042,-3.0633,-2.8874,-2.8135,-2.7131,-2.6275,-2.559,-2.557,-2.557,0.0,0.0,0.0,0.0,0.0,0.0,0.0,0.0,0.0,0.0,0.0,-2.5703,-2.5703,-2.5703,-2.5703,-2.5703,-2.5703,-2.5703,-2.5703,-2.5703,-2.5703,-2.5703,-2.5703,-2.5703,-2.5703,-2.5703,-2.5703,-2.5703,-2.5703,-2.5703,-2.5703,-2.5703,-2.5703,-2.5703,-2.5703,-2.5703,-2.5703,-2.5703,-2.5703,-2.5683,-2.5607,-2.4955,-2.4195,-2.3573,-2.2602,0.0,0.0,0.0,0.0,0.0,0.0,0.0,0.0,0.0,0.0,0.0,0.0,0.0,0.0,0.0,0.0,0.0,0.0,0.0,0.0,0.0,0.0,-2.5248,0.0,-2.5308,0.0,-2.5146,-2.5052,-2.5046,-2.4788,-2.4666,-2.4651,-2.4459,-2.4347,-2.4312,-2.4275,-2.4284,-2.4321,-2.4237,-2.4228,-2.4266,-2.4209,-2.419,-2.419,0.0,0.0,0.0,0.0,0.0,0.0,0.0,-4.0762,-4.1289,-4.1211,-4.0449,-3.9238,-3.748,-3.7363,-3.6719,-3.4961,-3.3898,-3.2966,-3.2161,-2.968,-2.8198,-2.8093,-2.6508,-2.5598,-2.552,-2.552,-2.552,0.0,0.0,0.0,0.0,0.0,0.0,0.0,0.0,0.0,0.0,-2.5662,-2.5703,-2.5703,-2.5703,-2.5703,-2.5703,-2.5703,-2.5703,-2.5703,-2.5703,-2.5703,-2.5703,-2.5703,-2.5703,-2.5703,-2.5703,-2.5703,-2.5703,-2.5703,-2.5703,-2.5703,-2.5703,-2.5703,-2.5703,-2.5703,-2.5703,-2.5703,-2.5703,-2.5703,-2.5683,-2.5607,-2.4914,-2.449,-2.5136,-2.3954,-2.3392,0.0,0.0,0.0,0.0,0.0,0.0,0.0,0.0,0.0,0.0,0.0,0.0,0.0,0.0,0.0,0.0,0.0,0.0,0.0,0.0,-2.5214,-2.5028,-2.5208,0.0,-2.5308,-2.5274,-2.5269,-2.5269,-2.5243,-2.5233,-2.5203,-2.5004,-2.4864,-2.4731,-2.4553,-2.4575,-2.4708,-2.433,-2.4312,-2.4444,-2.4275,-2.419,-2.419,0.0,0.0,0.0,0.0,0.0,0.0,0.0,-4.0337,-4.0047,-3.9538,-3.9193,-3.8517,-3.7262,-3.7121,-3.6438,-3.4722,-3.3765,-3.2859,-3.1939,-2.9913,-2.8539,-2.8006,-2.6842,-2.5981,-2.5457,-2.5444,-2.5444,0.0,0.0,0.0,0.0,0.0,0.0,0.0,0.0,-2.5602,-2.5603,-2.5662,-2.5703,-2.5703,-2.566,-2.5661,-2.5703,-2.5659,-2.5661,-2.5703,-2.5703,-2.5703,-2.5703,-2.5703,-2.5703,-2.5703,-2.5703,-2.5703,-2.5703,-2.5703,-2.5703,-2.5703,-2.5703,-2.5703,-2.5703,-2.5703,-2.5703,-2.5703,-2.5703,-2.5703,-2.5683,-2.5661,-2.4963,-2.4454,-2.4784,-2.43,-2.4058,0.0,0.0,0.0,0.0,0.0,0.0,0.0,0.0,0.0,0.0,0.0,0.0,0.0,0.0,0.0,0.0,0.0,0.0,-2.4417,0.0,-2.5264,-2.5173,-2.5264,-2.5308,-2.5308,-2.5308,-2.5308,-2.5303,-2.5168,-2.5084,-2.5006,-2.4904,-2.4849,-2.4782,-2.4575,-2.4553,-2.4583,-2.4312,-2.433,-2.4495,-2.4419,-2.4452,-2.4551,-3.7786,0.0,-3.8225,0.0,-3.9572,-3.964,-4.0338,-3.9524,-3.8602,-3.7961,-3.7709,-3.7328,-3.669,-3.6628,-3.5944,-3.4251,-3.3547,-3.2668,-3.1489,-2.978,-2.8536,-2.7939,-2.6857,0.0,-2.5371,-2.5379,-2.5364,-2.5364,-2.5317,0.0,0.0,0.0,0.0,0.0,-2.5529,-2.5545,-2.5549,-2.5634,-2.566,-2.5636,-2.5606,-2.5628,-2.5636,-2.5606,-2.5633,-2.5662,-2.5662,-2.5662,-2.5661,-2.5657,-2.5636,-2.5658,-2.5683,-2.5683,-2.5662,-2.5683,-2.5683,-2.5662,-2.5683,-2.5703,-2.5703,-2.5703,-2.5703,-2.5703,-2.5703,-2.5703,-2.5703,-2.5703,-2.5213,-2.4777,-2.4777,-2.4777,-2.4772,0.0,0.0,0.0,0.0,0.0,0.0,0.0,-2.566,-2.5419,-2.4835,0.0,0.0,0.0,0.0,0.0,0.0,0.0,0.0,0.0,0.0,0.0,0.0,0.0,-2.5308,-2.5308,-2.5308,-2.5308,-2.5303,-2.5152,-2.5049,-2.4955,-2.4955,-2.4955,-2.4923,-2.4734,-2.4689,-2.4712,-2.4478,-2.4485,-2.4651,-2.4607,-2.4678,-2.4804,-4.0304,-4.0458,-4.0499,-4.0654,-3.9973,-3.9446,-3.9583,-3.8146,-3.7004,-3.693,-3.6163,-3.5645,-3.5716,-3.5726,-3.5045,-3.3369,-3.3153,-3.2376,-3.0638,-2.8883,-2.7915,0.0,0.0,-2.5308,-2.5308,-2.5308,-2.5308,-2.5308,0.0,0.0,-2.5394,0.0,0.0,-2.5394,-2.5394,-2.539,-2.5417,-2.5547,-2.5561,-2.5517,-2.5567,-2.5559,-2.552,-2.5588,-2.5602,-2.5602,-2.5602,-2.5602,-2.5597,-2.5513,-2.5493,-2.5533,-2.566,-2.5659,-2.5607,-2.5683,-2.5659,-2.5628,-2.5683,-2.5703,-2.5703,-2.5703,-2.5703,-2.5703,-2.5703,-2.5703,-2.5703,-2.5703,-2.5684,-2.5684,-2.5684,-2.5684,-2.5684,-2.5684,0.0,0.0,0.0,0.0,0.0,0.0,-2.5703,-2.5684,-2.5684,0.0,0.0,0.0,0.0,0.0,0.0,0.0,0.0,-2.5231,-2.5288,0.0,-2.5308,-2.5308,-2.5308,-2.5308,-2.5308,-2.5308,-2.5308,-2.5303,-2.5303,-2.5284,-2.5284,-2.5284,-2.5274,-2.5082,-2.5105,-2.5253,-2.4916,-2.4889,-2.498,-2.4849,-2.4797,-2.4804,-3.8623,-3.9265,-3.9511,-3.8959,-3.912,-3.9148,-3.8582,-3.7525,-3.6792,-3.6781,-3.6036,-3.5547,-3.5562,-3.5032,-3.4221,0.0,-3.2464,-3.1664,0.0,-2.936,-2.8472,-2.7915,-2.6794,-2.5904,-2.5308,-2.5308,-2.5308,-2.5308,0.0,0.0,0.0,-2.533,-2.533,-2.5335,-2.5379,-2.5406,-2.5406,-2.5484,-2.5529,-2.5508,-2.5465,-2.549,-2.5508,-2.5479,-2.5501,-2.5539,-2.5539,-2.5539,-2.5535,-2.5517,-2.5491,-2.5517,-2.5552,-2.5551,-2.5541,-2.5558,-2.5572,-2.5603,-2.5632,-2.5661,-2.5703,-2.5703,-2.5703,-2.5703,-2.5703,-2.5703,-2.5703,-2.5703,-2.5703,-2.5703,-2.5703,-2.5703,-2.5683,-2.5636,0.0,0.0,0.0,0.0,0.0,0.0,0.0,-2.5703,0.0,-2.5683,0.0,0.0,0.0,0.0,0.0,0.0,0.0,0.0,-2.5337,0.0,-2.5308,-2.5308,-2.5308,-2.5308,-2.5308,-2.5308,-2.5308,-2.5308,-2.5308,-2.5308,-2.5308,-2.5308,-2.5279,-2.5088,-2.5034,-2.5077,-2.4876,-2.4877,-2.4979,-2.4949,-2.5018,-2.5138,-3.7834,-3.843,-3.8642,-3.8104,-3.818,-3.8142,-3.7584,-3.6788,-3.625,-3.625,-3.5808,-3.5385,-3.5045,-3.4237,0.0,-3.2949,-3.216,0.0,-3.0462,-2.9294,-2.8434,-2.7915,-2.6755,-2.5865,-2.5308,0.0,0.0,-2.5308,-2.5308,-2.5308,-2.5308,-2.5308,-2.5308,-2.5288,-2.5333,-2.5367,-2.5367,-2.5434,-2.5453,-2.5418,-2.5417,-2.5401,-2.5418,-2.5409,-2.5421,-2.5451,-2.5468,-2.5468,-2.5468,-2.5434,-2.5421,-2.5421,-2.5421,-2.5421,-2.5434,-2.5495,-2.55,-2.5535,-2.5556,-2.5598,-2.5611,-2.5611,-2.5611,-2.5611,-2.5611,-2.5611,-2.5611,-2.5611,-2.5611,-2.5611,-2.5611,-2.5611,-2.5606,-2.5564,0.0,0.0,0.0,0.0,0.0,0.0,0.0,0.0,0.0,-2.5683,0.0,0.0,0.0,0.0,0.0,0.0,0.0,-2.5352,-2.5411,0.0,-2.5387,-2.5346,-2.5344,-2.5344,-2.5313,-2.5308,-2.5308,-2.5308,-2.5308,-2.5308,-2.5308,-2.5308,-2.5279,-2.5163,-2.5105,-2.5099,-2.5018,-2.5043,-2.5105,-2.5105,-2.5198,-2.5269,-3.7757,-3.7969,0.0,0.0,-3.7199,0.0,-3.6635,-3.5981,-3.55,-3.55,-3.55,-3.5192,-3.4379,-3.3506,-3.2968,-3.291,0.0,0.0,0.0,-2.8832,-2.7895,-2.7895,-2.6231,0.0,-2.5308,-2.5308,-2.5308,-2.5308,-2.5308,-2.5308,-2.5308,-2.5308,-2.5308,-2.5308,-2.5308,-2.5308,-2.5293,-2.5375,-2.5359,-2.5317,-2.5367,-2.537,-2.5317,-2.5371,-2.5395,-2.5398,-2.5391,-2.5395,-2.5383,-2.5331,-2.5308,-2.5308,-2.5308,-2.5308,-2.5317,-2.5453,-2.5447,-2.542,-2.5485,-2.5508,-2.5491,-2.5491,-2.5491,-2.5491,-2.5491,-2.5491,-2.5491,-2.5491,-2.5491,-2.5491,-2.5491,-2.5491,-2.5508,-2.5484,-2.5484,-2.5484,-2.5484,0.0,0.0,0.0,0.0,0.0,0.0,-2.566,-2.5683,0.0,0.0,0.0,0.0,0.0,0.0,-2.5471,-2.5496,-2.5496,-2.5491,-2.5444,-2.5397,-2.539,-2.5339,-2.5298,-2.5308,-2.5308,-2.5308,-2.5308,-2.5308,-2.5308,-2.5308,-2.5308,-2.5308,-2.5308,-2.5308,-2.5308,-2.5308,-2.5308,-2.5308,-2.5192,0.0,0.0,-3.7603,-3.6327,-3.6423,-3.6481,-3.5885,-3.5615,-3.55,-3.55,-3.55,-3.5423,-3.5212,-3.441,-3.3622,-3.2968,-3.1558,-3.0615,-3.0404,-2.8832,-2.7895,-2.7895,-2.6231,-2.5308,-2.5308,-2.5308,-2.5308,-2.5308,-2.5308,-2.5308,-2.5308,-2.5308,-2.5308,-2.5308,-2.5308,-2.5308,-2.5308,-2.5322,-2.5317,-2.5308,-2.5317,-2.5313,-2.5308,-2.5322,-2.5312,-2.5317,-2.5312,-2.5312,-2.5312,-2.5317,-2.5308,-2.5308,-2.5308,-2.5308,-2.5317,-2.5339,-2.5379,-2.5406,-2.5427,-2.5465,-2.5491,-2.5491,-2.5491,-2.5491,-2.5491,-2.5491,-2.5491,-2.5491,-2.5491,-2.5491,-2.5491,-2.5491,-2.5473,-2.5428,-2.5421,-2.5425,-2.5425,0.0,0.0,0.0,-2.5535,-2.5559,-2.5599,-2.5607,-2.5637,0.0,0.0,0.0,0.0,0.0,-2.541,-2.5493,-2.5552,-2.5554,-2.5491,-2.5476,-2.5459,-2.539,-2.5387,-2.5346,-2.5308,-2.5308,-2.5308,-2.5308,-2.5308,-2.5308,-2.5308,-2.5308,-2.5308,-2.5308,-2.5308,-2.5308,-2.5308,-2.5308,-2.5308,-2.5269,-3.6769,-3.7084,-3.7007,-3.5712,-3.5865,-3.6,-3.5577,-3.55,-3.55,-3.55,-3.55,-3.5346,-3.4949,-3.4122,-3.3276,-3.2429,-3.1525,-3.0827,-3.0423,-2.8832,-2.7895,-2.7895,-2.6231,-2.5308,-2.5308,-2.5308,-2.5308,-2.5308,-2.5308,-2.5308,-2.5308,-2.5308,-2.5308,-2.5308,-2.5308,-2.5308,-2.5308,-2.5308,-2.5308,-2.5308,-2.5308,-2.5308,-2.5308,-2.5308,-2.5308,-2.5308,-2.5308,-2.5308,-2.5308,-2.5308,-2.5308,-2.5308,-2.5308,-2.5308,-2.5308,-2.5308,-2.5336,-2.5346,-2.5346,-2.5372,-2.5417,-2.5417,-2.5417,-2.5417,-2.5417,-2.5417,-2.5417,-2.5417,-2.5417,-2.5417,-2.5417,-2.5417,-2.5398,-2.5359,-2.5372,-2.5406,-2.539,-2.5428,0.0,-2.5456,-2.5471,-2.5493,-2.5517,-2.5561,-2.5628,-2.5658,0.0,0.0,-2.5703,-2.5703,-2.5661,-2.5598,-2.5632,-2.5633,-2.5597,-2.5559,-2.5503,-2.5453,-2.5453,-2.5401,-2.5352,-2.5357,-2.5326,-2.5308,-2.5308,-2.5308,-2.5308,-2.5308,-2.5308,-2.5308,-2.5308,-2.5308,-2.5269,-2.4889,-2.4981,-2.5192,-3.7038,-3.6788,-3.6481,-3.5808,-3.5577,-3.55,-3.55,-3.55,-3.55,-3.55,-3.55,-3.5173,-3.4302,-3.3545,-3.2718,-3.1775,-3.1698,-3.1327,-3.0462,-2.8832,-2.7895,-2.7895,-2.6231,-2.5308,-2.5308,-2.5308,-2.5308,-2.5308,-2.5308,-2.5308,-2.5308,-2.5308,-2.5308,-2.5308,-2.5308,-2.5308,-2.5308,-2.5308,-2.5308,-2.5308,-2.5308,-2.5308,-2.5308,-2.5308,-2.5308,-2.5308,-2.5308,-2.5308,-2.5308,-2.5308,-2.5308,-2.5308,-2.5308,-2.5308,-2.5308,-2.5308,-2.5308,-2.5308,-2.5308,-2.5308,-2.5308,-2.5308,-2.5308,-2.5308,-2.5308,-2.5308,-2.5308,-2.5308,-2.5308,-2.5308,-2.5308,-2.5308,-2.5308,-2.5308,-2.5352,-2.5383,-2.5409,0.0,-2.5456,-2.5406,-2.5441,-2.5459,-2.5397,-2.5503,-2.5595,-2.5601,-2.5661,0.0,0.0,-2.5703,-2.5703,-2.5703,-2.5703,-2.5703,-2.5703,-2.5637,-2.5572,-2.5524,-2.5524,-2.5488,-2.5424,-2.5431,-2.5376,-2.5317,-2.5336,-2.5317,-2.5317,-2.5317,-2.5317,-2.5317,-2.5293,-2.5308,-2.5212,-2.4529,-2.4716,-2.5096,-3.7759,-3.7219,-3.6654,-3.6538,-3.5942,-3.55,-3.55,-3.55,-3.55,-3.55,-3.55,-3.5173,-3.4302,-3.409,-3.3372,-3.1833,-3.1698,-3.1327,-3.0462,-2.8832,-2.7895,-2.7895,-2.6231,-2.5308,-2.5308,-2.5308,-2.5308,-2.5308,-2.5308,-2.5308,-2.5308,-2.5308,-2.5308,-2.5308,-2.5308,-2.5308,-2.5308,-2.5308,-2.5308,-2.5308,-2.5308,-2.5308,-2.5308,-2.5308,-2.5308,-2.5308,-2.5308,-2.5308,-2.5308,-2.5308,-2.5308,-2.5308,-2.5308,-2.5308,-2.5308,-2.5308,-2.5308,-2.5308,-2.5308,-2.5308,-2.5308,-2.5308,-2.5308,-2.5308,-2.5308,-2.5308,-2.5308,-2.5308,-2.5308,-2.5308,-2.5308,-2.5308,-2.5308,-2.5308,-2.5303,-2.5335,0.0,0.0,-2.5357,-2.5391,-2.5354,-2.5342,-2.5406,-2.546,-2.5545,-2.5599,-2.5661,-2.5703,-2.5703,-2.5703,-2.5703,-2.5703,-2.5703,-2.5703,-2.5703,-2.5683,-2.5658,-2.5573,-2.5573,-2.5551,-2.5473,-2.5476,-2.5453,-2.5391,-2.545,-2.5434,-2.5376,-2.5383,-2.5387,-2.5376,-2.5312,-2.5308,-2.5288,-2.5154,-2.5192,-2.5269,-3.8499,-3.7867,-3.7221,-3.6599,-3.5947,-3.55,-3.55,-3.55,-3.55,-3.55,-3.5084,-3.4834,-3.4891,-3.368,-3.2718,-3.2372,-3.1519,-3.0827,-3.0423,-2.9236,-2.8549,-2.8549,-2.7351,-2.6486,-2.6,-2.5538,-2.5308,-2.5308,-2.5308,-2.5308,-2.5308,-2.5308,-2.5308,-2.5308,-2.5308,-2.5308,-2.5308,-2.5308,-2.5308,-2.5308,-2.5308,-2.5308,-2.5308,-2.5308,-2.5308,-2.5308,-2.5308,-2.5308,-2.5308,-2.5308,-2.5308,-2.5308,-2.5308,-2.5308,-2.5308,-2.5308,-2.5308,-2.5308,-2.5308,-2.5308,-2.5308,-2.5308,-2.5308,-2.5308,-2.5308,-2.5308,-2.5308,-2.5308,-2.5308,-2.5308,-2.5308,-2.5308,-2.5308,-2.5308,-2.533,0.0,0.0,-2.5368,-2.5371,-2.5395,-2.5344,-2.5313,-2.5333,-2.5417,-2.5465,-2.5495,-2.5594,-2.5657,-2.5657,-2.5683,-2.5703,-2.5703,-2.5703,-2.5703,-2.5703,-2.5703,-2.5683,-2.5659,-2.5659,-2.5629,-2.5554,-2.5554,-2.5526,-2.5465,-2.5498,-2.5473,-2.5456,-2.544,-2.5443,-2.5398,-2.4904,-2.4709,-2.4585,-2.3644,-2.3601,-2.3921,-3.8928,-3.8129,-3.7245,-3.6358,-3.575,-3.5417,-3.5417,-3.5453,-3.55,-3.55,-3.493,-3.4603,-3.4865,-3.316,-3.2064,-3.2295,-3.1135,-3.0404,-3.0404,-2.9775,-2.9223,-2.8838,-2.7832,-2.6986,-2.6308,-2.5635,-2.5308,-2.5308,-2.5259,-2.5259,-2.5303,-2.5222,-2.5228,-2.5303,-2.5259,-2.5259,-2.5308,-2.5308,-2.5308,-2.5308,-2.5308,-2.5308,-2.5308,-2.5308,-2.5308,-2.5284,-2.5253,-2.5224,-2.5238,-2.5187,-2.5176,-2.5176,-2.5176,-2.5217,-2.5224,-2.5224,-2.5264,-2.5308,-2.5308,-2.5308,-2.5308,-2.5308,-2.5308,-2.5308,-2.5308,-2.5308,-2.5308,-2.5308,-2.5308,-2.5308,-2.5308,-2.5308,-2.5308,-2.5308,0.0,0.0,0.0,-2.5376,-2.5372,-2.5383,-2.5326,-2.5308,-2.5308,-2.5367,-2.5409,-2.5402,-2.5517,-2.5573,-2.5601,-2.5634,-2.5661,-2.5682,-2.5683,-2.5703,-2.5703,-2.5703,-2.5703,-2.5703,-2.5703,-2.5662,-2.5611,-2.5611,-2.5594,-2.5513,-2.5545,-2.5543,-2.5511,-2.5511,-2.5511,-2.5453,-2.4771,-2.4372,-2.4037,-2.2702,-2.2491,-2.2791,-3.8785,-3.7357,-3.6022,-3.5945,-3.5495,-3.5122,-3.5122,-3.5346,-3.55,-3.55,-3.5442,-3.4808,-3.3256,-3.2929,-3.2218,-3.0712,-3.0462,-3.0404,-3.0404,-3.0346,-2.9615,-2.8068,-2.6385,-2.5462,-2.5404,-2.5327,-2.5308,-2.5308,-2.5111,-2.5111,-2.5284,-2.4975,-2.4993,-2.5284,-2.5105,-2.5135,-2.5308,-2.5308,-2.5308,-2.5308,-2.5308,-2.5308,-2.5308,-2.5308,-2.5308,-2.5274,-2.5094,-2.5022,-2.4998,-2.4883,-2.484,-2.484,-2.484,-2.4917,-2.5022,-2.5022,-2.5157,-2.5308,-2.5308,-2.5308,-2.5308,-2.5308,-2.5308,-2.5308,-2.5308,-2.5308,-2.5308,-2.5308,-2.5308,-2.5308,-2.5308,-2.5308,-2.5308,-2.5308,0.0,0.0,-2.5303,-2.5303,-2.5303,-2.5303,-2.5293,-2.5308,-2.5308,-2.5367,-2.539,-2.539,-2.5477,-2.5522,-2.5599,-2.5549,-2.5547,-2.5604,-2.5661,-2.5703,-2.5703,-2.5703,-2.5703,-2.5703,-2.5703,-2.5703,-2.5683,-2.5683,-2.566,-2.5599,-2.566,-2.5658,-2.5598,-2.5598,-2.5598,-2.5575,-2.5455,-2.4902,-2.4178,-2.4056,-2.3548,-2.2894,-3.8228,-3.78,-3.7175,-3.6511,-3.6089,-3.5678,-3.5172,-3.486,-3.4699,-3.4699,-3.3795,-3.3083,-3.2929,-3.1968,-3.1308,-3.1212,-3.0712,-3.0404,-3.0404,-2.989,-2.9313,-2.8665,-2.7005,-2.6115,-2.6115,-2.5577,-2.5248,-2.5111,-2.5034,-2.5005,-2.4994,-2.4867,-2.4916,-2.5105,-2.5034,-2.5105,-2.5308,-2.5308,-2.5308,-2.5298,-2.5163,-2.5111,-2.5099,-2.5018,-2.5,-2.4975,-2.4891,-2.4889,-2.4876,-2.4825,-2.4804,-2.4804,-2.4804,-2.4828,-2.4891,-2.498,-2.5146,-2.5308,-2.5308,-2.5308,-2.5308,-2.5308,-2.5308,-2.5308,-2.5308,-2.5308,-2.5442,-2.5981,-2.6115,-2.6269,-2.6813,-2.6909,-2.6909,-2.6909,0.0,-2.6288,-2.6832,-2.5981,-2.55,-2.6038,-2.5635,-2.5308,-2.5308,-2.5818,-2.5922,-2.5382,-2.6409,-2.6589,-2.5538,-2.5481,-2.5503,-2.5543,-2.5603,-2.566,-2.5703,-2.5703,-2.5703,-2.5703,-2.5703,-2.5703,-2.5703,-2.5703,-2.5683,-2.5661,-2.5683,-2.5683,-2.5661,-2.5661,-2.5661,-2.5543,-2.4442,-2.3833,-2.3439,-2.2261,-2.1636,-2.1349,-3.7782,-3.7356,-3.6721,-3.6257,-3.5874,-3.5447,-3.4889,-3.4394,-3.4079,-3.4079,-3.2916,-3.2199,-3.2487,-3.15,-3.0905,-3.1143,-3.0618,-3.0248,-3.0169,-2.9123,-2.8427,-2.8232,-2.7061,-2.6285,-2.6048,-2.5449,-2.5072,-2.4949,-2.4872,-2.483,-2.4797,-2.467,-2.4745,-2.5004,-2.4955,-2.5059,-2.5308,-2.5308,-2.5264,-2.5179,-2.5065,-2.4974,-2.4936,-2.4835,-2.4804,-2.479,-2.4731,-2.4708,-2.4693,-2.4631,-2.4607,-2.4607,-2.4607,-2.4654,-2.4741,-2.4943,-2.5065,-2.5149,-2.5198,-2.5176,-2.516,-2.5269,-2.5259,-2.5219,-2.5298,-2.5519,-2.5885,-2.6486,-2.6813,-2.7198,-2.7799,-2.7832,-2.7796,-2.7885,-2.7328,-2.7119,-2.7808,-2.6871,-2.6231,-2.6563,-2.6077,-2.5596,-2.5327,-2.6096,-2.6346,-2.575,-2.7103,-2.7453,-2.6256,-2.6013,-2.5904,-2.5882,-2.5944,-2.6009,-2.6072,-2.584,-2.5703,-2.5703,-2.5703,-2.5703,-2.5703,-2.5703,-2.5703,-2.5703,-2.5703,-2.5703,-2.5703,-2.5703,-2.5703,-2.5586,-2.4375,-2.3789,-2.3418,-2.2129,-2.1297,-2.0791,-3.75,-3.5695,-3.4082,-3.4857,-3.4561,-3.4218,-3.42,-3.397,-3.3808,-3.3808,-3.3276,-3.2583,-3.1769,-3.1692,-3.1245,-3.0097,-2.9999,-2.9916,-2.9722,-2.8139,-2.6949,-2.6346,-2.6105,-2.5616,-2.4816,-2.4804,-2.4797,-2.4797,-2.4591,-2.4599,-2.479,-2.4393,-2.4483,-2.4998,-2.4862,-2.4975,-2.5303,-2.5303,-2.5173,-2.5004,-2.5004,-2.4923,-2.4797,-2.4797,-2.4797,-2.4768,-2.4559,-2.4503,-2.4461,-2.4275,-2.419,-2.419,-2.419,-2.4348,-2.4567,-2.4904,-2.4904,-2.4821,-2.4962,-2.4904,-2.4888,-2.5217,-2.5165,-2.5065,-2.5273,-2.5976,-2.6615,-2.6615,-2.7294,-2.7909,-2.7909,-2.7694,-2.7593,-2.7863,-2.7694,-2.7599,-2.7887,-2.7909,-2.7582,-2.6717,-2.6621,-2.6269,-2.5404,-2.6115,-2.6621,-2.6621,-2.7409,-2.7895,-2.7915,-2.721,-2.6783,-2.6715,-2.6777,-2.6836,-2.691,-2.6111,-2.5723,-2.5703,-2.5703,-2.5703,-2.5703,-2.5703,-2.5703,-2.5703,-2.5703,-2.5703,-2.5703,-2.5703,-2.5703,-2.5703,-2.5684,-2.5156,-2.4394,-2.4394,-2.3249,-2.1702,-3.5745,-3.5708,-3.544,-3.5059,-3.506,-3.4907,-3.4293,-3.397,-3.3722,-3.3544,-3.2988,-3.232,-3.151,-3.1248,-3.0839,-3.0075,-2.9869,-2.9754,-2.9705,-2.9092,-2.839,-2.7599,-2.6026,-2.5054,-2.4804,-2.4804,-2.4731,-2.4583,-2.4537,-2.4452,-2.4375,-2.4266,-2.4366,-2.4659,-2.4615,-2.4773,-2.5082,-2.4993,-2.4962,-2.4986,-2.4733,-2.462,-2.4567,-2.4426,-2.4375,-2.4366,-2.4312,-2.4284,-2.4275,-2.4218,-2.419,-2.419,-2.419,-2.4348,-2.4528,-2.462,-2.4719,-2.4924,-2.5546,-2.5581,-2.5485,-2.5738,-2.574,-2.5863,-2.6494,-2.683,-2.7179,-2.7755,-2.8066,-2.8434,-2.9061,-2.9101,-2.9077,-2.914,-2.8589,-2.8431,-2.9261,-2.8364,-2.7802,-2.8302,-2.7852,-2.7409,-2.7159,-2.7871,-2.8126,-2.7544,-2.7761,-2.8145,-2.8703,-2.8,-2.7561,-2.7542,-2.7612,-2.7658,-2.767,-2.753,-2.7161,-2.6602,-2.6602,-2.6289,-2.5703,-2.5703,-2.5703,-2.5703,-2.5703,-2.5703,-2.5703,-2.5703,-2.5703,-2.5644,-2.5039,-2.4629,-2.4336,-2.3706,-2.2757,-2.1762,-3.5371,-3.5404,-3.5257,-3.5041,-3.49,-3.4654,-3.4117,-3.3722,-3.343,-3.3266,-3.2723,-3.2157,-3.1674,-3.1201,-3.0723,-3.0275,-2.9739,-2.9426,-2.9426,-2.9006,-2.8534,-2.7997,-2.6404,-2.5364,-2.5037,-2.4719,-2.4503,-2.4384,-2.4384,-2.4321,-2.419,-2.419,-2.4312,-2.4503,-2.4503,-2.4659,-2.4923,-2.4828,-2.4806,-2.4783,-2.4572,-2.4444,-2.4366,-2.4256,-2.419,-2.419,-2.419,-2.419,-2.419,-2.419,-2.441,-2.4622,-2.43,-2.4718,-2.5273,-2.5038,-2.5229,-2.5634,-2.6189,-2.6218,-2.6162,-2.6609,-2.6539,-2.6493,-2.7075,-2.7457,-2.7805,-2.8292,-2.8678,-2.9074,-2.961,-2.9625,-2.9616,-2.9687,-2.9183,-2.9059,-2.9777,-2.9071,-2.8611,-2.8938,-2.8626,-2.8261,-2.7934,-2.8626,-2.905,-2.8909,-2.889,-2.9102,-2.9583,-2.8838,-2.8376,-2.8376,-2.841,-2.8293,-2.7996,-2.8401,-2.8055,-2.6967,-2.6571,-2.6143,-2.566,-2.5634,-2.563,-2.561,-2.5658,-2.566,-2.5661,-2.5683,-2.5703,-2.5644,-2.5117,-2.4902,-2.4844,-2.4313,-2.3369,-2.2304,-3.5881,-3.4945,-3.4119,-3.4784,-3.4302,-3.3807,-3.3807,-3.3401,-3.3099,-3.3064,-3.2612,-3.2249,-3.2193,-3.1431,-3.0855,-3.0623,-2.9629,-2.9005,-2.9005,-2.8319,-2.7908,-2.7908,-2.7145,-2.6355,-2.5631,-2.4768,-2.43,-2.43,-2.4245,-2.419,-2.419,-2.419,-2.4294,-2.4469,-2.4469,-2.4575,-2.4775,-2.4753,-2.4647,-2.4503,-2.4478,-2.4357,-2.419,-2.419,-2.419,-2.419,-2.419,-2.419,-2.4208,-2.4281,-2.4787,-2.5283,-2.4612,-2.5419,-2.6489,-2.5931,-2.6178,-2.6654,-2.6905,-2.6861,-2.6906,-2.7714,-2.7553,-2.7214,-2.7348,-2.7934,-2.8459,-2.8459,-2.9088,-2.9662,-2.9728,-2.9587,-2.9517,-2.971,-2.9596,-2.9519,-2.9653,-2.9829,-2.9669,-2.8967,-2.906,-2.8893,-2.8162,-2.8769,-2.9544,-3.0346,-3.0404,-3.0404,-3.0404,-2.964,-2.9184,-2.9107,-2.9107,-2.8747,-2.7996,-2.8631,-2.8275,-2.6879,-2.6022,-2.5617,-2.5595,-2.5535,-2.5491,-2.5493,-2.5563,-2.5598,-2.5603,-2.5661,-2.5683,-2.5703,-2.5703,-2.5703,-2.5684,-2.5605,-2.4529,-2.3071,-3.5206,-3.4986,-3.4601,-3.4137,-3.3917,-3.3807,-3.3807,-3.3889,-3.3851,-3.3644,-3.369,-3.3504,-3.2866,-3.1904,-3.1094,-3.0629,-2.9629,-2.9005,-2.9005,-2.884,-2.873,-2.873,-2.797,-2.7457,-2.7284,-2.587,-2.5136,-2.5136,-2.4511,-2.419,-2.419,-2.419,-2.4218,-2.4275,-2.4275,-2.4375,-2.4543,-2.4401,-2.4401,-2.4486,-2.4339,-2.4247,-2.419,-2.419,-2.419,-2.419,-2.419,-2.419,-2.43,-2.4934,-2.5264,-2.5485,-2.5933,-2.6319,-2.6557,-2.6436,-2.6507,-2.6751,-2.7411,-2.7573,-2.7732,-2.8528,-2.9125,-2.9329,-2.8739,-2.8732,-2.8872,-2.8872,-2.903,-2.9344,-2.9972,-3.0056,-3.0033,-3.0072,-3.0056,-2.9891,-2.9527,-2.9504,-2.9514,-2.9511,-2.968,-2.9739,-2.9567,-2.9889,-3.0192,-3.0385,-3.0404,-3.0404,-3.0404,-3.0212,-2.9813,-2.9127,-2.9107,-2.872,-2.7923,-2.7417,-2.7059,-2.6821,-2.6615,-2.6164,-2.5509,-2.5517,-2.5491,-2.5491,-2.5524,-2.5552,-2.5602,-2.5628,-2.5658,-2.5703,-2.5703,-2.5703,-2.5625,-2.4922,-2.4004,-2.2908,-3.4417,-3.4417,-3.4289,-3.3862,-3.3807,-3.3807,-3.3807,-3.3928,-3.3961,-3.3815,-3.391,-3.3845,-3.3432,-3.2538,-3.1703,-3.1041,-3.012,-2.9574,-2.9574,-2.9207,-2.9005,-2.9005,-2.8601,-2.8374,-2.8374,-2.7163,-2.6164,-2.5393,-2.497,-2.4768,-2.4768,-2.4373,-2.4392,-2.4768,-2.4373,-2.4266,-2.4348,-2.4247,-2.4247,-2.4339,-2.4247,-2.419,-2.419,-2.419,-2.419,-2.419,-2.419,-2.4456,-2.4842,-2.5264,-2.5907,-2.6549,-2.6594,-2.7134,-2.7666,-2.7291,-2.7438,-2.7831,-2.8264,-2.8374,-2.8576,-2.9372,-2.9886,-2.9989,-2.9189,-2.9299,-2.9574,-2.9574,-2.9262,-2.9354,-3.0558,-3.0467,-3.0338,-3.0705,-3.0448,-3.0092,-2.981,-2.9561,-2.9434,-2.9533,-2.972,-2.9861,-2.9861,-2.9973,-3.0114,-3.0202,-3.0209,-3.026,-3.0398,-3.0404,-3.0192,-2.9737,-2.9319,-2.8703,-2.7915,-2.7044,-2.6424,-2.6082,-2.6082,-2.5851,-2.5459,-2.5415,-2.5394,-2.5413,-2.5438,-2.5477,-2.5513,-2.5543,-2.5567,-2.5605,-2.5636,-2.5405,-2.4976,-2.455,-2.3613,-2.2344,-3.4009,-3.4009,-3.3972,-3.3825,-3.3807,-3.3807,-3.3807,-3.3807,-3.3807,-3.3807,-3.3807,-3.3807,-3.3807,-3.2963,-3.2137,-3.147,-3.065,-3.0265,-3.0393,-2.9647,-2.9207,-2.9207,-2.9078,-2.9005,-2.9005,-2.8356,-2.7284,-2.5815,-2.5668,-2.5521,-2.5393,-2.486,-2.4897,-2.5374,-2.486,-2.452,-2.442,-2.442,-2.4318,-2.419,-2.419,-2.419,-2.419,-2.419,-2.419,-2.419,-2.4141,-2.4626,-2.5369,-2.5695,-2.6696,-2.7714,-2.7181,-2.7923,-2.8877,-2.8209,-2.8576,-2.9207,-2.9207,-2.9317,-2.9574,-3.0246,-3.0503,-3.0411,-2.9592,-2.9934,-3.0411,-3.0411,-2.9879,-2.9849,-3.1329,-3.1054,-3.0779,-3.1323,-3.0834,-3.032,-3.0026,-2.9606,-2.933,-2.933,-2.9514,-2.9661,-2.9696,-2.9705,-2.9763,-2.9939,-2.9954,-3.0047,-3.0273,-3.028,-3.0203,-3.0049,-2.9365,-2.8539,-2.7621,-2.7039,-2.6263,-2.5308,-2.5442,-2.5461,-2.5379,-2.534,-2.5308,-2.5293,-2.5354,-2.5383,-2.5406,-2.5465,-2.5481,-2.5515,-2.5559,-2.5143,-2.4482,-2.4254,-2.3105,-2.1562,-3.4839,-3.4839,-3.4619,-3.3917,-3.3807,-3.3807,-3.3807,-3.3807,-3.3807,-3.3807,-3.3807,-3.3807,-3.3807,-3.2449,-3.1525,-3.1415,-3.065,-3.0503,-3.1195,-3.0485,-3.0044,-3.0044,-2.9372,-2.9005,-2.9005,-2.8895,-2.8393,-2.7486,-2.6778,-2.608,-2.5411,-2.6007,-2.5952,-2.5429,-2.6007,-2.5897,-2.5246,-2.5246,-2.4842,-2.419,-2.419,-2.419,-2.419,-2.419,-2.419,-2.4161,-2.3876,-2.4281,-2.523,-2.6904,-2.7633,-2.7897,-2.8491,-2.8822,-2.8987,-2.8877,-2.9409,-3.0044,-3.0044,-3.0558,-3.1103,-3.1213,-3.1751,-3.2051,-3.1256,-3.1158,-3.125,-3.125,-3.1146,-3.1347,-3.2271,-3.2344,-3.2069,-3.1507,-3.1323,-3.0742,-2.9354,-2.9095,-2.9044,-2.9044,-2.9289,-2.9513,-2.9687,-2.9705,-2.9713,-2.9748,-2.9748,-2.9765,-2.979,-2.9799,-2.945,-2.8693,-2.8561,-2.7835,-2.6448,-2.7071,-2.6687,-2.5308,-2.6058,-2.6029,-2.5313,-2.5293,-2.5308,-2.5308,-2.5303,-2.5357,-2.539,-2.5404,-2.5453,-2.5491,-2.55,-2.5444,-2.5178,-2.3797,-2.219,-2.0672,-3.4325,-3.4325,-3.4229,-3.3862,-3.3807,-3.3807,-3.3807,-3.3807,-3.3807,-3.3807,-3.3807,-3.3807,-3.3807,-3.3164,-3.2742,-3.2742,-3.2008,-3.1696,-3.2045,-3.1311,-3.0668,-3.0228,-2.9849,-2.9464,-2.9005,-2.9005,-2.8822,-2.8473,-2.7207,-2.6429,-2.6062,-2.5511,-2.5309,-2.5411,-2.5778,-2.5485,-2.4768,-2.5209,-2.4934,-2.419,-2.419,-2.419,-2.419,-2.419,-2.4084,-2.3961,-2.427,-2.5154,-2.6356,-2.7442,-2.8099,-2.8528,-2.8895,-2.9005,-2.897,-2.8737,-2.8924,-2.9232,-2.9458,-2.9796,-3.0264,-3.1132,-3.1811,-3.2232,-3.2039,-3.2224,-3.2338,-3.2117,-3.1715,-3.177,-3.3036,-3.2894,-3.2619,-3.2724,-3.2003,-3.1146,-3.0448,-2.9574,-2.9005,-2.9005,-2.91,-2.9214,-2.9304,-2.9314,-2.9375,-2.9523,-2.9542,-2.9579,-2.9696,-2.9705,-2.9516,-2.913,-2.8659,-2.8088,-2.743,-2.7354,-2.6781,-2.571,-2.6167,-2.6006,-2.5308,-2.5308,-2.5308,-2.5308,-2.5308,-2.5322,-2.5337,-2.5337,-2.5363,-2.5391,-2.5425,-2.4888,-2.3956,-2.2767,-2.1528,-2.0443]},{"header":{"parameterUnit":"m.s-1","parameterCategory":1,"la1":30.6,"la2":28.766,"lo1":-90.7593,"lo2":-88.6598,"dy":0.0162,"dx":0.0183,"nx":116,"ny":114,"refTime":"2023-08-01T00:00:00:Z","depth":0,"parameterNumber":3,"parameterNumberName":"V-component_of_WINDS"},"data":[0.0,0.0,0.0,0.0,0.0,0.0,0.0,0.0,0.0,0.0,0.0,0.0,0.0,0.0,0.0,0.0,0.0,0.0,0.0,0.0,0.0,0.0,0.0,0.0,0.0,0.0,0.0,0.0,0.0,0.0,0.0,0.0,0.0,0.0,0.0,0.0,0.0,0.0,0.0,0.0,0.0,0.0,0.0,0.0,0.0,0.0,0.0,0.0,0.0,0.0,0.0,0.0,0.0,0.0,0.0,0.0,0.0,0.0,0.0,0.0,0.0,0.0,0.0,0.0,0.0,0.0,0.0,0.0,0.0,0.0,0.0,0.0,0.0,0.0,0.0,0.0,0.0,0.0,0.0,0.0,0.0,0.0,0.0,0.0,0.0,0.0,0.0,0.0,0.0,0.0,0.0,0.0,0.0,0.0,0.0,0.0,0.0,0.0,0.0,0.0,0.0,0.0,0.0,0.0,0.0,0.0,0.0,0.0,0.0,0.0,0.0,0.0,0.0,0.0,0.0,0.0,0.0,0.0,0.0,0.0,0.0,0.0,0.0,0.0,0.0,0.0,0.0,0.0,0.0,0.0,0.0,0.0,0.0,0.0,0.0,0.0,0.0,0.0,0.0,0.0,0.0,0.0,0.0,0.0,0.0,0.0,0.0,0.0,0.0,0.0,0.0,0.0,0.0,0.0,0.0,0.0,0.0,0.0,0.0,0.0,0.0,0.0,0.0,0.0,0.0,0.0,0.0,0.0,0.0,0.0,0.0,0.0,0.0,0.0,0.0,0.0,0.0,0.0,0.0,0.0,0.0,0.0,0.0,0.0,0.0,0.0,0.0,0.0,0.0,0.0,0.0,0.0,0.0,0.0,0.0,0.0,0.0,0.0,0.0,0.0,0.0,0.0,0.0,0.0,0.0,0.0,0.0,0.0,0.0,0.0,0.0,0.0,0.0,0.0,0.0,0.0,0.0,0.0,0.0,0.0,0.0,0.0,0.0,0.0,0.0,0.0,0.0,0.0,0.0,0.0,0.0,0.0,0.0,0.0,0.0,0.0,0.0,0.0,0.0,0.0,0.0,0.0,0.0,0.0,0.0,0.0,0.0,0.0,0.0,0.0,0.0,0.0,0.0,0.0,0.0,0.0,0.0,0.0,0.0,0.0,0.0,0.0,0.0,0.0,0.0,0.0,0.0,0.0,0.0,0.0,0.0,0.0,0.0,0.0,0.0,0.0,0.0,0.0,0.0,0.0,0.0,0.0,0.0,0.0,0.0,0.0,0.0,0.0,0.0,0.0,0.0,0.0,0.0,0.0,0.0,0.0,0.0,0.0,0.0,0.0,0.0,0.0,0.0,0.0,0.0,0.0,0.0,0.0,0.0,0.0,0.0,0.0,0.0,0.0,0.0,0.0,0.0,0.0,0.0,0.0,0.0,0.0,0.0,0.0,0.0,0.0,0.0,0.0,0.0,0.0,0.0,0.0,0.0,0.0,0.0,0.0,0.0,0.0,0.0,0.0,0.0,0.0,0.0,0.0,0.0,0.0,0.0,0.0,0.0,0.0,0.0,0.0,0.0,0.0,0.0,0.0,0.0,0.0,0.0,0.0,0.0,0.0,0.0,0.0,0.0,0.0,0.0,0.0,0.0,0.0,0.0,0.0,0.0,0.0,0.0,0.0,0.0,0.0,0.0,0.0,0.0,0.0,0.0,0.0,0.0,0.0,0.0,0.0,0.0,0.0,0.0,0.0,0.0,0.0,0.0,0.0,0.0,0.0,0.0,0.0,0.0,0.0,0.0,0.0,0.0,0.0,0.0,0.0,0.0,0.0,0.0,0.0,0.0,0.0,0.0,0.0,0.0,0.0,0.0,0.0,0.0,0.0,0.0,0.0,0.0,0.0,0.0,0.0,0.0,0.0,0.0,0.0,0.0,0.0,0.0,0.0,0.0,0.0,0.0,0.0,0.0,0.0,0.0,0.0,0.0,0.0,0.0,0.0,0.0,0.0,0.0,0.0,0.0,0.0,0.0,0.0,0.0,0.0,0.0,0.0,0.0,0.0,0.0,0.0,0.0,0.0,0.0,0.0,0.0,0.0,0.0,0.0,0.0,0.0,0.0,0.0,0.0,0.0,0.0,0.0,0.0,0.0,0.0,0.0,0.0,0.0,0.0,0.0,0.0,0.0,0.0,0.0,0.0,0.0,0.0,0.0,0.0,0.0,0.0,0.0,0.0,0.0,0.0,0.0,0.0,0.0,0.0,0.0,0.0,0.0,0.0,0.0,0.0,0.0,0.0,0.0,0.0,0.0,0.0,0.0,0.0,0.0,0.0,0.0,0.0,0.0,0.0,0.0,0.0,0.0,0.0,0.0,0.0,0.0,0.0,0.0,0.0,0.0,0.0,0.0,0.0,0.0,0.0,0.0,0.0,0.0,0.0,0.0,0.0,0.0,0.0,0.0,0.0,0.0,0.0,0.0,0.0,0.0,0.0,0.0,0.0,0.0,0.0,0.0,0.0,0.0,0.0,0.0,0.0,0.0,0.0,0.0,0.0,0.0,0.0,0.0,0.0,0.0,0.0,0.0,0.0,0.0,0.0,0.0,0.0,0.0,0.0,0.0,0.0,0.0,0.0,0.0,0.0,0.0,0.0,0.0,0.0,0.0,0.0,0.0,0.0,0.0,0.0,0.0,0.0,0.0,0.0,0.0,0.0,0.0,0.0,0.0,0.0,0.0,0.0,0.0,0.0,0.0,0.0,0.0,0.0,0.0,0.0,0.0,0.0,0.0,0.0,0.0,0.0,0.0,0.0,0.0,0.0,0.0,0.0,0.0,0.0,0.0,0.0,0.0,0.0,0.0,0.0,0.0,0.0,0.0,0.0,0.0,0.0,0.0,0.0,0.0,0.0,0.0,0.0,0.0,0.0,0.0,0.0,0.0,0.0,0.0,0.0,0.0,0.0,0.0,0.0,0.0,0.0,0.0,0.0,0.0,0.0,0.0,0.0,0.0,0.0,0.0,0.0,0.0,0.0,0.0,0.0,0.0,0.0,0.0,0.0,0.0,0.0,0.0,0.0,0.0,0.0,0.0,0.0,0.0,0.0,0.0,0.0,0.0,0.0,0.0,0.0,0.0,0.0,0.0,0.0,0.0,0.0,0.0,0.0,0.0,0.0,0.0,0.0,0.0,0.0,0.0,0.0,0.0,0.0,0.0,0.0,0.0,0.0,0.0,0.0,0.0,0.0,0.0,0.0,0.0,0.0,0.0,0.0,0.0,0.0,0.0,0.0,0.0,0.0,0.0,0.0,0.0,0.0,0.0,0.0,0.0,0.0,0.0,0.0,0.0,0.0,0.0,0.0,0.0,0.0,0.0,0.0,0.0,0.0,0.0,0.0,0.0,0.0,0.0,0.0,0.0,0.0,0.0,0.0,0.0,0.0,0.0,0.0,0.0,0.0,0.0,0.0,0.0,0.0,0.0,0.0,0.0,0.0,0.0,0.0,0.0,0.0,0.0,0.0,0.0,0.0,0.0,0.0,0.0,0.0,0.0,0.0,0.0,0.0,0.0,0.0,0.0,0.0,0.0,0.0,0.0,0.0,0.0,0.0,0.0,0.0,0.0,0.0,0.0,0.0,0.0,0.0,0.0,0.0,0.0,0.0,0.0,0.0,0.0,0.0,0.0,0.0,0.0,0.0,0.0,0.0,0.0,0.0,0.0,0.0,0.0,0.0,0.0,0.0,0.0,0.0,0.0,0.0,0.0,0.0,0.0,0.0,0.0,0.0,0.0,0.0,0.0,0.0,0.0,0.0,0.0,0.0,0.0,0.0,0.0,0.0,0.0,0.0,0.0,0.0,0.0,0.0,0.0,0.0,0.0,0.0,0.0,0.0,0.0,0.0,0.0,0.0,0.0,0.0,0.0,0.0,0.0,0.0,0.0,0.0,0.0,0.0,0.0,0.0,0.0,0.0,0.0,0.0,0.0,0.0,0.0,0.0,0.0,0.0,0.0,0.0,0.0,0.0,0.0,0.0,0.0,0.0,0.0,0.0,0.0,0.0,0.0,0.0,0.0,0.0,0.0,0.0,0.0,0.0,0.0,0.0,0.0,0.0,0.0,0.0,0.0,0.0,0.0,0.0,0.0,0.0,0.0,0.0,0.0,0.0,0.0,0.0,0.0,0.0,0.0,0.0,0.0,0.0,0.0,0.0,0.0,0.0,0.0,0.0,0.0,0.0,0.0,0.0,0.0,0.0,0.0,0.0,0.0,0.0,0.0,0.0,0.0,0.0,0.0,0.0,0.0,0.0,0.0,0.0,0.0,0.0,0.0,0.0,0.0,0.0,0.0,0.0,0.0,0.0,0.0,0.0,0.0,0.0,0.0,0.0,0.0,0.0,0.0,0.0,0.0,0.0,0.0,0.0,0.0,0.0,0.0,0.0,0.0,0.0,0.0,0.0,0.0,0.0,0.0,0.0,0.0,0.0,0.0,0.0,0.0,0.0,0.0,0.0,0.0,0.0,0.0,0.0,0.0,0.0,0.0,0.0,0.0,0.0,0.0,0.0,0.0,0.0,0.0,0.0,0.0,0.0,0.0,0.0,0.0,0.0,0.0,0.0,0.0,0.0,0.0,0.0,0.0,0.0,0.0,0.0,0.0,0.0,0.0,0.0,0.0,0.0,0.0,0.0,0.0,0.0,0.0,0.0,0.0,0.0,0.0,0.0,0.0,0.0,0.0,0.0,0.0,0.0,0.0,0.0,0.0,0.0,0.0,0.0,0.0,0.0,0.0,0.0,0.0,0.0,0.0,0.0,0.0,0.0,0.0,0.0,0.0,0.0,0.0,0.0,0.0,0.0,0.0,0.0,0.0,0.0,0.0,0.0,0.0,0.0,0.0,0.0,0.0,0.0,0.0,0.0,0.0,0.0,0.0,0.0,0.0,0.0,0.0,0.0,0.0,0.0,0.0,0.0,0.0,0.0,0.0,0.0,0.0,0.0,0.0,0.0,0.0,0.0,0.0,0.0,0.0,0.0,0.0,0.0,0.0,0.0,0.0,0.0,0.0,0.0,0.0,0.0,0.0,0.0,0.0,0.0,0.0,0.0,0.0,0.0,0.0,0.0,0.0,0.0,0.0,0.0,0.0,0.0,0.0,0.0,0.0,0.0,0.0,0.0,0.0,0.0,0.0,0.0,0.0,0.0,0.0,0.0,0.0,0.0,0.0,0.0,0.0,0.0,0.0,0.0,0.0,0.0,0.0,0.0,0.0,0.0,0.0,0.0,0.0,0.0,0.0,0.0,0.0,0.0,0.0,0.0,0.0,0.0,0.0,0.0,0.0,0.0,0.0,0.0,0.0,0.0,0.0,0.0,0.0,0.0,0.0,0.0,0.0,0.0,0.0,0.0,0.0,0.0,0.0,0.0,0.0,0.0,0.0,0.0,0.0,0.0,0.0,0.0,0.0,0.0,0.0,0.0,0.0,0.0,0.0,0.0,0.0,0.0,0.0,0.0,0.0,0.0,0.0,0.0,0.0,0.0,0.0,0.0,0.0,0.0,0.0,0.0,0.0,0.0,0.0,0.0,0.0,0.0,0.0,0.0,0.0,0.0,0.0,0.0,0.0,0.0,0.0,0.0,0.0,0.0,0.0,0.0,0.0,0.0,0.0,0.0,0.0,0.0,0.0,0.0,0.0,0.0,0.0,0.0,0.0,0.0,0.0,0.0,0.0,0.0,0.0,0.0,0.0,0.0,0.0,0.0,0.0,0.0,0.0,0.0,0.0,0.0,0.0,0.0,0.0,0.0,0.0,0.0,0.0,0.0,0.0,0.0,0.0,0.0,0.0,0.0,0.0,0.0,0.0,0.0,0.0,0.0,0.0,0.0,0.0,0.0,0.0,0.0,0.0,0.0,0.0,0.0,0.0,0.0,0.0,0.0,0.0,0.0,0.0,0.0,0.0,0.0,0.0,0.0,0.0,0.0,0.0,0.0,0.0,0.0,0.0,0.0,0.0,0.0,0.0,0.0,0.0,0.0,0.0,0.0,0.0,0.0,0.0,0.0,0.0,0.0,0.0,0.0,0.0,0.0,0.0,0.0,0.0,0.0,0.0,0.0,0.0,0.0,0.0,-2.0666,0.0,0.0,0.0,0.0,0.0,0.0,0.0,0.0,0.0,0.0,0.0,0.0,0.0,0.0,0.0,0.0,0.0,0.0,0.0,0.0,0.0,0.0,0.0,0.0,0.0,0.0,0.0,0.0,0.0,0.0,0.0,0.0,0.0,0.0,0.0,0.0,0.0,0.0,0.0,0.1881,0.1288,0.0871,0.1305,0.263,0.4718,0.0,0.0,0.0,0.0,0.0,0.0,0.0,0.0,0.0,0.0,0.0,0.0,0.0,0.0,0.0,0.0,0.0,0.0,0.0,0.0,0.0,0.0,0.0,0.0,0.0,0.0,0.0,0.0,0.0,0.0,0.0,0.0,0.0,0.0,0.0,0.0,0.0,0.0,0.0,0.0,0.0,0.0,0.0,0.0,0.0,0.0,0.0,0.0,0.0,0.0,0.0,0.0,0.0,0.0,0.0,0.0,0.0,0.0,0.0,0.0,0.0,0.0,0.0,0.0,0.0,0.0,0.0,0.0,0.0,0.0,0.0,-2.1343,0.0,0.0,0.0,0.0,0.0,0.0,0.0,0.0,0.0,0.0,0.0,0.0,0.0,0.0,0.0,0.0,0.0,0.0,0.0,0.0,0.0,0.0,0.0,0.0,0.0,0.0,0.0,0.0,0.0,0.0,0.0,0.0,0.0,0.0,0.0,0.2611,0.2542,0.2241,0.0462,-0.0676,-0.1217,-0.061,0.1263,0.4157,0.4488,0.0,0.0,0.0,0.0,0.0,0.0,0.0,0.0,0.0,0.0,0.0,0.0,0.0,0.0,0.0,0.0,0.0,0.0,0.0,0.0,0.0,0.0,0.0,0.0,0.0,0.0,0.0,0.0,0.0,0.0,0.0,0.0,0.0,0.0,0.0,0.0,0.0,0.0,0.0,0.0,0.0,0.0,0.0,0.0,0.0,0.0,0.0,0.0,0.0,0.0,0.0,0.0,0.0,0.0,0.0,0.0,0.0,0.0,0.0,0.0,0.0,0.0,0.0,0.0,0.0,-2.4031,-2.5932,-2.6285,-2.536,-2.4808,-2.3251,-2.1291,0.0,0.0,0.0,0.0,0.0,0.0,0.0,0.0,0.0,0.0,0.0,0.0,0.0,0.0,0.0,0.0,0.0,0.0,0.0,0.0,0.0,0.0,0.0,0.0,0.0,0.0,0.0,0.0,0.0,0.0,0.0,0.0,0.0,0.1473,0.2277,0.1939,0.0367,-0.1779,-0.2457,-0.1702,-0.1711,-0.0397,0.2092,0.3579,0.4422,0.4714,0.0,0.0,0.0,0.0,0.0,0.0,0.0,0.0,0.0,0.0,0.0,0.0,0.0,0.0,0.0,0.0,0.0,0.0,0.0,0.0,0.0,0.0,0.0,0.0,0.0,0.0,0.0,0.0,0.0,0.0,0.0,0.0,0.0,0.0,0.0,0.0,0.0,0.0,0.0,0.0,0.0,-0.8709,-0.9489,0.0,0.0,0.0,0.0,0.0,0.0,0.0,0.0,0.0,0.0,0.0,0.0,0.0,0.0,-2.0175,-2.0703,-2.1342,-2.2167,-2.4417,-2.5647,-2.5972,-2.7275,-2.7808,-2.7645,-2.7092,0.0,-2.2862,-2.382,0.0,0.0,0.0,0.0,0.0,0.0,0.0,0.0,0.0,0.0,0.0,0.0,0.0,0.0,0.0,0.0,0.0,0.0,0.0,0.0,0.0,0.0,0.0,0.0,0.0,0.0,0.0,0.0,0.0,0.0,0.0,0.1555,0.2075,0.1976,0.0713,-0.175,-0.3567,-0.4179,-0.366,-0.3122,-0.1745,0.0365,0.1831,0.2881,0.3623,0.3881,0.0,0.0,0.0,0.0,0.0,0.0,0.0,0.0,0.0,0.0,0.0,0.0,0.0,0.0,0.0,0.0,0.0,0.0,0.0,0.0,0.0,0.0,0.0,0.0,0.0,0.0,0.0,0.0,0.0,0.0,0.0,0.0,0.0,0.0,0.0,0.0,0.0,0.0,0.0,-0.8813,-1.0251,-1.0197,-1.0874,-1.1216,0.0,0.0,0.0,0.0,0.0,0.0,0.0,0.0,0.0,-1.8984,-1.9658,-2.0303,-2.0937,-2.1621,-2.2355,-2.3243,-2.5094,-2.6402,-2.7218,-2.812,-2.8848,-2.949,-2.8938,-2.7821,-2.6332,-2.6262,-2.5738,-2.5038,0.0,0.0,0.0,0.0,0.0,0.0,0.0,0.0,0.0,0.0,0.0,0.0,0.0,0.0,0.0,0.0,0.0,0.0,0.0,0.0,0.0,-0.609,0.0,0.0,0.0,0.0,0.0,0.0,0.0,0.1302,0.1997,0.076,-0.1149,-0.3734,-0.5208,-0.5695,-0.5277,-0.457,-0.3084,-0.1027,-0.0405,0.0843,0.2501,0.2715,0.2636,0.2414,0.0,0.0,0.0,0.0,0.0,0.0,0.0,0.0,0.0,0.0,0.0,0.0,0.0,0.0,0.0,0.0,0.0,0.0,0.0,0.0,0.0,0.0,0.0,0.0,0.0,0.0,0.0,0.0,0.0,0.0,0.0,0.0,0.0,0.0,0.0,0.0,0.0,-0.9606,-1.094,-1.0628,-1.1504,-1.1953,0.0,0.0,0.0,0.0,0.0,0.0,-1.8588,-1.9482,-2.0049,-2.0264,-2.1036,-2.1602,-2.1999,-2.2643,-2.3379,-2.4167,-2.5593,-2.701,-2.8287,-2.892,-2.9774,-3.0783,-3.0244,-2.9679,-2.9051,-2.8252,-2.7482,-2.6932,-2.7517,-2.7888,0.0,-2.8109,-2.8109,-2.8169,0.0,0.0,0.0,0.0,0.0,0.0,0.0,0.0,0.0,0.0,0.0,0.0,0.0,0.0,-0.725,-0.7403,-0.8131,-0.7871,0.0,0.0,0.0,-0.1305,-0.0393,0.01,0.014,-0.1986,-0.385,-0.5494,-0.6688,-0.6777,-0.5767,-0.5823,-0.4474,-0.1974,-0.309,-0.171,0.1439,0.2211,0.206,0.1436,0.2386,0.0,0.0,0.0,0.0,0.0,0.0,0.0,0.0,0.0,0.0,0.0,0.0,0.0,0.0,0.0,0.0,0.0,0.0,0.0,0.0,0.0,0.0,0.0,0.0,0.0,0.0,0.0,0.0,0.0,0.0,0.0,0.0,0.0,0.0,0.0,0.0,0.0,0.0,-1.0564,-1.1866,0.0,0.0,0.0,0.0,-1.5645,-1.7468,-1.9097,-2.041,-2.1319,-2.2119,-2.2877,-2.3389,-2.3828,-2.4258,-2.4297,-2.4551,-2.5047,-2.63,-2.771,-2.9363,-3.0024,-3.0701,-3.1323,-3.0796,-3.0256,-2.9693,-2.8611,-2.8352,-2.8636,-2.8236,-2.8646,-2.9502,-2.9502,-2.9502,-2.9427,0.0,0.0,0.0,0.0,0.0,0.0,0.0,0.0,0.0,0.0,0.0,0.0,0.0,-0.6792,-0.7711,-0.7918,-0.8248,-0.8094,-0.7284,0.0,-0.3046,-0.2236,-0.0786,-0.0387,-0.1279,-0.2821,-0.4347,-0.5855,-0.7084,-0.7516,-0.7208,-0.6385,-0.5478,-0.4538,-0.4012,-0.313,-0.1926,-0.0757,0.0,0.0552,0.1444,0.1463,0.0,0.0,0.0,0.0,0.0,0.0,0.0,0.0,0.0,0.0,0.0,0.0,0.0,0.0,0.0,0.0,0.0,0.0,0.0,0.0,0.0,0.0,0.0,0.0,0.0,0.0,0.0,0.0,0.0,0.0,0.0,0.0,0.0,0.0,0.0,0.0,0.0,-1.2488,-1.3548,0.0,0.0,-1.5501,-1.6879,-1.7425,-1.9743,-2.1595,-2.2607,-2.3203,-2.3779,-2.4365,-2.4258,-2.4394,-2.4834,-2.4834,-2.5059,-2.5498,-2.591,-2.6876,-2.824,-2.8556,-2.9266,-3.0216,-3.0127,-2.998,-2.978,-2.939,-2.9761,-3.0679,-3.1319,-3.1797,-3.2093,-3.2093,-3.2093,-3.2003,0.0,0.0,0.0,0.0,0.0,0.0,0.0,0.0,0.0,0.0,0.0,-0.6089,-0.5779,-0.6985,-0.8052,-0.8649,-0.8622,-0.8478,-0.8314,0.0,-0.3642,-0.3166,-0.1393,-0.0902,-0.192,-0.276,-0.4076,-0.5917,-0.6792,-0.7494,-0.7988,-0.7091,-0.6436,-0.5994,-0.5354,-0.4613,-0.3776,-0.3241,-0.2081,-0.0559,0.0034,0.0169,0.0138,0.0,0.0,0.0,0.0,0.0,0.0,0.0,0.0,0.0,0.0,0.0,0.0,0.0,0.0,0.0,0.0,0.0,0.0,0.0,0.0,0.0,0.0,0.0,0.0,0.0,0.0,0.0,0.0,0.0,0.0,0.0,0.0,0.0,0.0,0.0,-1.2744,-1.3763,-1.481,-1.541,-1.5264,-1.6944,-1.841,-1.929,-2.1626,-2.3532,-2.4639,-2.5068,-2.5361,-2.5508,-2.5234,-2.5146,-2.5293,-2.5293,-2.5439,-2.5693,-2.5693,-2.639,-2.7605,-2.7884,-2.8608,-2.9618,-2.9942,-2.9967,-2.9869,-3.0495,-3.1213,-3.2041,-3.2881,-3.3608,-3.4173,-3.4173,-3.4173,-3.4053,0.0,0.0,0.0,0.0,0.0,0.0,0.0,0.0,0.0,0.0,-0.5748,-0.5707,-0.5631,-0.6921,-0.8314,-0.9545,-0.9412,-0.9255,-0.9244,-0.6732,0.0,-0.4002,-0.2271,-0.1486,-0.1851,-0.1965,-0.3263,-0.5815,-0.5926,-0.6681,-0.7988,-0.7988,-0.7313,-0.6104,-0.714,-0.6224,-0.3974,-0.5024,-0.4078,-0.1889,-0.1827,-0.1104,0.0036,0.0,0.0,0.0,0.0,0.0,0.0,0.0,0.0,0.0,0.0,0.0,0.0,0.0,0.0,0.0,0.0,0.0,0.0,0.0,0.0,0.0,0.0,0.0,0.0,0.0,0.0,0.0,0.0,0.0,0.0,0.0,0.0,0.0,-0.9513,-1.0762,-1.2309,-1.4327,-1.5618,-1.6206,-1.5891,-1.7532,-1.9322,-2.1123,-2.3042,-2.479,-2.6376,-2.6816,-2.6846,-2.6435,-2.6396,-2.6182,-2.5713,-2.5693,-2.5693,-2.5693,-2.5693,-2.6332,-2.7547,-2.8247,-2.8904,-2.9564,-3.026,-3.0281,-2.9934,-3.1756,-3.2558,-3.2593,-3.2678,-3.3837,-3.5504,-3.5504,-3.5489,-3.528,0.0,0.0,0.0,0.0,0.0,0.0,0.0,0.0,0.0,0.0,-0.4628,-0.4694,-0.5642,-0.6989,-0.8014,-0.8571,-0.8234,-0.7996,-0.8013,0.0,-0.4035,-0.3587,-0.2231,-0.209,-0.3348,-0.2492,-0.3286,-0.5931,-0.5964,-0.6681,-0.7988,-0.7988,-0.7816,-0.7467,-0.7569,-0.7219,-0.6568,-0.6605,-0.5755,-0.4268,-0.2488,-0.1598,-0.1188,0.0,0.0,0.0,0.0,0.0,0.0,0.0,0.0,0.0,0.0,0.0,0.0,0.0,0.0,0.0,0.0,0.0,0.0,0.0,0.0,0.0,0.0,0.0,0.0,0.0,0.0,0.0,0.0,0.0,0.0,0.0,0.0,-0.7972,-1.032,-1.175,-1.354,-1.6146,-1.6901,-1.7361,-1.7722,-1.9088,-2.0626,-2.2182,-2.3992,-2.5721,-2.7253,-2.7422,-2.7483,-2.7366,-2.6709,-2.6328,-2.6211,-2.5849,-2.5693,-2.5693,-2.5693,-2.5749,-2.5832,-2.7284,-2.7893,-2.7877,-2.9361,-2.993,-2.983,-3.0355,-3.1378,-3.2749,-3.4158,-3.5034,-3.5504,-3.5504,-3.519,-3.4637,0.0,0.0,0.0,0.0,0.0,0.0,0.0,0.0,0.0,0.0,-0.3735,-0.4138,-0.5042,-0.6164,-0.7131,-0.7752,-0.7122,-0.6835,-0.7148,0.0,-0.4373,-0.3966,-0.2831,-0.2534,-0.3132,-0.1837,-0.2463,-0.5172,-0.5172,-0.6126,-0.7988,-0.7988,-0.7988,-0.7978,-0.7794,-0.7689,-0.7672,-0.7434,-0.6918,-0.6139,-0.4265,-0.3097,-0.2467,-0.1776,-0.0881,0.0,0.0,0.0665,0.1487,0.0953,0.0,0.0,0.0,0.0,0.0,0.0,0.0,0.0,0.0,0.0,0.0,0.0,0.0,0.0,0.0,0.0,0.0,0.0,0.0,0.0,0.0,0.0,0.0,0.0,-0.7476,-0.9042,-1.144,-1.2564,-1.4187,-1.7053,-1.7709,-1.815,-1.8624,-1.9369,-2.0773,-2.2969,-2.4156,-2.5649,-2.7814,-2.793,-2.7851,-2.7728,-2.7187,-2.6748,-2.6396,-2.6133,-2.5869,-2.5693,-2.5693,-2.5508,-2.5143,-2.6911,-2.7476,0.0,-2.9022,-2.9792,-2.983,-3.0203,-3.102,0.0,0.0,0.0,0.0,0.0,-3.525,-3.4816,0.0,0.0,0.0,0.0,0.0,0.0,0.0,0.0,0.0,0.0,0.0,-0.3779,-0.4123,-0.5002,-0.5962,-0.6966,-0.6122,-0.5825,0.0,-0.5974,-0.5427,-0.4964,-0.3778,-0.2839,-0.2249,-0.0744,-0.131,-0.4016,-0.4016,-0.537,-0.7988,-0.7988,-0.7988,-0.7982,-0.7879,-0.7811,-0.7801,-0.7658,-0.76,-0.7493,-0.642,-0.5138,-0.3798,-0.368,-0.2947,-0.1993,-0.1831,-0.1103,-0.0198,-0.0039,0.0,0.0,0.0,0.0,0.0,0.0,0.0,0.0,0.0,0.0,0.0,0.0,0.0,0.0,0.0,0.0,0.0,0.0,0.0,0.0,0.0,0.0,0.0,0.0,-0.8704,-1.0578,-1.2613,-1.3315,-1.4671,-1.7384,-1.819,-1.8651,-1.8945,-1.8978,-2.0295,-2.3574,-2.3822,-2.5105,-2.813,0.0,0.0,0.0,0.0,-2.7226,-2.6465,-2.6367,-2.6123,-2.5693,-2.5693,-2.5508,-2.5143,-2.6911,-2.7476,-2.7209,-2.9022,-2.9792,-2.9856,-3.0696,-3.118,-3.1462,-3.2393,-3.3871,-3.5504,-3.5504,-3.5504,0.0,0.0,0.0,0.0,0.0,0.0,0.0,0.0,0.0,0.0,-0.212,-0.2512,-0.303,-0.3799,-0.468,-0.5294,-0.5513,-0.533,-0.5312,-0.5636,-0.5731,-0.5958,-0.647,-0.4412,-0.3384,-0.3623,-0.1255,-0.131,-0.4016,-0.4016,-0.537,-0.7988,-0.7988,-0.7988,-0.7982,-0.7879,-0.7811,-0.7801,-0.7658,-0.76,-0.7597,-0.7329,-0.645,-0.5124,-0.413,-0.3537,-0.3128,-0.2136,-0.1666,-0.1315,-0.0333,0.0,0.0,0.0,0.0,0.0,0.0,0.0,0.0,0.0,0.0,0.0,0.0,0.0,0.0,0.0,0.0,0.0,0.0,0.0,0.0,0.0,0.0,0.0,-0.7472,-0.9217,-1.12,-1.311,-1.4734,-1.6379,-1.8139,-1.8624,-1.8958,-1.9252,-1.9279,-2.053,-2.359,-2.3822,-2.5105,-2.813,-2.8291,0.0,-2.8174,-2.75,-2.706,-2.6894,-2.6211,-2.5771,-2.5693,0.0,0.0,-2.5143,-2.6911,-2.7476,-2.7209,-2.9022,-2.9792,-2.983,-2.9998,-3.0945,-3.2429,-3.3345,-3.4442,-3.5504,-3.5504,-3.5504,-3.54,0.0,0.0,0.0,0.0,0.0,0.0,0.0,0.0,0.0,0.0,-0.1983,-0.2779,-0.319,-0.435,-0.5069,-0.4999,-0.4884,-0.4989,-0.5481,-0.5681,-0.6139,-0.6852,-0.4684,-0.3571,-0.391,-0.1354,-0.131,-0.4016,-0.4016,-0.537,-0.7988,-0.7988,-0.7988,-0.7985,-0.7911,-0.7877,-0.7919,-0.7848,-0.7821,-0.7821,-0.7821,-0.7346,-0.6608,-0.5897,-0.5198,-0.4531,-0.3844,-0.2825,-0.1713,-0.1118,-0.0481,0.0,0.0,0.0,0.0,0.0,0.0,0.0,0.0,0.0,0.0,0.0,0.0,0.0,0.0,0.0,0.0,0.0,0.0,-0.8193,0.0,0.0,-0.7999,-0.918,-1.088,-1.2763,-1.4625,-1.6366,-1.7732,-1.8572,-1.8965,-1.9205,-1.9352,-1.9424,-2.0601,-2.3607,-2.3822,-2.5105,-2.813,-2.8291,-2.8193,-2.7988,-2.7559,-2.7139,-2.6709,-2.6279,-2.5908,-2.5693,-2.5693,-2.5825,-2.6062,-2.7473,-2.81,-2.806,-2.9555,-3.0043,-2.9792,-2.9792,-3.0633,-3.1997,-3.2925,-3.4192,-3.5504,-3.5504,-3.5504,-3.5459,0.0,0.0,0.0,0.0,0.0,0.0,0.0,0.0,0.0,0.0,-0.1566,-0.2656,-0.2673,-0.4108,-0.5012,0.0,-0.4667,-0.4846,-0.5542,-0.5722,-0.6139,-0.6852,-0.4778,-0.3641,-0.3811,-0.1298,-0.131,-0.4016,-0.4016,-0.537,-0.7988,-0.7988,-0.7988,-0.7988,-0.7988,-0.7988,-0.7988,-0.7988,-0.7988,-0.7988,-0.7988,-0.7897,-0.7784,-0.7516,-0.678,-0.5844,-0.5432,-0.3906,-0.209,-0.1806,-0.0954,0.0,0.0,0.0,0.0,0.0,0.0,0.0,0.0,0.0,0.0,0.0,0.0,0.0,0.0,0.0,-1.0186,-0.9466,-0.9427,-0.9226,-0.8142,-0.8217,-0.9086,-1.0841,-1.2788,-1.4571,-1.6136,-1.7601,-1.8597,-1.8885,-1.9132,-1.9305,-1.9417,-1.9649,-2.0931,-2.3607,-2.41,-2.5434,-2.8121,-2.8291,-2.8135,-2.7855,-2.7757,-2.7346,-2.6514,-2.6426,-2.6172,-2.5693,-2.5693,-2.6056,-2.6708,-2.8003,-2.8669,-2.8905,-3.0096,-3.0357,-2.9942,-2.9829,-3.0457,-3.1536,-3.2321,-3.3788,-3.5504,-3.5504,-3.5504,-3.5504,0.0,0.0,0.0,0.0,0.0,0.0,0.0,0.0,0.0,0.0,0.0,0.0,0.0,0.0,0.0,-0.4891,-0.4762,-0.4928,-0.5549,-0.5722,-0.6139,-0.6852,-0.4778,-0.3641,-0.3811,-0.1298,-0.131,-0.4016,-0.4016,-0.537,-0.7988,-0.7988,-0.7988,-0.7988,-0.7988,-0.7988,-0.7988,-0.7988,-0.7988,-0.7988,-0.7988,-0.7897,-0.7794,-0.7634,-0.7312,-0.6773,-0.544,-0.4194,-0.3026,-0.1787,-0.0738,0.0,0.0,0.0,0.0,0.0,0.0,-0.0402,-0.2209,-0.4097,-0.5691,-0.6431,-0.7399,-0.8731,0.0,0.0,-1.2907,-1.3184,-1.2501,-1.1413,-1.0112,-1.0471,-1.097,-1.1213,-1.3959,-1.6142,-1.66,-1.7722,-1.8597,-1.8885,-1.8951,-1.9078,-1.9339,-2.0587,-2.2032,-2.3654,-2.5041,-2.6545,-2.8237,-2.8291,-2.8271,-2.8223,-2.7914,-2.7432,-2.6943,-2.6572,-2.6172,-2.5693,-2.5693,-2.5761,-2.5886,-2.7745,-2.8612,-2.8731,-3.0048,-3.0583,-3.0482,-2.9993,-3.0846,-3.2464,-3.2558,-3.3788,-3.5504,-3.5504,-3.5504,-3.5504,0.0,0.0,0.0,0.0,0.0,0.0,0.0,0.0,0.0,0.0,0.0,0.0,0.0,0.0,0.0,-0.5012,-0.4826,-0.4982,-0.5667,-0.5769,-0.6139,-0.6852,-0.545,-0.433,-0.3698,-0.1963,-0.2042,-0.4016,-0.4016,-0.537,-0.7988,-0.7988,-0.7988,-0.7988,-0.7988,-0.8089,-0.8217,-0.8866,-0.8781,-0.8217,-0.8912,-0.8626,-0.7787,-0.7553,-0.717,-0.6662,-0.6124,-0.4756,0.0,-0.2531,-0.1298,0.0,0.0,0.0,0.0,0.0,-0.0492,-0.1534,-0.375,-0.5311,-0.6427,-0.6851,-0.7871,-0.934,-1.1228,-1.2618,-1.3596,-1.4058,-1.3765,-1.2865,-1.0955,-1.1415,-1.2244,0.0,-1.4809,-1.6674,-1.7818,-1.8115,-1.8222,-1.8342,-1.8103,-1.821,-1.9032,-2.0422,-2.1902,-2.3351,-2.5084,-2.6615,-2.7887,-2.793,-2.793,-2.793,-2.751,-2.709,-2.666,-2.6475,-2.6172,-2.5693,-2.5693,-2.6476,-2.7887,-2.8692,-2.9493,-3.0236,-3.0183,-3.0131,-3.0118,-2.9892,-3.0254,-3.1057,-3.2177,-3.3101,-3.3939,-3.5067,-3.5504,-3.5504,0.0,0.0,0.0,0.0,0.0,0.0,0.0,0.0,0.0,0.0,0.0,0.0,0.0,0.0,-0.5143,-0.5103,-0.4935,-0.504,-0.5579,-0.5694,-0.6023,-0.6613,-0.5766,-0.4904,-0.4092,-0.2947,-0.3061,-0.4568,-0.4568,-0.5722,-0.7988,-0.7988,-0.7988,-0.7988,-0.7988,-0.8102,-0.8248,-0.9072,-0.8996,-0.8292,-0.9069,-0.8724,-0.7651,-0.7316,-0.6837,-0.633,-0.6196,-0.4802,-0.2933,-0.2685,-0.1463,0.0,0.0,0.0,0.0,0.0,-0.0991,-0.2574,-0.4653,-0.5949,-0.6854,-0.7186,-0.8421,-0.9964,-1.1621,-1.3056,-1.4254,-1.4941,-1.4778,-1.3847,-1.175,-1.2395,-1.3409,-1.3988,-1.5636,-1.7372,-1.8708,-1.8362,-1.7962,-1.7876,-1.7395,-1.7395,-1.8343,-2.0241,-2.1892,-2.2974,-2.5227,-2.6877,-2.7676,-2.7826,-2.7894,-2.7894,-2.7422,-2.6992,-2.6562,-2.6445,-2.6172,-2.5693,-2.5693,-2.6839,-2.8958,-2.959,-3.0631,-3.18,-3.0708,-3.0231,-3.0218,-2.9917,-2.9934,-3.0355,-3.1974,-3.2749,-3.3171,-3.4887,-3.5504,-3.5504,0.0,0.0,0.0,0.0,0.0,0.0,0.0,0.0,0.0,0.0,0.0,0.0,0.0,0.0,-0.5327,-0.511,-0.509,-0.5096,-0.5117,-0.543,-0.5735,-0.6006,-0.5333,-0.5034,-0.5344,-0.4313,-0.4439,-0.5929,-0.5929,-0.6631,-0.7988,-0.7988,-0.7988,-0.7988,-0.7988,-0.7992,-0.7995,-0.8041,-0.8041,-0.7982,-0.7927,-0.7692,-0.7381,-0.6892,-0.6441,-0.5911,-0.5046,-0.3871,-0.2582,-0.1667,-0.074,0.0,0.0,0.0,0.0,0.0,-0.137,-0.313,-0.4387,-0.5764,-0.7018,-0.7645,-0.8992,-1.0689,-1.2791,-1.4112,-1.5375,-1.68,-1.5956,-1.447,-1.2848,-1.3868,-1.472,-1.4033,-1.644,-1.8535,-1.8885,-1.8362,-1.7882,-1.7629,-1.7081,-1.6847,0.0,-2.0297,-2.2394,-2.2687,-2.5807,-2.7676,-2.7718,-2.8057,-2.8271,-2.8271,-2.7861,-2.7432,-2.7002,-2.6592,-2.6172,-2.5693,-2.5693,-2.639,-2.772,-3.009,-3.1853,-3.3011,-3.1825,-3.1336,-3.126,-3.0218,-3.0355,-3.1254,-3.2213,-3.3171,-3.4061,-3.5133,-3.5504,-3.5504,0.0,0.0,0.0,0.0,0.0,0.0,0.0,0.0,0.0,0.0,0.0,0.0,0.0,0.0,0.0,0.0,-0.5189,-0.5184,-0.5423,-0.5532,-0.5722,-0.5979,-0.5967,-0.5661,-0.5076,-0.4813,-0.5008,-0.5752,-0.5752,-0.6472,-0.7889,-0.7889,-0.7894,-0.7988,-0.7988,-0.8096,-0.8234,-0.9019,-0.8888,-0.8261,-0.8752,-0.8324,-0.7357,-0.6759,-0.5915,-0.4888,0.0,-0.315,-0.2545,-0.1606,-0.0731,0.0,0.0,0.0,-0.0274,-0.1752,-0.2741,-0.383,-0.6019,-0.7122,-0.7762,-0.8359,-0.9026,-0.9972,-1.1619,-1.3043,-1.432,-1.5477,-1.5651,-1.5096,-1.3615,-1.437,-1.5041,-1.4406,-1.6483,-1.8175,-1.8275,-1.8343,-1.8009,-1.7108,-1.6827,0.0,0.0,0.0,0.0,-2.0607,-2.4009,-2.5979,-2.5927,-2.7199,-2.7998,-2.8281,-2.7607,-2.7168,-2.7012,-2.6602,-2.6172,-2.5742,-2.7389,-2.8193,-2.8337,-3.0743,-3.1712,-3.1424,-3.1047,-3.067,-3.0306,-2.9942,-3.0011,-3.0343,-3.1291,-3.2249,-3.3171,-3.4143,-3.4953,-3.5504,0.0,0.0,0.0,0.0,0.0,0.0,0.0,0.0,0.0,0.0,0.0,0.0,0.0,0.0,0.0,0.0,0.0,-0.5274,-0.5416,-0.5477,-0.5593,-0.5783,-0.6129,-0.5885,-0.4937,-0.5092,-0.5147,-0.505,-0.5418,-0.6124,-0.7095,-0.7483,-0.7763,-0.7911,-0.7911,-0.8014,-0.8146,-0.8867,-0.8646,-0.7928,-0.8333,-0.7889,-0.6958,-0.6405,-0.564,0.0,-0.3258,-0.2739,-0.2512,-0.1245,-0.0466,-0.0066,-0.0459,-0.0848,-0.1532,-0.3413,-0.4123,-0.482,-0.7193,-0.8096,-0.844,-0.8986,-0.9286,-0.9748,-1.1024,-1.1988,-1.2965,-1.4185,-1.4364,-1.3983,-1.2806,-1.3456,-1.4076,-1.3802,-1.56,-1.7269,-1.7902,-1.8029,-1.7809,-1.7248,-1.6994,-1.6907,0.0,0.0,0.0,-2.0259,-2.3393,-2.5384,-2.5679,-2.7131,-2.7949,-2.8066,-2.7383,-2.6943,-2.6797,-2.6367,-2.6016,-2.5732,-2.8215,-2.9239,-2.8981,-3.1399,-3.2039,-3.1173,-3.0984,-3.0583,-3.0068,-2.988,-2.9792,-2.9895,-3.0833,-3.1779,-3.2713,-3.3671,-3.4658,-3.5504,0.0,0.0,0.0,0.0,0.0,0.0,0.0,0.0,0.0,0.0,0.0,0.0,0.0,0.0,0.0,0.0,0.0,0.0,-0.512,-0.5281,-0.5395,-0.5395,-0.5776,-0.5644,-0.4908,-0.5186,-0.4925,-0.4001,-0.5037,-0.5613,-0.5772,-0.6853,-0.7485,-0.7753,-0.776,-0.776,-0.7746,-0.7611,-0.7383,-0.7048,-0.6797,-0.6512,-0.6248,-0.5798,-0.5555,-0.5274,-0.3252,-0.2554,-0.2363,-0.0607,-0.0035,-0.0274,-0.1366,-0.2455,-0.3568,-0.4796,-0.5381,-0.604,-0.7844,-0.8648,-0.904,-0.9523,-0.9734,-1.0067,-1.0997,-1.1117,-1.1509,-1.2916,-1.236,-1.1391,0.0,0.0,-1.2033,-1.2383,-1.4175,-1.6099,-1.7756,-1.7595,-1.7462,0.0,0.0,0.0,0.0,0.0,0.0,-2.1422,0.0,-2.5736,-2.6743,-2.7789,-2.8115,-2.7767,-2.7256,-2.6826,-2.6426,-2.5918,-2.5693,-2.5732,-2.8215,-2.9396,-2.9454,-3.1928,-3.2704,-3.2102,-3.1574,-3.1047,-3.0532,-3.0005,-2.9792,-2.9908,-3.0758,-3.1706,-3.2629,-3.3602,-3.4543,-3.5424,0.0,0.0,0.0,0.0,0.0,0.0,0.0,0.0,0.0,0.0,0.0,0.0,0.0,0.0,0.0,0.0,0.0,0.0,-0.5337,-0.5375,-0.5395,-0.5395,-0.5579,-0.5353,-0.4622,-0.4779,-0.4506,-0.3692,-0.4616,-0.5157,-0.5311,-0.6373,-0.6912,-0.6987,-0.7105,-0.7088,-0.698,-0.6946,-0.6885,-0.6787,-0.6491,-0.6368,-0.6248,-0.5798,-0.5168,-0.4375,-0.3119,-0.2231,-0.1482,-0.0385,-0.0656,-0.1662,-0.2752,-0.3423,-0.4062,-0.5408,-0.6145,-0.694,-0.8544,-0.9337,-0.9734,-0.9845,-0.9903,-0.9903,-0.9788,-1.0366,-1.0837,-1.0541,-1.0607,-1.0563,0.0,0.0,0.0,-1.293,-1.5274,0.0,-1.7896,-1.8484,0.0,-1.8049,0.0,-1.8083,-1.7923,-1.8056,0.0,0.0,-2.231,-2.3581,-2.4267,-2.6842,-2.8242,-2.8135,-2.7402,-2.6963,-2.6855,-2.6064,-2.5693,-2.5732,-2.8215,-2.9171,-2.8903,-3.1314,-3.1913,-3.1009,-3.0871,-3.0507,-2.9993,-2.9854,-2.9792,-2.983,-3.0075,-3.0733,-3.1669,-3.2593,-3.3567,-3.4495,0.0,0.0,0.0,0.0,0.0,0.0,0.0,0.0,0.0,0.0,0.0,0.0,0.0,0.0,0.0,0.0,0.0,0.0,0.0,-0.5395,-0.5395,-0.5395,-0.5542,-0.499,-0.3739,-0.3833,-0.3304,-0.2014,-0.2981,-0.3507,-0.3669,-0.5143,-0.5867,-0.6021,-0.6519,-0.6681,-0.6597,-0.6532,-0.643,0.0,0.0,-0.5962,-0.5876,-0.562,-0.4937,-0.4,-0.3029,-0.2195,-0.153,-0.1628,-0.2169,-0.3,-0.4257,-0.5152,-0.5953,-0.6963,-0.7599,-0.8216,-0.9365,-0.9941,-1.0243,-1.0243,-1.0034,-0.9758,-0.9025,-0.9202,-0.9389,-0.8844,-0.8593,-0.8524,-0.8606,-0.982,0.0,0.0,0.0,0.0,-1.7689,-1.827,-1.8591,0.0,-1.8657,0.0,-1.8617,-1.8651,-1.9061,0.0,-2.19,-2.3397,-2.4244,-2.6836,-2.8203,-2.8027,-2.7363,-2.6836,-2.6405,-2.5927,-2.5693,-2.5732,-2.8215,-2.9261,-2.9026,-3.1217,-3.175,-3.0947,0.0,-3.0306,-2.9792,-2.9792,-2.9792,-2.9792,-2.9792,-3.0381,-3.1315,-3.2249,-3.3206,-3.4129,0.0,0.0,0.0,0.0,0.0,0.0,0.0,0.0,0.0,0.0,0.0,0.0,0.0,0.0,0.0,0.0,0.0,0.0,0.0,0.0,0.0,-0.5395,-0.5521,-0.4686,-0.274,-0.2811,-0.1947,0.0,-0.1048,-0.1626,-0.1773,-0.3741,-0.4743,-0.4996,-0.5956,-0.6381,-0.6358,-0.6231,-0.6023,-0.5732,-0.561,-0.5515,-0.5395,0.0,0.0,-0.3882,-0.3011,-0.2216,-0.1811,-0.3474,-0.408,-0.4372,-0.5834,-0.716,-0.8224,-0.8801,-0.9222,-0.9568,-1.0151,-1.0412,-1.0514,-1.0473,-1.0141,-0.9581,-0.8662,-0.8089,-0.7689,-0.7577,-0.6686,-0.6178,-0.6926,-0.8037,-0.9306,-1.0593,0.0,-1.5324,-1.7308,-1.7649,-1.8103,-1.9178,-1.9118,-1.9085,-1.9339,-1.9132,-1.9092,-1.941,-2.2104,-2.4234,-2.5165,-2.7195,-2.8076,-2.7598,-2.7158,-2.6543,-2.5693,-2.5693,-2.5693,-2.5732,-2.8215,-2.9373,-2.9341,-3.1314,-3.1876,-3.126,0.0,0.0,-2.9792,-2.9792,-2.9792,-2.9792,-2.9792,-3.0317,-3.1143,-3.2069,-3.3031,-3.3959,0.0,0.0,0.0,0.0,0.0,0.0,0.0,0.0,0.0,0.0,-0.4436,0.0,0.0,0.0,0.0,0.0,0.0,0.0,0.0,0.0,0.0,0.0,-0.5419,-0.4587,-0.273,-0.2732,-0.1824,0.0,-0.0899,-0.1366,-0.1443,-0.3393,-0.4246,-0.4227,-0.5273,-0.5709,-0.5586,-0.5562,-0.5521,-0.547,-0.5443,-0.5419,-0.5395,-0.5395,0.0,0.0,-0.3011,-0.1684,-0.0796,-0.4021,-0.545,-0.6098,-0.7459,-0.8314,-0.8821,-0.9354,-0.9612,-0.9849,-1.0327,-1.0565,-1.0622,-1.0378,-1.0066,-0.9554,-0.854,-0.791,-0.7231,-0.649,-0.5962,-0.5686,-0.573,-0.7652,-0.9606,-1.0753,-1.3373,-1.5792,-1.7361,-1.8016,-1.8497,0.0,-1.9172,-1.9312,-1.9366,-1.9377,0.0,0.0,0.0,0.0,-2.4064,-2.6743,-2.793,-2.7148,-2.6719,-2.626,-2.5693,-2.5693,-2.5693,-2.5732,-2.8215,-2.9149,-2.8847,-3.1144,-3.1675,-3.0746,0.0,0.0,-2.9792,-2.9792,-2.9792,-2.9792,-2.9792,-2.9895,-3.0139,-3.1119,-3.2033,-3.2996,0.0,0.0,0.0,0.0,0.0,0.0,0.0,0.0,0.0,0.0,-0.4821,-0.5597,0.0,0.0,0.0,0.0,0.0,0.0,0.0,0.0,0.0,0.0,0.0,0.0,0.0,-0.2711,0.0,0.0,0.0,-0.0617,0.0,0.0,0.0,0.0,0.0,-0.5018,-0.5395,-0.5395,-0.5395,-0.5395,-0.5395,-0.5395,0.0,0.0,0.0,0.0,-0.2845,-0.1947,-0.1364,-0.4187,-0.5654,-0.6709,-0.8955,-0.9392,-0.932,-1.0565,-1.0426,-1.0039,-1.0487,-1.0663,-1.0666,-1.0446,-0.9988,-0.9317,-0.8269,-0.7509,-0.6766,-0.5867,-0.5504,-0.5328,-0.5254,-0.6891,-0.8533,-0.9295,-1.1781,-1.418,-1.5883,-1.6964,-1.7903,-1.8811,-1.9185,-1.9424,0.0,0.0,0.0,0.0,0.0,0.0,-2.3822,-2.6662,-2.79,-2.7041,-2.6816,-2.6396,-2.5693,-2.5693,-2.5693,-2.5732,-2.7579,-2.8653,-2.9094,-3.0569,-3.1169,-3.0997,0.0,0.0,-2.9792,-2.9792,-2.9792,-2.9792,-2.9792,-2.9792,-2.9895,-3.0871,-3.1779,-3.2749,0.0,0.0,0.0,0.0,0.0,0.0,0.0,-0.2217,-0.3274,-0.4367,-0.5254,-0.5759,-0.5647,-0.5535,0.0,0.0,0.0,0.0,0.0,0.0,0.0,0.0,0.0,0.0,0.0,0.0,0.0,0.0,0.0,0.0,0.0,0.0,0.0,0.0,0.0,0.0,0.0,-0.5395,-0.5395,0.0,0.0,0.0,0.0,0.0,0.0,0.0,0.0,-0.241,-0.2039,-0.4397,-0.5569,-0.6538,-0.957,-0.9954,-0.9521,-1.1034,-1.1069,-1.0565,-1.0582,-1.093,-1.1132,-1.062,-0.991,-0.9096,-0.8011,-0.7214,-0.6444,-0.5579,-0.524,-0.511,-0.514,-0.6224,-0.7391,-0.8239,-1.0237,-1.2456,-1.4626,-1.5933,-1.7208,0.0,-1.9112,0.0,-1.9424,0.0,0.0,0.0,0.0,0.0,0.0,-2.6838,-2.7715,-2.7041,-2.6836,-2.6366,-2.5693,-2.5693,-2.5693,-2.5742,-2.6993,-2.8172,-2.9239,-3.0047,-3.0713,-3.1198,0.0,0.0,0.0,-2.9842,-2.9867,-2.9955,-2.9842,-2.9792,-2.9895,-3.062,-3.1499,-3.2429,0.0,0.0,0.0,0.0,0.0,0.0,0.0,-0.2223,-0.3274,-0.4367,-0.5254,-0.5796,-0.5783,-0.5654,0.0,0.0,0.0,0.0,0.0,0.0,0.0,0.0,0.0,0.0,0.0,0.0,0.0,0.0,0.0,0.0,0.0,0.0,0.0,0.0,0.0,0.0,0.0,0.0,0.0,0.0,0.0,0.0,0.0,0.0,0.0,0.0,0.0,-0.2792,-0.1824,-0.5078,-0.5647,-0.556,-0.8522,-0.9341,-0.9193,-0.923,-1.0673,-1.2048,-1.0711,-1.1667,-1.2592,-1.0749,-0.9836,-0.9072,-0.7889,-0.7143,-0.6444,-0.5579,-0.524,-0.514,-0.5347,-0.5988,-0.7151,-0.9227,-1.04,-1.2068,-1.4949,-1.6137,-1.7061,-1.7962,0.0,0.0,-1.9424,0.0,0.0,0.0,0.0,0.0,0.0,-2.7392,-2.71,-2.7012,-2.621,-2.5771,-2.5693,-2.5693,-2.5693,-2.5742,-2.6993,-2.8,-2.869,-2.9884,-3.0477,-3.0683,0.0,0.0,0.0,-2.9993,-3.0093,-3.0495,-2.9993,-2.9792,-2.9792,-2.9895,-3.052,-3.1462,0.0,0.0,0.0,0.0,0.0,0.0,0.0,-0.3227,-0.3973,-0.5117,-0.5659,-0.5678,-0.508,-0.544,-0.5623,0.0,0.0,0.0,0.0,0.0,0.0,0.0,0.0,0.0,0.0,0.0,0.0,0.0,0.0,0.0,0.0,0.0,0.0,0.0,0.0,0.0,0.0,0.0,0.0,0.0,0.0,0.0,0.0,0.0,0.0,0.0,0.0,0.0,-0.2654,-0.5161,-0.5453,-0.5046,-0.6698,-0.7552,-0.8166,-0.9442,-1.0777,-1.1537,-1.0311,-1.1465,-1.2457,-1.0509,-0.9486,-0.871,-0.7692,-0.6929,-0.6272,-0.5542,-0.524,-0.5117,-0.5209,-0.5424,-0.6125,-0.7633,-0.8768,-1.0293,-1.2816,-1.4324,-1.5651,-1.7074,-1.8016,0.0,0.0,0.0,0.0,0.0,0.0,0.0,0.0,-2.7016,-2.7285,-2.7021,-2.6435,-2.6006,-2.5693,-2.5693,-2.5693,-2.5693,-2.6197,-2.739,-2.9116,-2.9556,-3.0257,-3.1085,0.0,0.0,0.0,-2.988,-2.993,-3.0093,-2.988,-2.9792,-2.9792,-2.9792,-3.0381,-3.1254,0.0,0.0,0.0,0.0,0.0,0.0,-0.3641,-0.368,-0.4118,-0.5563,-0.5392,-0.4956,-0.4469,-0.4731,-0.4944,-0.4968,0.0,0.0,0.0,0.0,0.0,0.0,0.0,0.0,0.0,0.0,0.0,-0.1729,0.0,0.0,0.0,0.0,0.0,0.0,0.0,0.0,0.0,0.0,0.0,0.0,0.0,0.0,0.0,0.0,0.0,0.0,0.0,0.0,0.0,0.0,0.0,-0.4995,-0.562,-0.6207,-0.6996,-0.878,-1.0234,-1.1004,-0.9824,-1.0966,-1.2082,-1.0169,-0.9161,-0.8408,-0.7509,-0.6805,-0.6129,-0.5518,-0.524,-0.5113,-0.5189,-0.513,-0.5574,-0.6959,-0.7937,-0.9333,-1.1696,-1.3309,-1.4736,0.0,0.0,0.0,0.0,0.0,0.0,0.0,0.0,0.0,0.0,0.0,-2.7148,-2.6836,-2.6416,-2.6045,-2.5693,-2.5693,-2.5693,-2.5693,-2.5693,-2.6791,-2.8855,-2.8666,-2.9435,0.0,0.0,0.0,0.0,-2.9867,-2.9892,-3.0018,-2.9854,-2.9792,-2.9792,-2.9792,-3.0203,-3.0833,0.0,0.0,0.0,0.0,0.0,0.0,0.0,-0.3196,-0.3414,-0.5359,-0.4146,-0.3415,-0.414,-0.3441,-0.3211,-0.3938,0.0,0.0,0.0,0.0,0.0,0.0,0.0,0.0,0.0,0.0,-0.3563,-0.2686,-0.1744,-0.084,0.0,0.0,0.0,0.0,0.0,0.0,0.0,0.0,0.0,0.0,0.0,0.0,0.0,0.0,0.0,0.0,0.0,0.0,0.0,0.0,0.0,0.0,0.0,-0.5711,-0.5752,-0.6498,-0.8795,-1.0746,-0.9155,-1.0442,-1.1728,-0.9884,-0.893,-0.8248,-0.7304,-0.6685,-0.6129,-0.5518,-0.524,-0.5176,-0.5365,-0.5233,-0.5832,-0.8014,-0.8605,-0.9743,-1.2429,-1.3768,-1.4736,0.0,0.0,0.0,0.0,0.0,0.0,0.0,0.0,0.0,0.0,0.0,-2.6396,-2.6396,-2.5977,-2.5693,-2.5693,-2.5693,-2.5693,-2.5693,-2.5693,-2.639,-2.7615,-2.7003,0.0,0.0,0.0,0.0,0.0,-3.0018,-3.0118,-3.0557,-3.0005,-2.9792,-2.9792,-2.9792,-2.9792,-2.9934,0.0,0.0,0.0,0.0,0.0,0.0,0.0,-0.3477,-0.3376,-0.3578,-0.3241,-0.2766,-0.2281,-0.2632,-0.295,-0.3085,0.0,0.0,0.0,0.0,0.0,0.0,0.0,0.0,0.0,0.0,-0.4549,-0.3732,-0.2755,-0.1868,-0.1079,-0.036,0.0,0.0,0.0,0.0,0.0,0.0,0.0,0.0,0.0,0.0,0.0,0.0,0.0,0.0,0.0,0.0,0.0,0.0,0.0,0.0,0.0,0.0,0.0,-0.5871,-0.7729,-0.941,-0.7984,-0.9129,-1.0284,-0.8485,-0.7634,-0.7136,-0.6651,-0.6156,-0.5754,-0.5457,-0.5354,-0.5337,-0.5385,-0.5354,-0.5745,-0.7166,-0.8353,-0.9665,0.0,0.0,0.0,-1.5304,0.0,0.0,0.0,0.0,0.0,0.0,0.0,0.0,0.0,0.0,0.0,-2.6367,-2.5664,-2.543,-2.5684,-2.543,-2.5283,-2.5283,-2.5283,-2.5805,-2.6704,-2.6511,0.0,0.0,0.0,0.0,0.0,-2.9569,-2.9892,-3.0043,-2.9867,-2.9792,-2.9792,-2.9792,-2.9792,-2.9818,0.0,0.0,0.0,0.0,0.0,0.0,0.0,-0.3309,-0.2994,-0.2724,-0.2191,-0.1685,-0.1321,-0.1618,-0.2063,-0.2639,0.0,0.0,0.0,0.0,0.0,0.0,0.0,0.0,0.0,-0.5365,-0.5018,-0.4215,-0.3187,-0.2334,-0.1586,-0.0517,-0.029,-0.084,0.0,0.0,0.0,0.0,0.0,0.0,0.0,0.0,-0.4921,0.0,0.0,0.0,0.0,0.0,0.0,0.0,0.0,0.0,0.0,0.0,0.0,0.0,-0.6542,-0.7602,-0.701,-0.7844,-0.8563,-0.7492,-0.6868,-0.6471,-0.6227,-0.5779,-0.5456,-0.5647,-0.5675,-0.5638,-0.5638,-0.594,-0.6306,-0.6643,-0.8033,-0.945,0.0,0.0,0.0,0.0,0.0,0.0,0.0,0.0,0.0,0.0,0.0,0.0,0.0,0.0,0.0,-2.5869,-2.5195,-2.4961,-2.5187,-2.5127,-2.5028,-2.4824,-2.5037,-2.5292,-2.5562,0.0,0.0,0.0,0.0,0.0,0.0,-2.9495,-2.9792,-2.9792,-2.9792,-2.9792,-2.9792,-2.9792,-2.9792,-2.9792,0.0,0.0,0.0,0.0,0.0,0.0,0.0,0.0,0.0,0.0,-0.1042,-0.0311,-0.1114,-0.05,-0.0723,0.0,0.0,0.0,0.0,0.0,0.0,0.0,0.0,0.0,0.0,-0.5281,-0.5058,-0.4321,-0.3308,-0.2438,-0.167,-0.0608,-0.0074,-0.0035,-0.0913,0.0,0.0,0.0,0.0,0.0,0.0,0.0,0.0,0.0,0.0,0.0,0.0,0.0,0.0,0.0,0.0,0.0,0.0,0.0,0.0,0.0,0.0,0.0,0.0,-0.6583,-0.6761,-0.6771,-0.6488,-0.6166,-0.5959,-0.5491,0.0,-0.6049,-0.6074,-0.6001,-0.6026,-0.6828,-0.7243,-0.6487,-0.7721,-0.9182,0.0,-1.1621,0.0,0.0,0.0,0.0,0.0,0.0,0.0,0.0,0.0,0.0,0.0,0.0,0.0,0.0,-2.4551,-2.4355,-2.4414,-2.4785,-2.4775,-2.4375,-2.4785,-2.4746,-2.4326,0.0,0.0,0.0,0.0,0.0,0.0,-2.9663,-2.9714,-2.9792,-2.9792,-2.9792,-2.9792,-2.9792,-2.9792,-2.9792,0.0,0.0,0.0,0.0,0.0,0.0,0.0,0.0,0.0,0.0,0.0,-0.0089,-0.0291,-0.0118,0.0,0.0,0.0,0.0,0.0,0.0,0.0,0.0,0.0,0.0,0.0,-0.5281,-0.5402,-0.544,-0.4509,-0.3625,-0.2708,-0.1793,-0.0895,-0.0037,-0.0909,-0.2208,0.0,0.0,0.0,0.0,0.0,0.0,0.0,0.0,0.0,0.0,-0.5329,-0.5395,0.0,0.0,0.0,0.0,0.0,0.0,0.0,0.0,-0.5277,-0.5223,-0.5399,0.0,-0.5548,-0.5701,-0.5481,-0.5254,0.0,-0.5117,-0.5149,-0.5902,-0.6021,-0.6075,-0.6257,-0.6953,-0.7177,-0.6235,-0.8554,-1.0404,-1.0299,0.0,0.0,0.0,0.0,0.0,0.0,0.0,0.0,0.0,0.0,0.0,0.0,0.0,0.0,0.0,-2.3662,-2.3715,-2.4414,-2.4199,-2.4043,-2.3935,-2.4043,-2.3857,-2.3393,0.0,0.0,0.0,0.0,0.0,0.0,-2.8148,-2.9028,-2.9792,-2.9792,-2.9792,-2.9792,-2.9792,-2.9792,-2.9792,0.0,0.0,0.0,0.0,0.0,0.0,0.0,0.0,0.0,0.0,0.0,0.0,0.0,0.0,0.0,0.0,0.0,0.0,0.0,0.0,0.0,0.0,0.0,0.0,-0.5005,-0.5179,-0.5433,-0.58,-0.4851,-0.3933,-0.3073,-0.2164,-0.1096,-0.0038,-0.0897,-0.186,0.0,0.0,0.0,0.0,-0.5226,0.0,0.0,0.0,0.0,0.0,-0.5395,-0.5395,0.0,-0.5491,-0.5463,-0.5409,0.0,0.0,0.0,0.0,-0.5152,-0.5002,-0.5002,-0.5131,-0.5257,-0.5375,-0.5189,-0.5022,-0.5203,-0.5204,-0.5416,-0.6253,-0.635,-0.6469,-0.7107,-0.7757,-0.7942,-0.7134,-0.9192,0.0,0.0,0.0,0.0,0.0,0.0,0.0,0.0,0.0,0.0,0.0,0.0,0.0,0.0,0.0,0.0,0.0,-2.3315,-2.3315,-2.3783,-2.3799,-2.3691,-2.3496,-2.3691,-2.3555,-2.3091,0.0,0.0,0.0,0.0,0.0,-2.729,-2.7844,-2.8767,-2.9792,-2.9792,-2.9792,-2.9792,-2.9792,-2.9792,-2.9792,0.0,0.0,0.0,0.0,0.0,0.0,0.0,0.0,0.0,0.0,0.0,0.0,0.0,0.0,0.0,0.0,0.0,0.0,0.0,0.0,0.0,0.0,0.0,-0.4887,-0.4887,-0.5026,-0.5309,-0.5769,-0.4926,-0.4105,-0.3317,-0.236,-0.1212,-0.0038,-0.077,-0.1178,0.0,0.0,0.0,0.0,-0.4855,0.0,0.0,0.0,0.0,0.0,0.0,0.0,0.0,-0.5395,-0.5395,-0.5392,-0.5365,0.0,0.0,0.0,0.0,0.0,-0.4884,-0.5118,-0.5422,-0.5529,-0.542,-0.5385,-0.5683,-0.5777,-0.6059,-0.6976,-0.701,-0.7185,-0.8143,-0.8819,0.0,0.0,0.0,0.0,0.0,0.0,0.0,0.0,0.0,0.0,0.0,0.0,0.0,0.0,0.0,0.0,0.0,0.0,0.0,0.0,-2.3286,-2.3091,-2.3091,-2.3506,-2.3506,-2.3101,-2.3516,-2.3496,-2.3091,-2.3091,0.0,0.0,0.0,0.0,-2.7591,-2.7763,-2.8518,-2.9585,-2.974,-2.9792,-2.9792,-2.9792,-2.9792,-2.9792,0.0,0.0,0.0,0.0,0.0,0.0,0.0,0.0,0.0,0.0,0.0,0.0,0.0,0.0,0.0,0.0,0.0,0.0,0.0,0.0,0.0,0.0,-0.485,-0.4887,-0.4887,-0.5026,-0.5258,-0.5623,-0.5854,-0.5461,-0.4454,-0.3652,-0.2128,0.0,-0.0143,-0.0619,-0.1307,-0.1608,-0.2609,-0.4015,-0.4151,0.0,0.0,0.0,0.0,0.0,0.0,0.0,0.0,-0.5395,-0.5395,-0.5371,-0.5206,0.0,0.0,0.0,0.0,0.0,-0.4724,-0.5068,-0.5526,-0.6121,-0.6219,-0.6392,-0.7163,-0.7275,-0.7414,-0.8189,-0.8311,-0.8428,-0.8799,-0.9687,-0.9985,0.0,0.0,0.0,0.0,0.0,0.0,0.0,0.0,0.0,0.0,0.0,0.0,0.0,0.0,0.0,0.0,0.0,0.0,0.0,0.0,-2.3091,-2.3091,-2.3159,-2.3159,-2.3091,-2.3159,-2.3159,-2.3091,-2.3091,-2.3222,0.0,0.0,0.0,-2.5368,-2.6337,-2.7371,-2.8478,-2.9404,-2.9792,-2.9792,-2.9792,-2.9792,-2.9792,0.0,0.0,0.0,0.0,0.0,0.0,0.0,0.0,0.0,0.0,0.0,0.0,0.0,0.0,0.0,0.0,0.0,0.0,0.0,0.0,0.0,-0.4687,-0.4758,-0.4833,-0.4887,-0.5026,-0.5285,-0.5705,-0.6115,-0.5741,-0.4653,-0.3187,-0.1633,0.0,0.0,-0.0239,-0.0672,-0.1642,-0.2544,-0.338,0.0,0.0,0.0,0.0,0.0,0.0,0.0,0.0,0.0,0.0,-0.5121,-0.5111,-0.5009,0.0,0.0,0.0,0.0,0.0,-0.4597,-0.487,-0.5416,-0.6687,-0.6953,-0.7103,-0.7909,-0.8355,-0.8688,-0.9002,-0.9094,-0.9302,-0.9948,0.0,-1.0908,-1.1555,0.0,0.0,0.0,0.0,0.0,0.0,0.0,0.0,0.0,0.0,0.0,0.0,0.0,0.0,0.0,0.0,0.0,0.0,0.0,0.0,-2.2461,-2.2461,-2.2685,-2.3091,-2.3091,-2.3091,-2.3091,-2.3091,-2.3091,0.0,0.0,-2.3757,-2.4872,-2.6016,-2.7128,-2.8215,-2.9365,-2.9603,-2.9327,-2.9327,-2.9327,-2.9365,0.0,0.0,0.0,0.0,0.0,0.0,0.0,0.0,0.0,0.0,0.0,0.0,0.0,0.0,0.0,0.0,0.0,0.0,0.0,0.0,-0.4542,-0.4662,-0.467,-0.4796,-0.502,-0.5128,-0.5386,-0.58,-0.6149,-0.5764,-0.4654,-0.2811,-0.1361,-0.028,-0.0103,-0.0102,-0.0404,-0.1776,-0.2611,-0.3111,0.0,0.0,0.0,0.0,0.0,0.0,0.0,0.0,0.0,0.0,0.0,0.0,0.0,0.0,0.0,-0.465,-0.4583,-0.4491,-0.4491,-0.4829,-0.5506,-0.7032,-0.7364,-0.7676,-0.8951,-0.9587,-1.004,-1.03,-1.0334,-1.0449,-1.1082,-1.114,0.0,-1.3665,0.0,0.0,0.0,0.0,0.0,0.0,0.0,0.0,0.0,0.0,0.0,0.0,0.0,0.0,0.0,0.0,0.0,0.0,0.0,0.0,-2.115,-2.1358,-2.1984,-2.2945,-2.2945,-2.3003,-2.3091,-2.3091,-2.3042,-2.2955,-2.3052,-2.3534,-2.4354,-2.5587,-2.6748,-2.7804,-2.8567,-2.8753,-2.8611,-2.8812,-2.8888,-2.895,0.0,0.0,0.0,0.0,0.0,0.0,0.0,0.0,0.0,0.0,0.0,0.0,0.0,0.0,0.0,0.0,0.0,0.0,0.0,0.0,-0.4494,-0.4505,-0.4644,-0.4921,-0.5354,-0.5375,-0.5528,-0.58,-0.6149,-0.5754,-0.4657,-0.3512,-0.2352,-0.1188,-0.035,-0.0448,-0.1207,-0.134,-0.2376,-0.3915,-0.4048,0.0,0.0,0.0,0.0,0.0,0.0,0.0,0.0,0.0,0.0,0.0,0.0,0.0,-0.4663,-0.4549,-0.4498,-0.4491,-0.4491,-0.5201,-0.613,-0.6932,-0.732,-0.8233,-1.1023,-1.1431,-1.1572,-1.2716,-1.2747,-1.2425,-1.194,-1.1837,-1.2228,0.0,0.0,0.0,0.0,0.0,0.0,0.0,0.0,0.0,0.0,0.0,0.0,0.0,0.0,0.0,0.0,0.0,0.0,0.0,0.0,0.0,-1.8845,-1.9825,-2.1076,-2.2559,-2.2559,-2.2721,-2.3091,-2.3091,-2.2886,-2.2578,-2.2925,-2.291,-2.2791,-2.4291,-2.5588,-2.6591,-2.625,-2.672,-2.7695,-2.8573,-2.8888,-2.89,0.0,0.0,0.0,0.0,0.0,0.0,0.0,0.0,0.0,0.0,0.0,0.0,0.0,0.0,0.0,0.0,0.0,0.0,0.0,0.0,-0.4532,-0.4627,-0.466,-0.4857,-0.5209,-0.5344,-0.5498,-0.5671,-0.5874,-0.5529,-0.4692,-0.352,-0.2456,-0.1431,-0.0448,-0.0475,-0.1338,-0.1842,-0.2801,-0.4043,-0.4496,-0.489,0.0,0.0,0.0,0.0,0.0,0.0,0.0,0.0,-0.4714,-0.4704,-0.4682,-0.4624,-0.4566,-0.4508,-0.4491,-0.4491,-0.4491,-0.5341,-0.6301,-0.6488,-0.7491,-0.9044,-1.1388,-1.1659,-1.1783,-1.2962,-1.3407,-1.34,-1.2812,0.0,-1.312,0.0,0.0,0.0,0.0,0.0,0.0,0.0,0.0,0.0,0.0,0.0,0.0,0.0,0.0,0.0,0.0,0.0,0.0,0.0,0.0,0.0,0.0,-1.8901,-1.9884,-2.0721,-2.1681,-2.2207,-2.2353,-2.2353,-2.2275,-2.2129,-2.2295,-2.2266,-2.2212,-2.3474,-2.4264,-2.4697,-2.5497,-2.6073,-2.6572,-2.7543,-2.7908,-2.7959,0.0,0.0,0.0,0.0,0.0,0.0,0.0,0.0,0.0,0.0,0.0,0.0,0.0,0.0,0.0,0.0,0.0,0.0,0.0,-0.4663,-0.4658,-0.4687,-0.4735,-0.4877,-0.5093,-0.5192,-0.5375,-0.5589,-0.5688,-0.5496,-0.4964,-0.3831,-0.2827,-0.1919,-0.1235,-0.1225,-0.1794,-0.2577,-0.3491,-0.4475,-0.4932,-0.5127,0.0,0.0,0.0,0.0,0.0,0.0,0.0,0.0,-0.4563,-0.4563,-0.4563,-0.4528,-0.4491,-0.4491,-0.4491,-0.4491,-0.4491,-0.5288,-0.6191,-0.6522,-0.7695,-0.9367,-1.1755,-1.2111,-1.2297,-1.3617,-1.3854,-1.3714,-1.3407,0.0,0.0,0.0,0.0,0.0,0.0,0.0,0.0,0.0,0.0,0.0,0.0,0.0,0.0,0.0,0.0,0.0,0.0,0.0,0.0,0.0,0.0,0.0,0.0,-1.7115,-1.8047,-1.8753,-2.0161,-2.119,-2.1885,-2.1885,-2.1807,-2.1689,-2.1826,-2.1807,-2.1771,-2.2636,-2.2918,-2.2943,-2.4668,-2.5337,-2.5448,-2.6468,-2.7042,-2.7344,0.0,0.0,0.0,0.0,0.0,0.0,0.0,0.0,0.0,0.0,0.0,0.0,0.0,0.0,0.0,0.0,0.0,0.0,-0.4786,-0.4887,-0.485,-0.4701,-0.484,-0.4955,-0.5093,-0.4961,-0.5138,-0.5583,-0.5583,-0.5586,-0.5586,-0.4639,-0.3661,-0.272,-0.2861,-0.2827,-0.2745,-0.3479,-0.4431,-0.5382,-0.5192,-0.5223,-0.5375,0.0,0.0,0.0,0.0,0.0,0.0,0.0,-0.4687,-0.4687,-0.4687,-0.4614,-0.4491,-0.4491,-0.4491,-0.4491,-0.4519,-0.5003,-0.5829,-0.7159,-0.7881,-0.9086,-1.2447,-1.2986,-1.328,-1.503,-1.4235,-1.3307,-1.3553,-1.2919,0.0,0.0,0.0,0.0,0.0,0.0,0.0,0.0,0.0,0.0,0.0,0.0,0.0,0.0,0.0,0.0,0.0,0.0,0.0,0.0,0.0,0.0,0.0,-1.4272,-1.5498,-1.689,-1.7997,-1.9676,-2.1875,-2.1875,-2.1641,-2.121,-2.1689,-2.1621,-2.122,-2.1699,-2.1621,-2.1421,-2.3454,-2.428,-2.4393,-2.5436,-2.6432,-2.7268,0.0,0.0,0.0,0.0,0.0,0.0,0.0,0.0,0.0,0.0,0.0,0.0,0.0,0.0,0.0,0.0,0.0,0.0,-0.4045,-0.4599,-0.4867,-0.4853,-0.4864,-0.4908,-0.4951,-0.4911,-0.4955,-0.5118,-0.5118,-0.5223,-0.543,-0.4507,-0.3937,-0.3732,-0.314,-0.3174,-0.3616,-0.3744,-0.4431,-0.5382,-0.5192,-0.5127,-0.5196,0.0,0.0,0.0,0.0,0.0,0.0,0.0,0.0,0.0,-0.4559,-0.4528,-0.4491,-0.4491,-0.4491,-0.4598,-0.5085,-0.6047,-0.7022,-0.7512,-0.9246,-1.1049,-1.2058,-1.2205,-1.2747,-1.4721,-1.4416,-1.3854,-1.3941,0.0,0.0,0.0,0.0,0.0,0.0,0.0,0.0,0.0,0.0,0.0,0.0,0.0,0.0,0.0,0.0,0.0,0.0,0.0,0.0,0.0,0.0,0.0,0.0,0.0,-1.5116,-1.5801,-1.735,-1.9097,-2.0997,-2.0997,-2.0928,-2.0771,-2.0938,-2.0928,-2.0771,-2.0938,-2.0918,-2.0918,-2.2171,-2.3095,-2.3849,-2.4858,-2.5883,-2.6738,0.0,0.0,0.0,0.0,0.0,0.0,0.0,0.0,0.0,0.0,0.0,0.0,0.0,0.0,0.0,0.0,0.0,0.0,0.0,0.0,-0.4684,-0.4975,-0.4972,-0.4918,-0.483,-0.4887,-0.486,-0.4738,-0.4914,-0.5094,-0.5274,-0.4904,-0.4508,-0.4117,-0.4089,-0.4047,-0.4004,-0.4237,-0.4728,-0.5382,-0.5192,-0.5137,-0.5223,0.0,0.0,0.0,0.0,0.0,0.0,0.0,0.0,0.0,-0.4491,-0.4491,-0.4491,-0.4491,-0.4677,-0.4976,-0.5378,-0.6473,-0.7645,-0.8271,-1.0033,-1.1786,-1.2435,-1.293,-1.3655,-1.4894,-1.4576,-1.4122,-1.4242,0.0,0.0,0.0,0.0,0.0,0.0,0.0,0.0,0.0,0.0,0.0,0.0,0.0,0.0,0.0,0.0,0.0,0.0,0.0,0.0,0.0,0.0,0.0,0.0,0.0,0.0,-1.4977,-1.5994,-1.7565,-1.9545,-1.9897,-2.0096,-2.0106,-2.0234,-2.0303,-2.0322,-2.0537,-2.0605,-2.0644,-2.1231,-2.1922,-2.275,-2.3343,-2.4213,-2.5114,0.0,0.0,0.0,0.0,0.0,0.0,0.0,0.0,0.0,0.0,0.0,0.0,0.0,0.0,0.0,0.0,0.0,0.0,0.0,0.0,-0.4301,-0.4964,-0.5088,-0.5013,-0.4718,-0.4847,-0.4775,-0.4511,-0.4891,-0.5066,-0.509,-0.5559,-0.5188,-0.4176,-0.5287,-0.5162,-0.4155,-0.484,-0.5233,-0.5382,-0.5209,-0.5237,-0.5395,-0.5395,0.0,0.0,0.0,0.0,0.0,0.0,0.0,0.0,-0.4491,-0.4491,-0.4491,-0.4491,-0.4921,-0.5433,-0.5569,-0.653,-0.7832,-0.9259,-1.0508,-1.1834,-1.3358,-1.4549,-1.5311,-1.5284,0.0,-1.4202,-1.4436,0.0,0.0,0.0,0.0,0.0,0.0,0.0,0.0,0.0,0.0,0.0,0.0,0.0,0.0,0.0,0.0,0.0,0.0,0.0,0.0,0.0,0.0,0.0,0.0,0.0,0.0,0.0,-1.4276,-1.5489,-1.7721,-1.8709,-1.9214,-1.9307,-1.9697,-1.9853,-1.9883,-2.0321,-2.0488,-2.0488,-2.0488,-2.083,-2.134,-2.134,-2.2013,-2.301,0.0,0.0,0.0,0.0,0.0,0.0,0.0,0.0,0.0,0.0,0.0,0.0,0.0,0.0,0.0,0.0,0.0,0.0,0.0,0.0,-0.4071,-0.4246,-0.4943,-0.5172,-0.4877,-0.487,-0.4826,-0.4672,-0.4738,-0.4847,-0.4941,-0.5301,-0.5336,-0.5111,-0.5497,-0.5446,-0.5098,-0.5272,-0.5365,-0.5392,-0.5358,-0.5365,-0.5395,-0.5395,-0.5267,0.0,0.0,0.0,0.0,0.0,0.0,0.0,-0.4491,-0.4491,-0.4491,-0.4491,-0.4598,-0.4952,-0.6068,-0.6909,-0.7952,-0.9901,-1.1749,-1.3318,-1.4139,-1.4529,-1.4643,-1.4416,-1.4396,-1.4376,0.0,0.0,0.0,0.0,0.0,0.0,0.0,0.0,0.0,0.0,0.0,0.0,0.0,0.0,0.0,0.0,0.0,0.0,0.0,0.0,0.0,0.0,0.0,0.0,-1.1582,-1.1582,-1.1984,0.0,-1.3273,-1.4418,-1.6156,-1.7557,-1.8609,-1.9287,-1.9385,-1.9424,-1.9434,-1.9521,-1.9597,-1.9597,-1.9597,-2.0141,-2.0938,-2.0938,-2.1767,-2.295,0.0,0.0,0.0,0.0,0.0,0.0,0.0,0.0,0.0,0.0,0.0,0.0,0.0,0.0,0.0,0.0,0.0,0.0,0.0,0.0,0.0,-0.4619,-0.5126,-0.5255,-0.4894,-0.4887,-0.4843,-0.4691,-0.4765,-0.4874,-0.4995,-0.5328,-0.5467,-0.5402,-0.5556,-0.5539,-0.5395,-0.5395,-0.5395,-0.5395,-0.5395,-0.5395,-0.5395,-0.5395,-0.5267,-0.509,-0.5015,0.0,0.0,0.0,0.0,0.0,0.0,0.0,-0.4491,-0.4491,-0.4732,-0.514,-0.5873,-0.7017,-0.8553,-1.0699,-1.2104,-1.316,-1.3754,-1.3895,-1.3854,-1.3701,-1.3895,0.0,0.0,0.0,0.0,0.0,0.0,0.0,0.0,0.0,0.0,0.0,0.0,0.0,0.0,0.0,0.0,0.0,0.0,0.0,0.0,0.0,0.0,0.0,0.0,0.0,-1.1223,-1.1322,-1.1542,-1.1877,-1.2207,-1.3262,-1.494,-1.7008,-1.8202,-1.8691,-1.8887,-1.8975,-1.8994,-1.9199,-1.9287,-1.9287,-1.9287,-1.9475,-1.9737,-1.9737,-2.0224,-2.0917,0.0,0.0,0.0,0.0,0.0,0.0,0.0,0.0,0.0,0.0,0.0,0.0,0.0,0.0,0.0,0.0,0.0,0.0,0.0,0.0,0.0,-0.509,-0.5329,-0.5255,-0.4894,-0.4887,-0.4857,-0.4728,-0.4857,-0.4988,-0.5184,-0.5443,-0.5518,-0.5399,-0.5355,-0.5342,-0.5395,-0.5226,-0.5243,-0.5358,-0.5385,-0.5378,-0.5358,-0.5385,-0.525,-0.5063,-0.5063,-0.4904,-0.4653,-0.4653,0.0,0.0,0.0,0.0,-0.4491,-0.4491,-0.4893,-0.5351,-0.546,-0.7007,-0.9126,-1.1299,-1.1971,-1.2298,-1.2852,-1.2979,-1.2966,-1.2913,0.0,0.0,0.0,0.0,0.0,0.0,0.0,0.0,0.0,0.0,0.0,0.0,0.0,0.0,0.0,0.0,0.0,0.0,0.0,0.0,0.0,0.0,0.0,0.0,0.0,-1.0768,-1.0768,-1.1056,-1.1189,-1.1276,-1.1546,-1.2523,-1.4172,-1.6492,-1.7687,-1.792,-1.8159,-1.8315,-1.8412,-1.873,-1.8848,-1.8857,-1.8926,-1.874,-1.8393,-1.8461,-1.8539,-1.8738,0.0,0.0,0.0,0.0,0.0,0.0,0.0,0.0,0.0,0.0,0.0,0.0,0.0,0.0,0.0,0.0,0.0,0.0,-0.0167,0.0,0.0,-0.4148,-0.4957,-0.5255,-0.4894,-0.4887,-0.4877,-0.486,-0.4877,-0.5128,-0.5525,-0.547,-0.5416,-0.5362,-0.457,-0.467,-0.5359,-0.4519,-0.4555,-0.514,-0.5341,-0.5281,-0.5143,-0.5344,-0.5189,-0.4918,-0.4918,-0.4752,-0.4522,-0.4522,-0.4508,0.0,0.0,0.0,-0.4491,-0.4491,-0.457,-0.4759,-0.5351,-0.7007,-0.9053,-1.0975,-1.1475,-1.163,-1.2007,0.0,-1.1977,0.0,0.0,0.0,0.0,0.0,0.0,0.0,0.0,0.0,0.0,0.0,0.0,0.0,0.0,0.0,0.0,0.0,0.0,0.0,0.0,0.0,0.0,0.0,-0.9168,-0.98,-0.9869,0.0,-0.9889,-1.0147,-1.0421,-1.0713,-1.2049,-1.3202,-1.4156,-1.5299,-1.6454,-1.7451,-1.7096,-1.7165,-1.7529,-1.7207,-1.7048,-1.7077,-1.749,-1.7641,-1.7598,-1.7959,-1.8286,-1.8633,0.0,0.0,0.0,0.0,0.0,0.0,0.0,0.0,0.0,0.0,0.0,0.0,0.0,0.0,0.0,0.0,0.0,-0.0199,-0.0705,-0.1977,-0.3078,-0.3949,-0.4781,-0.5135,-0.4894,-0.4833,-0.4833,-0.4887,-0.4833,-0.5023,-0.5494,-0.5426,-0.5484,-0.5606,-0.5183,-0.517,-0.5355,-0.4409,-0.4411,-0.5071,-0.4748,-0.48,-0.5117,-0.5337,-0.5179,-0.485,-0.4529,-0.4485,-0.4545,-0.4129,-0.4229,-0.4491,-0.4491,0.0,0.0,0.0,-0.4491,-0.4736,-0.5819,-0.6926,-0.8183,-0.9996,-1.0575,-1.0768,-1.1102,-1.1169,-1.1129,0.0,0.0,0.0,0.0,0.0,0.0,0.0,0.0,0.0,0.0,0.0,0.0,0.0,0.0,0.0,0.0,0.0,0.0,0.0,0.0,0.0,0.0,-0.8236,-0.851,-0.8858,-0.9234,0.0,-0.9411,-0.9726,-0.994,-1.0104,-1.1609,-1.2671,-1.3305,-1.4523,-1.5787,-1.7012,-1.6785,-1.6804,-1.7002,-1.6775,-1.6697,-1.6716,-1.6943,-1.7021,-1.7041,-1.7194,-1.7568,-1.7939,0.0,0.0,0.0,0.0,0.0,0.0,0.0,0.0,0.0,0.0,0.0,0.0,0.0,0.0,0.0,0.0,0.0,-0.0263,-0.0938,-0.1842,-0.2744,-0.3647,-0.4392,-0.4848,-0.4891,-0.4806,-0.4785,-0.486,-0.4748,-0.4952,-0.5395,-0.5436,-0.559,-0.5764,-0.5294,-0.5072,-0.4984,-0.3796,-0.3857,-0.4662,-0.3964,-0.4199,-0.4971,-0.48,-0.4769,-0.4736,-0.3924,-0.3924,-0.4269,-0.372,-0.3834,-0.4236,-0.4436,-0.4491,0.0,0.0,0.0,-0.5034,-0.6263,-0.6929,-0.7622,-0.9179,-0.9733,-0.9973,0.0,0.0,0.0,0.0,0.0,0.0,0.0,0.0,0.0,0.0,0.0,0.0,0.0,0.0,0.0,0.0,0.0,0.0,0.0,0.0,0.0,0.0,0.0,0.0,-0.7302,-0.7429,-0.77,-0.8066,-0.857,-0.8906,-0.9104,-0.9419,-0.9613,-0.9708,-1.0821,-1.1712,-1.2476,-1.3558,-1.4849,-1.621,-1.6317,-1.6424,-1.6553,-1.6414,-1.6365,-1.6375,-1.6482,-1.6562,-1.6541,-1.6658,-1.6911,-1.7217,0.0,0.0,0.0,0.0,0.0,0.0,0.0,0.0,0.0,0.0,0.0,0.0,0.0,0.0,0.0,0.0,0.0,-0.0034,-0.0067,-0.0873,-0.1774,-0.2711,-0.3609,0.0,-0.4894,-0.4881,-0.484,-0.4704,-0.4694,-0.4952,-0.5399,-0.5545,-0.5657,-0.5728,-0.388,-0.3418,-0.3949,-0.2177,-0.2305,-0.3633,-0.3018,-0.354,-0.4582,-0.3327,-0.363,-0.4529,-0.3096,-0.2912,-0.338,0.0,0.0,0.0,0.0,0.0,-0.4491,0.0,0.0,0.0,-0.6394,-0.7112,-0.7913,-0.8965,-0.9244,-0.9337,0.0,0.0,0.0,0.0,0.0,0.0,0.0,0.0,0.0,0.0,0.0,0.0,0.0,0.0,0.0,0.0,0.0,0.0,0.0,0.0,0.0,0.0,0.0,0.0,-0.6651,-0.6,-0.629,-0.7687,-0.7768,-0.8121,-0.8805,-0.9091,-0.9377,-0.9715,-0.9766,-1.0551,-1.1947,-1.2031,-1.308,-1.4912,-1.5312,-1.5713,-1.6095,-1.5654,-1.5478,-1.5518,-1.5968,-1.6124,-1.6183,-1.6541,-1.6716,-1.6736,0.0,0.0,0.0,0.0,0.0,0.0,0.0,0.0,0.0,0.0,0.0,0.0,0.0,0.0,0.0,0.0,0.0,0.0,0.0,-0.0818,-0.1684,-0.2538,-0.333,-0.4055,-0.4746,-0.4772,-0.4745,-0.4691,-0.4691,-0.4823,-0.5077,-0.5131,-0.5186,-0.5182,-0.4325,-0.3949,-0.3866,-0.2069,-0.2193,-0.3547,-0.2862,-0.3433,-0.4649,-0.4252,-0.4372,-0.4555,-0.357,0.0,0.0,0.0,0.0,0.0,0.0,0.0,-0.4491,-0.4491,-0.4976,-0.5651,-0.6394,-0.7128,-0.7907,-0.8744,-0.8938,-0.8964,-0.9098,0.0,0.0,0.0,0.0,0.0,0.0,0.0,0.0,0.0,0.0,0.0,0.0,0.0,0.0,0.0,0.0,0.0,0.0,0.0,0.0,0.0,0.0,0.0,-0.5923,-0.5651,-0.595,-0.6966,-0.7456,-0.8049,-0.8778,-0.8884,-0.9011,-0.9125,-0.9567,-1.0196,-1.102,-1.1888,-1.2806,-1.3727,-1.4329,-1.4844,-1.5263,-1.5068,-1.4844,-1.463,-1.5371,-1.5478,-1.5322,-1.5723,-1.6064,-1.6299,0.0,0.0,0.0,0.0,0.0,0.0,0.0,0.0,0.0,0.0,0.0,0.0,0.0,0.0,0.0,0.0,0.0,0.0,0.0,-0.054,-0.1352,-0.2461,-0.301,-0.3741,-0.4691,-0.4741,-0.4718,-0.4641,-0.4641,-0.4694,-0.4843,-0.4843,-0.487,-0.487,-0.414,-0.3704,-0.3407,-0.187,-0.1974,-0.3074,-0.2605,-0.3336,-0.4643,-0.4261,-0.4389,-0.4624,0.0,0.0,0.0,0.0,0.0,0.0,0.0,0.0,0.0,-0.4491,-0.514,-0.5982,-0.6475,-0.7316,-0.8129,-0.8374,-0.8619,-0.8699,-0.8365,0.0,0.0,0.0,0.0,0.0,0.0,0.0,0.0,0.0,0.0,0.0,0.0,0.0,0.0,0.0,0.0,0.0,0.0,0.0,0.0,0.0,0.0,0.0,-0.5896,-0.5624,-0.5842,-0.6588,-0.7563,-0.8295,-0.8804,-0.8804,-0.8804,-0.8811,-0.9256,-0.9757,-1.0303,-1.1201,-1.1947,-1.26,-1.3113,-1.3888,-1.4813,-1.4813,-1.4697,-1.4591,-1.5157,-1.5244,-1.5029,-1.5312,-1.5596,-1.588,0.0,0.0,0.0,0.0,0.0,0.0,0.0,0.0,0.0,0.0,0.0,0.0,0.0,0.0,0.0,0.0,0.0,0.0,0.0,0.0,-0.0738,-0.2421,-0.2612,-0.3325,-0.4662,-0.4833,-0.4765,-0.4491,-0.4494,-0.4573,-0.4684,-0.4684,-0.4762,-0.4806,-0.3237,-0.2534,-0.2456,-0.152,-0.1518,-0.2188,-0.2232,-0.3213,-0.4507,-0.3103,0.0,0.0,-0.3107,-0.3013,0.0,-0.3408,0.0,0.0,0.0,0.0,-0.4491,-0.4491,-0.55,-0.6588,0.0,0.0,0.0,0.0,0.0,0.0,-0.7566,0.0,0.0,0.0,0.0,0.0,0.0,0.0,0.0,0.0,0.0,0.0,0.0,0.0,0.0,0.0,0.0,0.0,0.0,0.0,0.0,0.0,0.0,-0.7402,-0.6669,-0.595,-0.59,-0.6615,-0.8049,-0.8804,-0.8804,-0.8804,-0.8804,-0.8804,-0.8804,-0.9133,-0.9762,-0.9788,-1.0397,-1.1457,-1.1683,-1.2891,-1.4718,-1.4746,-1.498,-1.5342,-1.5361,-1.5342,-1.5342,-1.5391,-1.54,-1.541,0.0,0.0,0.0,0.0,0.0,0.0,0.0,0.0,0.0,0.0,0.0,0.0,0.0,0.0,0.0,0.0,0.0,0.0,0.0,0.0,-0.0678,-0.221,-0.2312,-0.3022,-0.4528,-0.4674,-0.4657,-0.4491,-0.46,-0.4621,-0.4552,-0.4552,-0.4576,-0.4564,-0.355,-0.3078,-0.2983,-0.1652,-0.1526,-0.2261,-0.2826,-0.3307,0.0,0.0,0.0,0.0,0.0,-0.407,-0.4235,0.0,-0.4181,-0.4236,0.0,0.0,-0.4491,-0.4491,-0.55,-0.6588,-0.6588,0.0,0.0,0.0,0.0,0.0,0.0,0.0,0.0,0.0,0.0,0.0,0.0,0.0,0.0,0.0,0.0,0.0,0.0,0.0,0.0,0.0,0.0,0.0,0.0,0.0,0.0,0.0,0.0,-0.7616,-0.7396,-0.7203,-0.7176,-0.7396,-0.8315,-0.8804,-0.8804,-0.8804,-0.8804,-0.8804,-0.8804,-0.891,-0.908,-0.9588,-0.9962,-1.0306,-1.0837,-1.1576,-1.2484,-1.3444,-1.375,-1.3643,-1.4221,-1.4465,-1.4494,-1.4844,-1.5146,-1.5371,0.0,0.0,0.0,0.0,0.0,0.0,0.0,0.0,0.0,0.0,0.0,0.0,0.0,0.0,0.0,0.0,0.0,0.0,0.0,0.0,-0.0514,-0.1704,-0.212,-0.2904,-0.41,-0.4499,-0.4675,-0.4586,-0.461,-0.458,-0.4491,-0.4491,-0.4349,-0.4018,-0.3527,-0.3293,-0.3234,-0.2425,-0.2286,0.0,-0.3541,0.0,0.0,-0.4414,-0.4627,0.0,0.0,0.0,-0.4576,-0.4511,-0.4491,0.0,0.0,0.0,0.0,0.0,0.0,-0.6199,-0.6507,-0.7456,-0.8268,0.0,0.0,0.0,-0.773,-0.8114,0.0,0.0,0.0,0.0,0.0,0.0,0.0,0.0,0.0,0.0,0.0,0.0,0.0,0.0,0.0,0.0,0.0,0.0,0.0,0.0,-0.8401,-0.8023,-0.7723,-0.7696,-0.7696,-0.7696,-0.8427,-0.8804,-0.8804,-0.8804,-0.8804,-0.8804,-0.8804,-0.8804,-0.8804,-0.9211,-0.9387,-0.9413,-1.009,-1.0706,-1.1291,-1.2362,-1.2878,-1.3064,-1.3804,-1.4104,-1.4133,-1.4424,-1.4785,-1.5117,0.0,0.0,0.0,0.0,0.0,0.0,0.0,0.0,0.0,0.0,0.0,0.0,0.0,0.0,0.0,0.0,0.0,0.0,0.0,0.0,-0.0337,-0.1062,-0.1897,-0.2741,-0.3556,-0.4227,-0.4577,-0.4667,-0.4556,-0.4491,-0.4491,-0.4491,-0.4098,-0.34,0.0,-0.3345,-0.3204,-0.3428,0.0,-0.337,-0.4181,-0.4517,0.0,0.0,-0.4752,-0.482,-0.4623,-0.4548,-0.4528,-0.4392,-0.4436,0.0,0.0,0.0,0.0,0.0,-0.503,-0.5733,-0.6312,-0.7128,-0.7643,0.0,0.0,0.0,-0.653,-0.7262,0.0,0.0,0.0,0.0,0.0,0.0,0.0,0.0,0.0,0.0,0.0,0.0,0.0,0.0,0.0,0.0,0.0,0.0,0.0,-0.8804,-0.8725,-0.8401,-0.7723,-0.7696,-0.7696,-0.7696,-0.8427,-0.8804,-0.8804,-0.8804,-0.8804,-0.8804,-0.8804,-0.8804,-0.8804,-0.8804,-0.8804,-0.8831,-0.9439,-1.0038,-1.0644,-1.1291,-1.217,-1.3148,-1.3719,-1.3997,-1.4036,-1.4036,-1.4336,-1.4707,0.0,0.0,0.0,0.0,0.0,0.0,0.0,0.0,0.0,0.0,0.0,0.0,0.0,0.0,0.0,0.0,0.0,0.0,0.0,0.0,-0.0317,-0.1063,-0.1265,-0.2029,-0.3406,-0.3518,-0.3884,-0.4535,-0.4505,-0.4491,-0.4491,-0.4491,-0.4098,-0.3428,-0.4015,-0.3566,-0.2508,0.0,0.0,-0.3456,-0.4211,0.0,-0.363,-0.4278,-0.4552,-0.4488,-0.3809,-0.3574,-0.3571,-0.3547,-0.3956,-0.4491,0.0,0.0,0.0,-0.4491,0.0,0.0,0.0,0.0,0.0,0.0,0.0,0.0,-0.8176,-0.8012,-0.7904,0.0,0.0,0.0,0.0,0.0,0.0,0.0,0.0,0.0,0.0,0.0,0.0,0.0,0.0,0.0,0.0,0.0,-0.8804,-0.8804,-0.8235,-0.7857,-0.7696,-0.7696,-0.7696,-0.7696,-0.8427,-0.8804,-0.8804,-0.8804,-0.8804,-0.8804,-0.8804,-0.8804,-0.8804,-0.8804,-0.8804,-0.8811,-0.8929,-0.9061,-0.9237,-0.9909,-1.1277,-1.2941,-1.3075,-1.333,-1.3633,-1.3633,-1.387,-1.4182,0.0,0.0,0.0,0.0,0.0,0.0,0.0,0.0,0.0,0.0,0.0,0.0,0.0,0.0,0.0,0.0,0.0,0.0,0.0,0.0,-0.0175,-0.0546,-0.0902,-0.1492,-0.2345,-0.3009,-0.3568,-0.4059,-0.4358,-0.4491,-0.4491,-0.4098,-0.3511,-0.2815,-0.3176,-0.2732,-0.1758,0.0,-0.3483,-0.2899,-0.4042,0.0,-0.3932,-0.4349,-0.4267,-0.3901,-0.3456,-0.3287,-0.3287,-0.3287,-0.3846,0.0,0.0,-0.4491,-0.4491,0.0,-0.5007,-0.555,0.0,0.0,0.0,-0.6681,0.0,0.0,0.0,-0.7789,-0.8063,0.0,0.0,0.0,0.0,0.0,0.0,0.0,0.0,0.0,0.0,0.0,0.0,0.0,0.0,0.0,0.0,0.0,-0.8804,-0.8804,-0.8129,-0.7696,-0.7696,-0.7696,-0.7696,-0.7696,-0.8427,-0.8804,-0.8804,-0.8804,-0.8804,-0.8804,-0.8804,-0.8804,-0.8804,-0.8804,-0.8804,-0.8804,-0.8804,-0.8982,-0.9335,-0.9666,-1.0804,-1.2344,-1.2344,-1.2708,-1.3193,-1.3193,-1.3467,-1.3763,0.0,0.0,0.0,0.0,0.0,0.0,0.0,0.0,0.0,0.0,0.0,0.0,0.0,0.0,0.0,0.0,0.0,0.0,0.0,0.0,0.0,0.0,-0.0573,-0.0997,-0.125,-0.2363,-0.3156,-0.354,0.0,0.0,-0.4267,-0.3594,-0.2843,-0.1981,-0.2148,-0.1703,-0.1006,0.0,0.0,-0.212,0.0,-0.4184,-0.407,-0.407,-0.368,-0.3148,-0.2954,-0.2982,-0.3093,-0.3093,-0.3707,-0.4491,-0.4491,-0.4491,0.0,0.0,0.0,0.0,0.0,0.0,0.0,0.0,0.0,-0.7127,0.0,0.0,0.0,0.0,0.0,0.0,0.0,0.0,0.0,0.0,0.0,0.0,0.0,0.0,0.0,0.0,0.0,0.0,0.0,0.0,-0.8692,-0.8586,-0.7862,-0.7372,-0.7283,-0.7423,-0.7482,-0.7482,-0.8348,-0.8804,-0.8804,-0.8804,-0.8804,-0.8804,-0.8804,-0.8804,-0.8804,-0.8804,-0.8804,-0.8804,-0.8804,-0.9113,-0.9614,-0.9614,-1.0312,-1.1441,-1.169,-1.2236,-1.2905,-1.2905,-1.3096,-1.3389,0.0,0.0,0.0,0.0,0.0,0.0,0.0,0.0,0.0,0.0,0.0,0.0,0.0,0.0,0.0,0.0,0.0,0.0,0.0,0.0,0.0,0.0,-0.0088,-0.0434,-0.1096,-0.1268,-0.2016,-0.3335,0.0,0.0,0.0,0.0,-0.2565,-0.1257,-0.1898,-0.1424,-0.0252,0.0,-0.2508,0.0,-0.2899,-0.3093,0.0,-0.2454,-0.2397,-0.2259,-0.1591,-0.1758,-0.2315,0.0,-0.3287,-0.4491,0.0,-0.4491,-0.4491,0.0,0.0,0.0,0.0,0.0,0.0,0.0,-0.5624,0.0,0.0,0.0,0.0,0.0,0.0,0.0,0.0,0.0,0.0,0.0,0.0,0.0,0.0,0.0,0.0,0.0,0.0,0.0,0.0,0.0,0.0,-0.7865,-0.6922,-0.618,-0.5778,-0.6362,-0.6723,-0.6723,-0.8076,-0.8804,-0.8804,-0.8804,-0.8804,-0.8804,-0.8804,-0.8804,-0.8804,-0.8804,-0.8804,-0.8804,-0.8804,-0.8831,-0.891,-0.891,-0.9361,-1.0141,-1.1341,-1.2236,-1.2905,-1.2905,-1.2935,-1.2974,0.0,0.0,0.0,0.0,0.0,0.0,0.0,0.0,0.0,0.0,0.0,0.0,0.0,0.0,0.0,0.0,0.0,0.0,0.0,0.0,0.0,0.0,0.0,0.0,-0.0461,-0.0875,-0.1617,-0.2676,-0.2704,0.0,0.0,0.0,0.0,0.0,-0.0978,0.0,-0.0084,0.0,-0.1424,0.0,0.0,0.0,0.0,-0.2343,-0.2565,-0.2035,-0.0867,-0.0922,-0.1563,0.0,-0.2286,0.0,0.0,0.0,0.0,0.0,0.0,0.0,0.0,0.0,0.0,0.0,0.0,0.0,-0.6276,0.0,-0.7368,0.0,0.0,0.0,0.0,0.0,0.0,0.0,0.0,0.0,0.0,0.0,0.0,0.0,0.0,0.0,0.0,0.0,0.0,0.0,0.0,-0.5999,-0.5529,-0.6199,-0.6588,-0.6588,-0.8023,-0.8804,-0.8804,-0.8804,-0.8804,-0.8804,-0.8804,-0.8804,-0.8804,-0.8804,-0.8804,-0.8804,-0.8804,-0.8804,-0.8804,-0.8804,-0.9185,-0.9865,-1.0415,-1.1074,-1.1742,-1.2113,-1.2261,-1.232,0.0,0.0,0.0,0.0,0.0,0.0,0.0,0.0,0.0,0.0,0.0,0.0,0.0,0.0,0.0,0.0,0.0,0.0,0.0,0.0,0.0,0.0,0.0,0.0,0.0,0.0,-0.1171,-0.1895,-0.1905,0.0,0.0,0.0,0.0,0.0,0.0,0.0,-0.0056,0.0,-0.0671,-0.0056,-0.0811,-0.0895,-0.0727,-0.1924,-0.2202,-0.173,-0.0448,-0.0616,-0.1369,-0.1174,-0.1591,0.0,-0.2202,0.0,0.0,0.0,0.0,0.0,-0.4432,0.0,0.0,0.0,0.0,0.0,0.0,0.0,0.0,0.0,0.0,0.0,0.0,0.0,0.0,0.0,0.0,0.0,0.0,0.0,0.0,0.0,0.0,0.0,0.0,0.0,0.0,0.0,-0.6232,0.0,-0.5166,-0.6039,-0.655,-0.6583,-0.8023,-0.8804,-0.8804,-0.8804,-0.8804,-0.8804,-0.8804,-0.8804,-0.8804,-0.8804,-0.8804,-0.8804,-0.8804,-0.8804,-0.8804,-0.8804,-0.9087,-0.951,-0.951,-0.9814,-1.0364,-1.1216,-1.1641,-1.1888,0.0,0.0,0.0,0.0,0.0,0.0,0.0,0.0,0.0,0.0,0.0,0.0,0.0,0.0,0.0,0.0,0.0,0.0,0.0,0.0,0.0,0.0,0.0,0.0,0.0,0.0,0.0,-0.1143,-0.1136,-0.1146,0.0,0.0,-0.0727,-0.0028,0.0,0.0,-0.0056,-0.0783,-0.0671,-0.0056,-0.0811,-0.1507,-0.1981,0.0,-0.0532,-0.1034,-0.028,0.0,0.0,-0.134,-0.1591,0.0,0.0,0.0,0.0,0.0,0.0,0.0,0.0,0.0,0.0,-0.4491,0.0,0.0,0.0,0.0,-0.5977,0.0,0.0,0.0,0.0,0.0,-0.703,-0.5555,-0.5313,0.0,0.0,0.0,0.0,0.0,0.0,0.0,0.0,0.0,0.0,0.0,-0.524,0.0,-0.4266,-0.5622,-0.6467,-0.6605,-0.8023,-0.8804,-0.8804,-0.8804,-0.8804,-0.8804,-0.8804,-0.8804,-0.8804,-0.8804,-0.8804,-0.8804,-0.8804,-0.8804,-0.8804,-0.8804,-0.8804,-0.8831,-0.8831,-0.8831,-0.9035,-1.0338,-1.1241,-1.1789,0.0643,0.0727,0.0727,0.0727,0.0,0.0,0.0,0.0157,0.0,0.0,0.0,0.0,0.0,0.0,0.0,0.0,0.0,0.0,0.0,0.0,0.0,0.0,0.0,0.0,0.0,0.0,0.0,0.0,0.0,0.0,-0.109,-0.0588,-0.0252,0.0,0.0,0.0,0.0,0.0,0.0,0.0,0.0,-0.0811,-0.1424,0.0,0.0,-0.173,-0.1006,-0.0727,0.0,-0.0448,-0.0532,-0.0755,-0.0755,-0.109,-0.1535,-0.1786,-0.2565,0.0,0.0,0.0,-0.4491,-0.4491,0.0,0.0,0.0,0.0,0.0,0.0,0.0,0.0,0.0,0.0,-0.6438,-0.5452,-0.5303,-0.4896,0.0,0.0,0.0,0.0,0.0,0.0,0.0,0.0,0.0,-0.5151,-0.4873,-0.4522,0.0,-0.5541,-0.6416,-0.6467,-0.7978,-0.8804,-0.8804,-0.8804,-0.8804,-0.8804,-0.8804,-0.8804,-0.8804,-0.8804,-0.8804,-0.8804,-0.8804,-0.8804,-0.8804,-0.8804,-0.8804,-0.8804,-0.8804,-0.8804,-0.891,-0.9814,-1.0287,-1.0542,0.1006,0.1535,0.0,0.0,0.0,0.0,0.0,0.0,0.0,0.0,0.0,0.0,0.0,0.0,0.0,0.0,0.0,0.0,0.0,0.0,0.0,0.0,0.0,0.0,0.0,0.0,0.0,0.0,0.0,-0.0255,-0.0699,-0.0224,0.0,0.0,0.0,0.0,0.0,0.0,0.0,0.0,0.0,-0.0448,0.0,0.0,-0.1563,0.0,0.0,-0.056,-0.0364,-0.0084,0.0,0.0,0.0,-0.0336,-0.0755,-0.1034,-0.1786,-0.2565,-0.2843,-0.3287,0.0,0.0,-0.3873,0.0,-0.4098,0.0,0.0,0.0,0.0,0.0,0.0,0.0,-0.5832,-0.5099,-0.4978,-0.4657,0.0,-0.3604,0.0,0.0,0.0,0.0,0.0,0.0,-0.4759,-0.4907,-0.4534,-0.4198,0.0,0.0,-0.6349,-0.6406,-0.7961,-0.8804,-0.8804,-0.8804,-0.8804,-0.8804,-0.8804,-0.8804,-0.8804,-0.8804,-0.8804,-0.8804,-0.8804,-0.8804,-0.8804,-0.8804,-0.8804,-0.8804,-0.8804,-0.8804,-0.8857,-0.929,-0.9588,-0.9891,0.1204,0.0,0.0,0.0,0.1629,0.0,0.0,0.0,0.0,0.0,0.0,0.0,0.0,0.0,0.0,0.0,0.0,0.0,0.0,0.0,0.0,0.0,0.0,0.0,0.0,0.0,0.0,0.0,0.0,0.0,0.0,0.0,0.0,0.0,0.0,0.0,0.0,0.0,0.0,0.0,0.0,-0.0448,-0.109,-0.1062,0.0,-0.1952,-0.056,-0.0476,-0.095,-0.0224,0.0,0.0,0.0,0.0,-0.014,-0.0838,-0.1062,-0.1257,-0.1952,-0.2174,-0.2202,-0.2202,0.0,0.0,0.0,0.0,-0.4622,0.0,0.0,0.0,0.0,0.0,0.0,-0.4521,-0.4373,-0.4176,-0.3667,0.0,0.0,0.0,0.0,0.0,0.0,-0.4228,-0.4056,-0.5135,-0.4206,-0.3662,0.0,0.0,0.0,-0.6381,-0.7922,-0.8752,-0.8804,-0.8804,-0.8804,-0.8804,-0.8804,-0.8804,-0.8804,-0.8804,-0.8804,-0.8804,-0.8804,-0.8804,-0.8804,-0.8804,-0.8804,-0.8804,-0.8804,-0.8804,-0.8804,-0.8804,-0.9211,-0.984,0.2865,0.3873,0.4184,0.0,0.2265,0.1727,0.0,0.0,0.0,0.0,0.0,0.0,0.0,0.0,0.0,0.0,0.0,0.0,0.0,0.0,0.0,0.0,0.0,0.0,0.0,0.0,0.0,0.0,0.0,0.0,0.0,0.0,0.0,0.0,0.0,0.0,0.0,0.0,0.0,0.0,0.0,-0.0448,0.0,0.0,-0.0727,-0.134,-0.095,-0.0588,-0.0252,-0.0056,0.0,0.0,0.0,0.0,-0.0028,-0.0224,-0.0671,-0.1146,-0.134,-0.1786,-0.2202,-0.2202,-0.2343,-0.248,0.0,0.0,0.0,0.0,0.0,0.0,0.0,0.0,0.0,-0.4675,-0.416,-0.3751,0.0,0.0,0.0,-0.3747,0.0,0.0,0.0,-0.3777,-0.3733,-0.4012,-0.3777,0.0,0.0,0.0,0.0,-0.6223,-0.7379,-0.8235,-0.8804,-0.8804,-0.8804,-0.8804,-0.8804,-0.8804,-0.8804,-0.8804,-0.8804,-0.8804,-0.8804,-0.8804,-0.8804,-0.8804,-0.8804,-0.8804,-0.8804,-0.8804,-0.8804,-0.8804,-0.891,-0.9087,0.3582,0.0,0.0,0.292,0.0,0.0,0.03,0.0,0.0,0.0,0.0,0.0,0.0,0.0,0.0,0.0,0.0,0.0,0.0,0.0,0.0,0.0,0.0,0.0,0.0,0.0,0.0,0.0,0.0,0.0,0.0,0.0,0.0,0.0,0.0,0.0,0.0,0.0,0.0,0.0,0.0,0.0,0.0,-0.0168,-0.0252,-0.0615,-0.0615,-0.0364,0.0,0.0,0.0,0.0,0.0,0.0,0.0,0.0,-0.028,-0.0615,-0.0615,-0.0923,-0.1229,-0.1229,-0.148,-0.173,-0.173,-0.2313,-0.2954,0.0,0.0,0.0,0.0,0.0,0.0,-0.433,-0.39,0.0,0.0,0.0,0.0,0.0,0.0,0.0,0.0,0.0,0.0,0.0,0.0,0.0,0.0,0.0,0.0,0.0,-0.6691,-0.7429,-0.783,-0.783,-0.783,-0.783,-0.8156,-0.8321,-0.8321,-0.8646,-0.8804,-0.8804,-0.8804,-0.8804,-0.8804,-0.8804,-0.8804,-0.8804,-0.8804,-0.8804,-0.8804,-0.8804,-0.8804,-0.8804,0.3791,0.0,0.0,0.0,0.0,0.0,0.0,0.0,0.0,0.0,0.0,0.0,0.0,0.0,0.0,0.0,0.0,0.0,0.0,0.0,0.0,0.0,0.0,0.0,0.0,0.0,0.0,0.0,0.0,0.0,0.0,0.0,0.0,0.0,0.0,0.0,0.0,0.0,0.0,0.0,0.0,0.0,0.0,0.0,0.0,0.0,0.0,0.0,0.0,0.0,0.0,0.0,0.0,0.0,0.0,0.0,0.0,0.0,0.0,0.0,0.0,0.0,-0.0476,-0.095,-0.095,-0.1535,-0.2258,-0.301,-0.3123,0.0,0.0,0.0,0.0,0.0,0.0,0.0,0.0,0.0,0.0,0.0,0.0,0.0,0.0,0.0,0.0,0.0,0.0,0.0,0.0,0.0,0.0,0.0,-0.6053,0.0,-0.675,0.0,-0.6588,-0.6615,-0.7262,-0.7563,-0.7589,-0.8209,-0.8507,-0.8507,-0.8619,-0.8646,-0.8672,-0.8752,-0.8804,-0.8804,-0.8804,-0.8804,-0.8804,-0.8804,-0.8804,-0.8804,0.3939,0.0,0.0,0.0,0.0,0.2386,0.0299,0.0,0.0,0.0,0.0,0.0,0.0,0.0,0.0,0.0,0.0,0.0,0.0,0.0,0.0,0.0,0.0,0.0,0.0,0.0,0.0,0.0,0.0,0.0,0.0,0.0,0.0,0.0,0.0,0.0,0.0,0.0,0.0,0.0,0.0,0.0,0.0,0.0,0.0,0.0,0.0,0.0,0.0,0.0,0.0,0.0,0.0,0.0,0.0,0.0,0.0,0.0,0.0,0.0,0.0,0.0,-0.0084,-0.0196,-0.0196,-0.0755,-0.1507,-0.2232,-0.2772,-0.3311,-0.4027,0.0,0.0,0.0,0.0,0.0,0.0,0.0,0.0,0.0,0.0,0.0,0.0,0.0,0.0,0.0,0.0,0.0,0.0,0.0,0.0,0.0,0.0,0.0,0.0,0.0,0.0,-0.6615,-0.6723,-0.6804,-0.6804,-0.6939,-0.6993,-0.702,-0.7643,-0.7883,-0.7937,-0.8533,-0.8804,-0.8804,-0.8804,-0.8804,-0.8804,-0.8804,-0.8804,-0.8804,0.0,0.0,0.0,0.0,0.0,0.0,0.0,0.0,0.0,0.0,0.0,0.0,0.0,0.0,0.0,0.0,0.0,0.0185,0.0655,0.0616,0.078,0.126,0.0825,0.0,0.0573,0.0582,0.0578,0.056,0.0,0.0,0.056,0.056,0.0,0.0,0.0,0.0,0.0,0.0,0.0,0.0,0.0,0.0,0.0,0.0,0.0,0.0,0.0,0.0,0.0,0.0,0.0,0.0,0.0,0.0,0.0,0.0,0.0,0.0,0.0,0.0,0.0,0.0,0.0,0.0,0.0,-0.028,-0.0727,-0.148,-0.1796,-0.227,-0.3339,-0.3352,0.0,0.0,0.0,0.0,0.0,0.0,0.0,0.0,0.0,0.0,0.0,0.0,0.0,0.0,0.0,0.0,0.0,0.0,0.0,0.0,0.0,0.0,0.0,0.0,0.0,-0.5527,-0.5873,-0.6036,-0.6064,-0.6826,-0.7182,-0.7208,-0.7937,-0.8262,-0.8295,-0.8646,-0.8804,-0.8804,-0.8804,-0.8804,-0.8804,-0.8804,-0.8804,-0.8804,0.0,0.6198,0.0,0.0,0.3265,0.0,0.0357,0.0,0.0,0.0,0.0,0.0,0.0,0.0,0.0,0.0,0.0187,0.0581,0.1262,0.1371,0.1734,0.2461,0.1749,0.132,0.1341,0.134,0.134,0.0,0.0,0.0,0.0,0.0,0.0,0.0,0.0,0.0,0.0,0.0,0.0,0.0,0.0,0.0,0.0,0.0,0.0,0.0,0.0,0.0,0.0,0.0,0.0,0.0,0.0,0.0,0.0,0.0,0.0,0.0,0.0,0.0,0.0,0.0,0.0,0.0,0.0,0.0,-0.0196,-0.095,-0.1117,-0.1453,-0.2556,-0.2625,0.0,0.0,0.0,0.0,0.0,0.0,0.0,0.0,0.0,0.0,0.0,0.0,0.0,0.0,0.0,0.0,0.0,0.0,0.0,0.0,0.0,0.0,-0.4708,0.0,-0.4491,0.0,-0.503,-0.5296,-0.5324,-0.6497,-0.7015,-0.7069,-0.7771,-0.8176,-0.8342,-0.8507,-0.848,-0.8374,-0.8672,-0.8699,-0.8593,-0.8752,-0.8804,-0.8804,0.0,0.0,0.0,0.0,0.0,0.0,0.0,0.0,0.0,0.0,0.0,0.0,0.0,0.0,0.0,0.0,0.074,0.1223,0.1299,0.1978,0.2405,0.2489,0.2232,0.2099,0.2093,0.2093,0.2093,0.0,0.0,0.0,0.0,0.0,0.0,0.0,0.0,0.0,0.0,0.028,0.0,0.0,0.0,0.0,0.0,0.0,0.0,0.0,0.0,0.0,0.0,0.0,0.0,0.0,0.0,0.0,0.0,0.0,0.0,0.0,0.0,0.0,0.0,0.0,0.0,0.0,0.0,0.0,-0.0196,-0.095,-0.1524,-0.1981,-0.2227,-0.2069,-0.1995,0.0,0.0,0.0,0.0,0.0,0.0,0.0,0.0,0.0,0.0,0.0,0.0,0.0,0.0,0.0,0.0,0.0,0.0,0.0,0.0,-0.4787,-0.5406,-0.4814,0.0,-0.4491,-0.457,-0.4598,-0.4598,-0.4736,-0.4791,-0.4842,-0.5515,-0.6199,-0.6858,-0.7536,-0.7396,-0.6939,-0.8289,-0.8401,-0.7883,-0.8566,-0.8804,-0.8804,0.0,0.0,0.0,0.0,0.0,0.0,0.0,0.207,0.2011,0.2029,0.1411,0.1177,0.179,0.1864,0.183,0.1744,0.2065,0.2442,0.29,0.3144,0.3473,0.3936,0.3355,0.2989,0.2929,0.2871,0.2871,0.0,0.0,0.0,0.0,0.0,0.0,0.0,0.0,0.109,0.1062,0.0308,0.0,0.0028,0.0476,0.0392,0.0056,0.0504,0.0392,0.0,0.0,0.0,0.0,0.0,0.0,0.0,0.0,0.0,0.0,0.0,0.0,0.0,0.0,0.0,0.0,0.0,0.0,0.0,0.0,0.0,-0.0084,-0.0392,-0.0926,-0.1362,-0.1407,-0.1327,-0.1445,0.0,0.0,0.0,0.0,0.0,0.0,0.0,0.0,0.0,0.0,0.0,0.0,0.0,0.0,0.0,0.0,0.0,0.0,-0.4691,0.0,-0.4625,-0.4893,-0.4625,-0.4491,-0.4491,-0.4491,-0.4491,-0.4519,-0.4921,-0.5332,-0.5773,-0.6036,-0.634,-0.6669,-0.7396,-0.7536,-0.7369,-0.8401,-0.8348,-0.7723,-0.8023,-0.7857,-0.7477,0.6493,0.0,0.6354,0.0,0.5122,0.4736,0.3707,0.3371,0.3377,0.3739,0.3051,0.2651,0.3049,0.3084,0.3066,0.2921,0.3119,0.347,0.3971,0.4086,0.436,0.4864,0.4224,0.0,0.3735,0.368,0.3649,0.3649,0.4208,0.0,0.0,0.0,0.0,0.0,0.1981,0.1758,0.1703,0.0727,0.0448,0.0671,0.0978,0.0923,0.0671,0.0978,0.0783,0.0336,0.0336,0.0336,0.0364,0.0588,0.0643,0.056,0.014,0.014,0.028,0.0056,0.014,0.028,0.0056,0.0,0.0,0.0,0.0,0.0,0.0,0.0,0.0,0.0,-0.033,-0.0649,-0.0649,-0.0649,-0.0811,0.0,0.0,0.0,0.0,0.0,0.0,0.0,-0.0448,-0.0749,-0.065,0.0,0.0,0.0,0.0,0.0,0.0,0.0,0.0,0.0,0.0,0.0,0.0,0.0,-0.4491,-0.4491,-0.4491,-0.4491,-0.4519,-0.5003,-0.5496,-0.5991,-0.5991,-0.5991,-0.6041,-0.6772,-0.6934,-0.6853,-0.7777,-0.7691,-0.7069,-0.7289,-0.7047,-0.6588,0.7061,0.7088,0.6732,0.5578,0.5218,0.4712,0.3594,0.3212,0.3482,0.4534,0.4681,0.4258,0.3203,0.3086,0.3028,0.2919,0.3704,0.4119,0.4,0.4542,0.4891,0.0,0.0,0.4491,0.4491,0.4491,0.4491,0.4491,0.0,0.0,0.3287,0.0,0.0,0.3287,0.3287,0.3314,0.3262,0.173,0.1507,0.212,0.1396,0.1535,0.2093,0.1369,0.109,0.109,0.109,0.109,0.1202,0.1924,0.2174,0.1925,0.0448,0.0504,0.095,0.0224,0.0504,0.0923,0.0196,0.0,0.0,0.0,0.0,0.0,0.0,0.0,0.0,0.0,0.0,0.0,0.0,0.0,0.0,-0.0028,0.0,0.0,0.0,0.0,0.0,0.0,0.0,0.0,0.0,0.0,0.0,0.0,0.0,0.0,0.0,0.0,0.0,-0.4477,-0.4487,0.0,-0.4491,-0.4491,-0.4491,-0.4491,-0.4491,-0.4491,-0.4491,-0.4519,-0.4519,-0.4515,-0.4515,-0.4515,-0.457,-0.5246,-0.5136,-0.468,-0.6068,-0.6177,-0.5624,-0.634,-0.6615,-0.6588,0.681,0.6879,0.6834,0.6345,0.6327,0.6157,0.5723,0.5524,0.554,0.5867,0.5828,0.567,0.5315,0.5158,0.5038,0.0,0.5033,0.5086,0.0,0.5012,0.4988,0.4891,0.4724,0.4597,0.4491,0.4491,0.4491,0.4491,0.0,0.0,0.0,0.4125,0.4125,0.4098,0.3539,0.3345,0.3345,0.2286,0.1981,0.2232,0.248,0.2426,0.2232,0.2538,0.2315,0.1842,0.1842,0.1842,0.1898,0.212,0.2202,0.212,0.1647,0.1675,0.1814,0.1563,0.1312,0.1062,0.0811,0.0392,0.0,0.0,0.0,0.0,0.0,0.0,0.0,0.0,0.0,0.0,0.0,0.0,0.0168,0.0671,0.0,0.0,0.0,0.0,0.0,0.0,0.0,0.0,0.0,-0.0224,0.0,0.0,0.0,0.0,0.0,0.0,0.0,0.0,-0.3956,0.0,-0.4491,-0.4491,-0.4491,-0.4491,-0.4491,-0.4491,-0.4491,-0.4491,-0.4491,-0.4491,-0.4491,-0.4491,-0.4543,-0.5218,-0.5378,-0.5273,-0.6231,-0.6145,-0.5538,-0.576,-0.5546,-0.5171,0.6671,0.6776,0.6814,0.6719,0.6732,0.6725,0.6627,0.6528,0.6433,0.6433,0.6354,0.6279,0.6179,0.6037,0.0,0.581,0.5671,0.0,0.5405,0.5165,0.4982,0.4891,0.4718,0.459,0.4491,0.0,0.0,0.4491,0.4491,0.4491,0.4491,0.4491,0.4491,0.4487,0.3984,0.3763,0.3763,0.2954,0.2788,0.3093,0.3262,0.3231,0.3093,0.3317,0.3065,0.2619,0.2649,0.2649,0.2649,0.2954,0.3065,0.3065,0.3065,0.3065,0.2954,0.2371,0.2091,0.1898,0.1591,0.1174,0.0838,0.0838,0.0838,0.0838,0.0838,0.0838,0.0838,0.0838,0.0838,0.0838,0.0838,0.0838,0.0978,0.1452,0.0,0.0,0.0,0.0,0.0,0.0,0.0,0.0,0.0,0.0168,0.0,0.0,0.0,0.0,0.0,0.0,0.0,-0.3591,-0.3148,0.0,-0.3624,-0.3901,-0.4042,-0.4042,-0.4349,-0.4491,-0.4491,-0.4491,-0.4491,-0.4491,-0.4491,-0.4491,-0.4543,-0.4948,-0.5136,-0.5164,-0.5632,-0.5523,-0.5136,-0.5136,-0.4869,-0.4484,0.6658,0.6695,0.0,0.0,0.6559,0.0,0.6501,0.6385,0.63,0.63,0.63,0.6245,0.6023,0.5908,0.5813,0.5803,0.0,0.0,0.0,0.5084,0.4887,0.4887,0.4655,0.0,0.4491,0.4491,0.4491,0.4491,0.4491,0.4491,0.4491,0.4491,0.4491,0.4491,0.4491,0.4491,0.446,0.3707,0.3818,0.4436,0.3763,0.3876,0.4436,0.3735,0.3428,0.34,0.3456,0.3428,0.3511,0.4239,0.4491,0.4491,0.4491,0.4491,0.4208,0.2788,0.2843,0.3234,0.2482,0.2232,0.2202,0.2202,0.2202,0.2202,0.2202,0.2202,0.2202,0.2202,0.2202,0.2202,0.2202,0.2202,0.2232,0.2286,0.2286,0.2286,0.2286,0.0,0.0,0.0,0.0,0.0,0.0,0.0476,0.0056,0.0,0.0,0.0,0.0,0.0,0.0,-0.22,-0.2147,-0.2147,-0.2202,-0.2871,-0.3259,-0.3314,-0.407,-0.4432,-0.4491,-0.4491,-0.4491,-0.4491,-0.4491,-0.4491,-0.4491,-0.4491,-0.4491,-0.4491,-0.4491,-0.4491,-0.4491,-0.4491,-0.4491,-0.447,0.0,0.0,0.663,0.6446,0.6463,0.6474,0.6368,0.632,0.63,0.63,0.63,0.6286,0.6248,0.6067,0.5928,0.5813,0.56,0.5433,0.5395,0.5084,0.4887,0.4887,0.4655,0.4491,0.4491,0.4491,0.4491,0.4491,0.4491,0.4491,0.4491,0.4491,0.4491,0.4491,0.4491,0.4491,0.4491,0.4294,0.4322,0.4491,0.4322,0.4349,0.4491,0.4294,0.4236,0.4208,0.4236,0.4236,0.4236,0.4436,0.4491,0.4491,0.4491,0.4491,0.4436,0.407,0.368,0.3345,0.3178,0.2676,0.2202,0.2202,0.2202,0.2202,0.2202,0.2202,0.2202,0.2202,0.2202,0.2202,0.2202,0.2202,0.2397,0.301,0.3065,0.3037,0.3037,0.0,0.0,0.0,0.1898,0.1535,0.1146,0.095,0.0615,0.0,0.0,0.0,0.0,0.0,-0.0998,-0.2174,-0.1647,-0.1619,-0.2202,-0.2369,-0.2732,-0.3314,-0.3483,-0.3901,-0.4491,-0.4491,-0.4491,-0.4491,-0.4491,-0.4491,-0.4491,-0.4491,-0.4491,-0.4491,-0.4491,-0.4491,-0.4491,-0.4491,-0.4491,-0.4484,0.6525,0.6539,0.6525,0.6337,0.6364,0.6388,0.6313,0.63,0.63,0.63,0.63,0.6272,0.6162,0.6017,0.5867,0.5718,0.5559,0.547,0.5399,0.5084,0.4887,0.4887,0.4655,0.4491,0.4491,0.4491,0.4491,0.4491,0.4491,0.4491,0.4491,0.4491,0.4491,0.4491,0.4491,0.4491,0.4491,0.4491,0.4491,0.4491,0.4491,0.4491,0.4491,0.4491,0.4491,0.4491,0.4491,0.4491,0.4491,0.4491,0.4491,0.4491,0.4491,0.4491,0.4491,0.4491,0.4211,0.3901,0.3901,0.3594,0.3262,0.3262,0.3262,0.3262,0.3262,0.3262,0.3262,0.3262,0.3262,0.3262,0.3262,0.3262,0.34,0.3818,0.3594,0.3345,0.3314,0.301,0.0,0.276,0.2425,0.2174,0.212,0.1507,0.0923,0.0532,0.0,0.0,0.0,0.0,-0.0364,-0.1174,-0.0811,-0.0783,-0.1202,-0.1535,-0.2063,-0.2788,-0.2788,-0.3231,-0.3987,-0.3959,-0.4153,-0.4491,-0.4491,-0.4491,-0.4491,-0.4491,-0.4491,-0.4491,-0.4491,-0.4491,-0.4484,-0.4389,-0.4433,-0.447,0.6573,0.6528,0.6474,0.6354,0.6313,0.63,0.63,0.63,0.63,0.63,0.63,0.6242,0.601,0.5915,0.5769,0.5603,0.5589,0.5559,0.5405,0.5084,0.4887,0.4887,0.4655,0.4491,0.4491,0.4491,0.4491,0.4491,0.4491,0.4491,0.4491,0.4491,0.4491,0.4491,0.4491,0.4491,0.4491,0.4491,0.4491,0.4491,0.4491,0.4491,0.4491,0.4491,0.4491,0.4491,0.4491,0.4491,0.4491,0.4491,0.4491,0.4491,0.4491,0.4491,0.4491,0.4491,0.4491,0.4491,0.4491,0.4491,0.4491,0.4491,0.4491,0.4491,0.4491,0.4491,0.4491,0.4491,0.4491,0.4491,0.4491,0.4491,0.4491,0.4491,0.3987,0.3511,0.3317,0.0,0.276,0.3345,0.2899,0.2732,0.3259,0.2063,0.1229,0.1118,0.042,0.0,0.0,0.0,0.0,0.0,0.0,0.0,0.0,-0.0615,-0.1312,-0.2037,-0.2037,-0.2454,-0.3206,-0.3151,-0.3566,-0.4322,-0.4211,-0.4208,-0.4322,-0.4322,-0.4322,-0.4322,-0.446,-0.4491,-0.4474,-0.4297,-0.4358,-0.4453,0.687,0.6563,0.6504,0.6484,0.6378,0.63,0.63,0.63,0.63,0.63,0.63,0.6242,0.601,0.5973,0.5884,0.5613,0.5589,0.5559,0.5405,0.5084,0.4887,0.4887,0.4655,0.4491,0.4491,0.4491,0.4491,0.4491,0.4491,0.4491,0.4491,0.4491,0.4491,0.4491,0.4491,0.4491,0.4491,0.4491,0.4491,0.4491,0.4491,0.4491,0.4491,0.4491,0.4491,0.4491,0.4491,0.4491,0.4491,0.4491,0.4491,0.4491,0.4491,0.4491,0.4491,0.4491,0.4491,0.4491,0.4491,0.4491,0.4491,0.4491,0.4491,0.4491,0.4491,0.4491,0.4491,0.4491,0.4491,0.4491,0.4491,0.4491,0.4491,0.4491,0.4405,0.4098,0.0,0.0,0.3959,0.3456,0.3846,0.3929,0.3345,0.2536,0.1758,0.1146,0.042,0.0,0.0,0.0,0.0,0.0,0.0,0.0,0.0,-0.0112,-0.0532,-0.1284,-0.1284,-0.1675,-0.2397,-0.2369,-0.2788,-0.3456,-0.2815,-0.2954,-0.3566,-0.3511,-0.3483,-0.3566,-0.4236,-0.4491,-0.4487,-0.4464,-0.447,-0.4484,0.7877,0.7146,0.6773,0.7322,0.6784,0.63,0.63,0.63,0.63,0.63,0.6186,0.6142,0.6152,0.5939,0.5769,0.5708,0.5593,0.547,0.5399,0.5155,0.5002,0.5002,0.4823,0.467,0.4614,0.4532,0.4491,0.4491,0.4491,0.4491,0.4491,0.4491,0.4491,0.4491,0.4491,0.4491,0.4491,0.4491,0.4491,0.4491,0.4491,0.4491,0.4491,0.4491,0.4491,0.4491,0.4491,0.4491,0.4491,0.4491,0.4491,0.4491,0.4491,0.4491,0.4491,0.4491,0.4491,0.4491,0.4491,0.4491,0.4491,0.4491,0.4491,0.4491,0.4491,0.4491,0.4491,0.4491,0.4491,0.4491,0.4491,0.4491,0.4491,0.4491,0.4125,0.0,0.0,0.3622,0.3735,0.3428,0.4042,0.4349,0.3984,0.3262,0.2676,0.2371,0.1257,0.0588,0.0588,0.0224,0.0,0.0,0.0,0.0,0.0,0.0,-0.0168,-0.0504,-0.0504,-0.0895,-0.1619,-0.1619,-0.2009,-0.2676,-0.2343,-0.2397,-0.276,-0.273,-0.2702,-0.2753,-0.3113,-0.3253,-0.3291,-0.3534,-0.3685,-0.3789,0.8764,0.7931,0.7578,0.8352,0.7477,0.6644,0.6644,0.6451,0.63,0.63,0.6159,0.6101,0.6187,0.5847,0.5654,0.5694,0.5525,0.5395,0.5395,0.525,0.512,0.5052,0.4908,0.4758,0.4668,0.4549,0.4491,0.4491,0.4653,0.4653,0.4519,0.4846,0.4818,0.4519,0.4653,0.4653,0.4491,0.4491,0.4491,0.4491,0.4491,0.4491,0.4491,0.4491,0.4491,0.4515,0.468,0.4732,0.4763,0.4924,0.4979,0.4979,0.4979,0.4873,0.4732,0.4732,0.4625,0.4491,0.4491,0.4491,0.4491,0.4491,0.4491,0.4491,0.4491,0.4491,0.4491,0.4491,0.4491,0.4491,0.4491,0.4491,0.4491,0.4491,0.0,0.0,0.0,0.3566,0.3594,0.3652,0.4153,0.4491,0.4491,0.3763,0.3317,0.3372,0.212,0.1284,0.1118,0.0727,0.042,0.0252,0.0084,0.0,0.0,0.0,0.0,0.0,0.0,-0.0308,-0.0838,-0.0838,-0.1257,-0.1924,-0.1758,-0.1786,-0.1952,-0.1952,-0.1952,-0.1947,-0.214,-0.2213,-0.2235,-0.2612,-0.2886,-0.3152,0.8865,0.8882,0.9316,0.938,0.844,0.7706,0.7706,0.6911,0.63,0.63,0.6289,0.6177,0.5864,0.5806,0.5681,0.545,0.5405,0.5395,0.5395,0.5385,0.5255,0.4918,0.4682,0.4518,0.4508,0.4494,0.4491,0.4491,0.5109,0.5109,0.4515,0.5823,0.5741,0.4515,0.5136,0.5085,0.4491,0.4491,0.4491,0.4491,0.4491,0.4491,0.4491,0.4491,0.4491,0.457,0.5191,0.5433,0.5542,0.6204,0.6453,0.6453,0.6453,0.5982,0.5433,0.5433,0.4976,0.4491,0.4491,0.4491,0.4491,0.4491,0.4491,0.4491,0.4491,0.4491,0.4491,0.4491,0.4491,0.4491,0.4491,0.4491,0.4491,0.4491,0.0,0.0,0.4405,0.4405,0.4405,0.4405,0.446,0.4491,0.4491,0.3763,0.3314,0.3314,0.2565,0.1813,0.1146,0.1703,0.173,0.1034,0.0364,0.0,0.0,0.0,0.0,0.0,0.0,-0.0028,-0.0084,-0.0084,-0.0476,-0.1146,-0.0448,-0.056,-0.1174,-0.1174,-0.1174,-0.1256,-0.192,-0.2206,-0.2195,-0.2237,-0.2605,-0.3116,1.0736,1.0305,1.0222,1.0772,0.9291,0.7991,0.7838,0.6855,0.6118,0.6118,0.5959,0.5833,0.5806,0.5637,0.5556,0.5539,0.545,0.5395,0.5395,0.527,0.5169,0.5022,0.4762,0.4634,0.4634,0.4539,0.4708,0.5109,0.5378,0.5601,0.5828,0.6344,0.6068,0.5136,0.5378,0.5136,0.4491,0.4491,0.4491,0.4546,0.4948,0.5109,0.5164,0.5632,0.58,0.5823,0.6091,0.6177,0.6231,0.6507,0.6588,0.6588,0.6588,0.6421,0.6091,0.5624,0.503,0.4491,0.4491,0.4491,0.4491,0.4491,0.4491,0.4491,0.4491,0.4491,0.4515,0.461,0.4634,0.4662,0.4728,0.4745,0.4745,0.4745,0.0,0.4665,0.4731,0.461,0.4525,0.4621,0.4549,0.4491,0.4491,0.4291,0.4135,0.4049,0.3506,0.3,0.2543,0.2313,0.2063,0.1786,0.1062,0.0476,0.0,0.0,0.0,0.0,0.0,0.0,0.0,0.0,-0.014,-0.0392,-0.0112,-0.0168,-0.042,-0.042,-0.042,-0.0446,-0.072,-0.0832,-0.0921,-0.1679,-0.2107,-0.2409,1.1958,1.1421,1.1227,1.1912,1.0372,0.8961,0.878,0.7468,0.647,0.647,0.5989,0.5677,0.5728,0.559,0.5589,0.5913,0.5848,0.5914,0.6207,0.5958,0.5655,0.5328,0.5414,0.5408,0.53,0.5207,0.5386,0.5846,0.6086,0.6335,0.6615,0.7074,0.6659,0.5515,0.5733,0.5355,0.4491,0.4491,0.4625,0.4866,0.5328,0.5651,0.59,0.6394,0.6588,0.6642,0.6858,0.6939,0.6993,0.7208,0.7289,0.7289,0.7289,0.7128,0.6745,0.5787,0.5328,0.5117,0.4869,0.4979,0.5062,0.4598,0.4653,0.4759,0.4546,0.4528,0.4593,0.467,0.4728,0.4796,0.487,0.5127,0.5214,0.4948,0.5065,0.5118,0.4935,0.4738,0.4655,0.4684,0.4627,0.4542,0.4494,0.4631,0.4675,0.4569,0.4293,0.4072,0.3895,0.2878,0.2409,0.2635,0.1928,0.1164,0.0341,0.0113,0.0,0.0,0.0,0.0,0.0,0.0,0.0,0.0,0.0,0.0,0.0,0.0,0.0,0.0,0.0,0.0,-0.0102,-0.0918,-0.1466,-0.191,1.2004,1.2117,1.2405,1.273,1.169,1.0789,1.0783,0.8904,0.7495,0.7495,0.6506,0.5745,0.5638,0.5624,0.5897,0.6638,0.6719,0.7079,0.7929,0.7573,0.6876,0.5871,0.663,0.6954,0.662,0.6588,0.6615,0.6615,0.7343,0.7316,0.6642,0.8103,0.7631,0.5542,0.6285,0.5823,0.4519,0.4519,0.4893,0.5515,0.5515,0.5955,0.6615,0.6615,0.6615,0.6723,0.745,0.7696,0.783,0.8566,0.8804,0.8804,0.8804,0.8295,0.7423,0.595,0.6036,0.6448,0.5706,0.6036,0.6263,0.4873,0.5034,0.5328,0.4684,0.4639,0.4723,0.4723,0.4813,0.4921,0.4921,0.5634,0.5928,0.507,0.5634,0.5898,0.5043,0.4921,0.4863,0.4711,0.4694,0.4662,0.4508,0.4634,0.4694,0.4694,0.4833,0.4887,0.4891,0.3401,0.2845,0.3576,0.2903,0.2053,0.1116,0.037,0.0,0.0,0.0,0.0,0.0,0.0,0.0,0.0,0.0,0.0,0.0,0.0,0.0,0.0,0.0,0.0,0.0,0.0,-0.0761,-0.1803,1.257,1.2733,1.2899,1.2804,1.1859,1.1006,1.0812,0.8904,0.7785,0.8519,0.7578,0.6796,0.6662,0.7214,0.7333,0.6736,0.7274,0.773,0.7994,0.8445,0.8477,0.7914,0.7157,0.6713,0.6588,0.6588,0.6858,0.7369,0.7589,0.7857,0.8156,0.8593,0.8182,0.7042,0.7262,0.6551,0.5246,0.5741,0.5792,0.5597,0.6627,0.7176,0.7423,0.7937,0.8156,0.8182,0.8401,0.848,0.8507,0.8725,0.8804,0.8804,0.8804,0.8295,0.7616,0.7176,0.6826,0.6591,0.6607,0.7154,0.7489,0.6567,0.6477,0.6629,0.6606,0.6627,0.6682,0.6792,0.6835,0.6892,0.7044,0.7289,0.7385,0.7131,0.7161,0.699,0.6253,0.5964,0.5593,0.5054,0.4911,0.4833,0.4789,0.4914,0.4928,0.4857,0.4864,0.4931,0.5029,0.4497,0.4273,0.4516,0.3789,0.3274,0.3,0.1624,0.0593,0.0,0.0,0.0,0.0,0.0,0.0,0.0,0.0,0.0,0.0,0.0,0.0,0.0,0.0,0.0,-0.0053,-0.0466,-0.0869,-0.1236,1.2918,1.2886,1.2832,1.2797,1.2145,1.1595,1.1416,0.9869,0.8958,0.9618,0.8653,0.7869,0.7787,0.8142,0.8268,0.79,0.8598,0.9032,0.9032,0.939,0.9513,0.9334,0.8357,0.7755,0.7625,0.7528,0.7696,0.8129,0.8129,0.8374,0.8804,0.8804,0.8401,0.7696,0.7696,0.7042,0.5955,0.6421,0.6502,0.6438,0.7337,0.7883,0.8182,0.8619,0.8804,0.8804,0.8804,0.8804,0.8804,0.8804,0.8884,0.8931,0.8844,0.8662,0.8426,0.8015,0.7864,0.7807,0.7726,0.8235,0.8722,0.8358,0.7987,0.7659,0.754,0.755,0.7613,0.768,0.7751,0.7858,0.7969,0.8285,0.8388,0.8059,0.8196,0.8059,0.7321,0.6745,0.6212,0.5691,0.5241,0.4951,0.4894,0.5015,0.509,0.5098,0.5094,0.5131,0.5216,0.5052,0.4972,0.4972,0.4532,0.4134,0.3717,0.2766,0.1685,0.053,0.0754,0.0713,0.0448,0.0727,0.0867,0.0866,0.056,0.0448,0.042,0.0112,0.0,0.0,0.0,0.0,-0.0054,-0.0398,-0.0688,-0.0949,1.306,1.2719,1.2418,1.2703,1.2485,1.2305,1.2305,1.1338,1.0635,1.0743,0.9699,0.8981,0.8966,0.879,0.8957,0.9655,1.0238,1.0593,1.0593,1.0307,1.0123,1.0123,0.988,0.9593,0.9297,0.8984,0.8844,0.8844,0.8824,0.8804,0.8804,0.8804,0.8454,0.7803,0.7803,0.7396,0.6696,0.6777,0.7155,0.7696,0.7777,0.8209,0.8804,0.8804,0.8804,0.8804,0.8804,0.8804,0.8811,0.8838,0.8991,0.9171,0.8958,0.9252,0.951,0.8614,0.8982,0.957,0.8904,0.9216,0.9793,1.0087,0.9487,0.8646,0.7939,0.7878,0.7959,0.7959,0.8101,0.8226,0.8279,0.8905,0.9201,0.8414,0.8943,0.913,0.8258,0.7437,0.685,0.6588,0.578,0.5192,0.5061,0.5105,0.5209,0.5385,0.5395,0.5395,0.5395,0.5226,0.5113,0.51,0.51,0.465,0.3717,0.3833,0.3034,0.1379,0.1934,0.1847,0.1229,0.1898,0.2202,0.2174,0.148,0.1174,0.1062,0.0364,0.0056,0.0,0.0,0.0,0.0,0.0,-0.0348,-0.0831,1.2857,1.2777,1.2636,1.2425,1.2345,1.2305,1.2305,1.1421,1.104,1.1832,1.1028,1.0323,1.0205,1.052,1.0479,0.9767,1.0238,1.0593,1.0593,1.0533,1.0492,1.0492,1.018,0.9993,0.9897,0.9384,0.9118,0.9118,0.8891,0.8804,0.8804,0.8804,0.8725,0.8566,0.8566,0.8156,0.7503,0.8076,0.8076,0.775,0.8321,0.8646,0.8804,0.8804,0.8804,0.8804,0.8804,0.8804,0.8844,0.9044,0.9164,0.9244,0.9439,0.9579,0.9666,0.9426,0.9517,0.9704,0.9774,0.99,1.0094,1.0419,1.0493,1.0386,1.0001,0.9963,0.9977,0.9977,0.9996,1.0104,1.032,1.0496,1.0562,1.0391,1.0496,1.0256,0.9168,0.8844,0.8463,0.7735,0.6886,0.6355,0.6318,0.5708,0.5358,0.5392,0.5395,0.5395,0.5395,0.5361,0.5257,0.5103,0.51,0.4935,0.461,0.4557,0.3653,0.1993,0.2124,0.2117,0.198,0.212,0.2202,0.2202,0.2037,0.1647,0.109,0.0923,0.0532,0.0,0.0,0.0,0.0,0.0,-0.0079,-0.0275,1.2569,1.2569,1.2522,1.2325,1.2305,1.2305,1.2305,1.1848,1.1694,1.2224,1.1842,1.1489,1.143,1.1562,1.1344,1.0575,1.0666,1.0801,1.0801,1.0667,1.0593,1.0593,1.0445,1.0327,1.0327,0.9886,0.9491,0.9211,0.9058,0.8984,0.8984,0.8871,0.8878,0.8984,0.8871,0.8593,0.8235,0.8646,0.8586,0.8262,0.8646,0.8804,0.8804,0.8804,0.8804,0.8804,0.8804,0.8871,0.9011,0.9164,0.9397,0.963,0.9679,0.9909,1.0104,0.9933,0.9987,1.0164,1.0287,1.0327,1.0401,1.0727,1.0914,1.0915,1.066,1.07,1.0801,1.0801,1.0687,1.072,1.1122,1.1089,1.1042,1.1176,1.1082,1.0804,1.0192,0.9641,0.9139,0.8678,0.7859,0.7307,0.7307,0.692,0.647,0.6042,0.6009,0.5848,0.5428,0.5395,0.5358,0.5243,0.5137,0.5029,0.4891,0.4769,0.4215,0.3289,0.3289,0.3088,0.2732,0.3121,0.3287,0.3289,0.2926,0.2565,0.2176,0.1786,0.1396,0.1006,0.0671,0.0527,0.049,0.0134,0.0,-0.0049,1.2378,1.2378,1.2365,1.2311,1.2305,1.2305,1.2305,1.2305,1.2305,1.2305,1.2305,1.2305,1.2305,1.1997,1.1697,1.1415,1.1156,1.1015,1.1062,1.0827,1.0667,1.0667,1.062,1.0593,1.0593,1.0321,0.9897,0.9364,0.9311,0.9257,0.9211,0.9018,0.9031,0.9204,0.9018,0.8925,0.8858,0.8858,0.8851,0.8804,0.8804,0.8804,0.8804,0.8804,0.8804,0.8804,0.8936,0.9146,0.939,0.9352,0.9684,1.0087,0.9893,1.0198,1.0546,1.0267,1.0401,1.0667,1.0667,1.0707,1.0801,1.1009,1.1102,1.1069,1.0807,1.0895,1.1069,1.1069,1.0875,1.0901,1.1403,1.1303,1.1202,1.1362,1.1223,1.1035,1.0929,1.0122,0.953,0.953,0.8742,0.8156,0.8027,0.7994,0.7697,0.6981,0.6915,0.6593,0.5885,0.5851,0.5837,0.5807,0.5642,0.5386,0.5088,0.5011,0.4808,0.4491,0.4515,0.4175,0.3539,0.4184,0.4491,0.446,0.3846,0.3511,0.3345,0.2676,0.2313,0.2148,0.1535,0.129,0.1203,0.045,0.0176,0.0141,1.2723,1.2723,1.2643,1.2345,1.2305,1.2305,1.2305,1.2305,1.2305,1.2305,1.2305,1.2305,1.2305,1.181,1.1435,1.1395,1.1156,1.1102,1.1315,1.1096,1.0935,1.0935,1.0727,1.0593,1.0593,1.0553,1.0334,0.997,0.9746,0.9492,0.9217,0.9466,0.9446,0.9224,0.9466,0.9426,0.9158,0.9158,0.9011,0.8804,0.8804,0.8804,0.8804,0.8804,0.8804,0.8883,0.9465,0.9872,1.013,1.0025,1.0023,1.0154,1.0405,1.0526,1.0586,1.0546,1.074,1.0935,1.0935,1.1122,1.1282,1.1322,1.1557,1.1705,1.1376,1.1302,1.1335,1.1335,1.1336,1.141,1.1785,1.1812,1.1712,1.1429,1.1362,1.1189,1.072,1.0518,1.0428,1.0428,0.9658,0.8812,0.8059,0.7994,0.7962,0.7832,0.7832,0.7767,0.767,0.7637,0.7582,0.7387,0.7353,0.6876,0.5863,0.594,0.549,0.4491,0.4624,0.456,0.4349,0.446,0.4491,0.4491,0.4405,0.3959,0.3314,0.3204,0.2788,0.2202,0.2091,0.2058,0.1954,0.1221,0.0872,0.0699,1.2536,1.2536,1.2458,1.2325,1.2305,1.2305,1.2305,1.2305,1.2305,1.2305,1.2305,1.2305,1.2305,1.2071,1.1917,1.1917,1.165,1.1536,1.1663,1.1396,1.1162,1.1002,1.0901,1.076,1.0593,1.0593,1.0526,1.0399,0.9936,0.9619,0.9486,0.9285,0.9212,0.9217,0.9351,0.9244,0.8984,0.9144,0.9044,0.8804,0.8804,0.8804,0.8804,0.8804,0.9035,0.9408,0.9898,1.0419,1.0783,1.026,1.0227,1.0419,1.0553,1.0593,1.0688,1.1139,1.1357,1.1589,1.2277,1.2533,1.2729,1.3135,1.2974,1.2819,1.3394,1.3101,1.2494,1.1809,1.1543,1.1563,1.2024,1.2013,1.1913,1.1911,1.1608,1.1336,1.1082,1.0801,1.0593,1.0593,1.0269,0.9881,0.9486,0.9454,0.9262,0.878,0.8716,0.8517,0.8027,0.7994,0.7943,0.7874,0.7746,0.7461,0.6966,0.6947,0.6584,0.5936,0.5592,0.5114,0.4491,0.4491,0.4491,0.4491,0.4491,0.4294,0.3956,0.3956,0.379,0.3456,0.3037,0.2561,0.2043,0.1717,0.1529,0.1362]}]]